GFSCGP_250_spd_000.txt.gz
Wind_Speed
69 62 56 52 52 55 41 39 38 35 35 29 31 34 30 28 24 25 28 29 31 28 28 25 25 25 26 26 25 27 33 35 38 40 39 41 42 41 39 37 39 40 42 44
67 57 56 57 56 51 47 43 38 39 36 32 31 33 28 30 26 25 27 29 31 33 30 28 28 27 27 28 30 33 36 40 41 44 43 43 40 43 42 42 43 45 49 52
67 61 64 60 58 50 48 45 43 39 36 31 33 37 27 28 29 25 27 31 32 35 35 33 32 32 33 33 36 38 39 41 43 45 45 43 44 46 46 47 48 50 55 58
72 70 64 63 56 52 51 48 43 40 38 36 32 31 28 26 28 26 28 32 35 38 39 38 38 38 39 38 40 41 44 46 47 46 44 46 49 50 51 52 55 58 61 63
70 67 64 61 59 55 57 48 46 42 40 37 32 29 26 29 30 28 29 33 35 37 38 38 39 39 38 40 45 45 45 44 44 45 47 50 52 52 54 57 61 65 68 68
71 69 64 65 60 57 54 51 48 44 41 36 29 30 29 31 33 28 29 31 31 33 35 39 40 41 43 40 38 39 41 43 45 48 51 53 54 56 59 63 67 70 72 74
68 65 62 62 59 58 55 49 47 47 44 41 36 31 32 33 33 28 31 31 32 33 32 32 35 36 37 38 40 43 44 45 47 50 52 55 60 63 67 71 73 76 78 81
65 61 61 61 60 61 57 53 49 46 48 44 40 34 32 33 34 30 35 34 31 31 31 34 36 36 39 42 45 46 47 49 52 56 59 63 67 71 74 76 79 81 83 84
62 62 64 63 62 60 53 47 47 46 48 46 39 36 35 35 35 34 37 38 36 35 37 38 39 41 43 46 48 49 52 55 59 63 66 70 73 76 79 81 83 85 87 89
60 64 63 61 60 58 55 50 46 48 48 46 40 38 41 35 35 38 40 41 40 42 42 42 44 45 49 52 54 57 59 62 65 69 72 76 79 81 84 86 90 93 96 99
58 61 59 59 57 57 56 51 44 52 46 48 42 43 43 38 39 40 42 45 47 47 46 47 49 52 55 58 61 63 65 69 72 74 78 81 84 87 90 94 97 99 102 105
60 59 58 60 58 55 56 50 45 45 49 47 45 46 44 43 43 42 45 48 50 51 52 53 56 58 60 61 65 68 71 75 78 81 85 88 91 95 99 102 105 109 110 113
58 56 56 55 53 54 54 50 46 48 49 48 46 45 45 47 46 47 49 50 52 52 55 58 60 61 62 65 68 72 76 80 84 88 92 95 99 103 106 110 113 116 118 122
61 64 65 64 65 61 56 51 46 46 46 44 47 44 48 46 50 54 53 54 55 56 58 61 63 65 68 73 76 79 83 87 90 95 99 102 105 109 114 117 120 124 126 128
36 39 41 43 46 47 47 47 47 45 37 40 42 46 43 46 51 53 56 58 60 62 64 66 68 72 77 80 84 88 92 96 99 102 105 108 113 117 120 121 123 126 128 131
37 40 35 40 45 32 33 40 40 39 39 44 44 49 45 50 52 51 54 58 61 65 69 73 75 78 81 86 90 93 95 99 103 107 111 113 113 117 118 122 127 131 134 139
32 39 40 38 40 40 37 38 40 41 42 43 45 46 48 53 55 57 60 63 67 70 73 76 79 84 88 90 93 96 100 105 107 106 108 111 114 120 126 131 135 139 141 144
23 30 29 31 33 35 36 34 37 40 41 46 50 55 57 57 59 62 63 65 69 73 75 81 85 88 90 94 98 101 100 101 105 110 115 119 122 128 133 138 141 147 149 148
30 31 30 29 30 32 35 39 42 44 46 50 53 55 56 58 60 65 68 72 73 77 82 84 87 91 94 94 95 95 100 106 111 115 119 125 128 132 135 140 145 146 141 145
29 32 32 31 33 37 38 41 45 48 49 53 54 57 60 63 65 69 71 74 79 79 84 88 88 87 89 93 98 102 107 109 114 118 122 127 132 134 134 139 143 146 141 132
37 33 37 38 40 41 44 48 50 52 55 57 58 61 63 66 68 70 72 75 80 83 80 82 84 89 92 97 96 101 106 112 119 123 127 129 131 132 139 141 132 127 122 115
44 43 43 45 46 50 52 54 55 56 57 59 60 62 63 65 69 73 75 73 71 76 80 84 89 92 96 101 105 110 117 122 125 128 129 129 132 137 134 125 120 115 107 101
46 45 47 50 52 54 56 58 60 60 60 62 62 64 68 67 61 63 66 70 74 76 81 89 90 97 104 106 114 120 125 128 130 127 127 129 126 123 118 112 106 102 97 93
47 46 48 51 54 56 58 60 61 62 62 61 60 55 58 62 65 68 71 74 76 81 82 92 100 104 110 114 120 124 131 132 127 124 124 124 119 115 111 106 100 96 94 89
47 51 54 57 55 53 54 53 54 52 50 51 55 58 61 66 68 73 76 79 81 89 96 102 107 111 116 121 127 132 129 125 125 125 122 118 114 107 101 98 96 94 92 87
28 33 37 39 40 42 44 44 46 50 52 55 59 62 67 72 78 81 82 86 91 97 102 106 109 116 121 125 131 127 126 126 124 120 118 114 106 99 95 93 90 92 91 90

GFSCGP_250_spd_003.txt.gz
Wind_Speed
70 65 55 53 50 47 49 43 41 38 36 32 30 29 28 33 27 29 26 25 27 30 30 29 31 34 33 30 30 28 27 29 31 33 36 40 42 45 47 47 49 52 50 50
75 68 65 59 50 54 50 46 44 40 38 34 32 31 30 35 29 27 26 26 28 27 27 27 32 32 32 30 28 27 28 30 32 35 40 43 46 49 50 50 54 53 52 52
73 69 66 59 53 55 50 50 47 44 40 37 35 34 30 35 34 30 28 27 26 26 27 27 32 34 35 34 32 31 33 36 39 42 44 46 49 51 53 55 54 53 55 56
77 73 65 56 57 55 51 54 51 46 43 41 34 35 34 37 36 31 31 31 30 28 28 31 33 37 40 40 39 38 39 41 43 46 48 49 53 56 57 55 54 55 60 61
73 68 64 58 62 60 60 57 52 46 44 43 37 35 37 40 37 32 31 30 31 30 31 33 35 34 38 43 44 43 41 43 46 48 54 56 54 52 51 54 58 61 62 65
81 74 68 69 68 62 57 56 51 47 43 37 39 36 40 44 40 35 31 28 31 31 32 33 34 34 37 41 43 42 42 45 48 45 45 47 49 51 53 55 58 62 66 70
79 76 73 70 65 60 57 56 52 47 42 41 42 39 42 46 40 35 34 33 33 32 31 33 37 37 36 36 37 40 42 42 43 47 48 50 52 55 58 61 66 69 74 78
73 70 69 66 61 62 64 60 56 52 46 48 44 39 42 46 42 37 35 33 33 32 31 35 39 37 35 36 37 39 41 45 48 51 53 55 57 60 65 69 73 77 80 84
75 73 70 69 69 67 63 60 59 54 49 48 47 49 46 48 47 42 37 33 33 32 34 36 39 40 39 40 43 45 47 50 52 55 57 60 64 68 71 74 78 82 86 89
73 74 72 72 71 62 62 64 58 55 51 51 47 51 48 51 50 45 41 37 36 35 35 39 43 43 43 46 48 49 51 54 58 61 64 67 70 74 78 81 84 88 92 95
70 70 69 68 64 64 65 64 60 58 56 53 51 51 52 53 51 46 44 42 41 38 40 44 46 47 49 50 52 54 58 61 64 67 70 72 75 80 84 87 92 96 101 105
65 66 67 67 68 66 64 62 59 56 57 53 53 52 54 56 55 49 46 46 46 44 46 48 50 51 52 55 57 58 61 64 68 71 75 80 84 88 93 97 101 105 107 112
55 59 63 65 64 64 62 61 61 60 59 56 53 54 56 55 55 49 50 51 50 50 52 53 53 54 56 58 60 63 68 72 75 80 83 86 91 95 99 103 106 110 114 116
49 54 58 61 65 66 64 63 61 59 57 59 56 51 52 55 53 50 52 52 53 55 56 56 58 60 62 64 67 70 74 78 82 84 88 93 97 100 104 108 112 116 118 122
49 51 53 55 57 57 60 59 58 58 59 54 56 50 49 51 50 49 49 51 54 57 59 60 60 62 63 66 71 76 79 83 86 90 96 99 103 107 109 111 113 117 120 126
50 52 53 54 55 56 56 57 57 55 53 56 55 46 44 49 48 48 49 50 52 54 56 58 60 65 69 73 77 80 85 87 92 96 101 105 103 102 109 113 116 119 123 129
55 54 55 54 53 52 52 55 57 59 57 51 46 48 50 51 52 51 51 53 55 56 59 63 65 68 72 77 82 85 88 93 97 100 98 99 104 107 112 115 121 125 129 134
48 58 53 55 57 55 47 47 49 46 45 47 49 51 53 50 50 50 53 55 58 60 62 64 68 73 78 81 85 89 92 95 96 99 101 103 107 114 119 123 127 130 132 135
32 31 34 37 39 40 41 42 36 40 39 39 42 48 46 47 50 52 55 57 58 61 66 71 75 78 81 85 89 92 92 93 96 100 103 113 116 120 125 130 130 130 131 133
30 25 26 30 32 31 34 34 35 37 38 43 43 45 47 50 52 55 57 60 64 68 72 74 77 81 83 86 87 88 93 95 99 108 112 114 121 123 130 129 129 131 142 140
29 28 27 30 32 31 30 32 34 34 42 42 44 47 50 51 55 59 63 65 68 71 74 78 78 76 81 84 89 93 98 100 107 114 118 122 125 128 129 129 131 134 127 120
30 28 27 28 30 33 37 39 39 42 45 47 49 52 55 59 62 64 66 68 70 73 73 74 76 77 82 89 94 95 101 106 112 119 122 123 126 128 128 128 128 122 118 114
41 41 42 40 39 40 42 45 45 48 52 56 59 61 62 63 65 68 69 72 68 68 72 74 78 83 89 92 94 99 103 110 117 120 122 126 128 126 128 123 117 116 115 108
42 44 45 46 48 51 52 52 55 58 60 62 63 65 66 67 68 68 60 62 67 71 75 79 85 88 90 95 101 105 111 116 122 126 126 129 125 124 120 115 116 112 107 99
46 45 47 50 54 53 53 54 55 57 59 61 63 66 64 60 57 60 64 68 72 75 80 85 88 92 96 104 110 113 118 123 126 129 129 125 122 118 112 112 110 103 98 95
47 46 47 50 50 49 52 54 57 60 61 58 56 53 54 58 62 66 69 72 76 82 85 90 94 99 105 112 116 119 124 127 130 128 123 121 117 112 109 105 98 100 95 94

GFSCGP_250_spd_006.txt.gz
Wind_Speed
76 69 58 54 56 53 46 42 40 36 32 33 31 30 30 31 29 27 25 24 24 22 23 26 30 32 31 33 32 33 32 28 28 29 31 32 34 36 39 41 45 49 52 54
79 67 67 66 57 50 47 47 43 39 36 35 30 30 30 30 28 27 26 29 26 23 25 27 29 32 30 30 31 32 32 29 28 28 30 32 35 39 42 45 49 53 55 56
76 70 70 62 56 52 51 47 41 41 38 37 32 31 31 30 29 30 24 29 28 25 28 30 30 31 31 28 30 33 34 32 32 33 35 37 40 43 47 50 51 53 57 60
80 76 75 63 60 56 56 51 44 42 41 40 33 33 33 32 32 34 28 32 31 29 31 34 32 32 31 30 32 32 35 37 37 39 40 43 45 48 50 52 54 55 55 55
80 77 74 64 62 62 65 54 49 46 45 41 37 35 35 34 33 35 34 29 33 31 30 31 30 32 34 34 33 33 35 39 42 43 43 45 47 50 52 52 54 56 58 61
87 86 77 72 72 71 62 53 52 47 45 41 40 36 40 37 38 39 37 33 34 32 33 30 30 32 36 34 31 32 34 39 42 44 45 46 50 50 52 55 58 59 61 64
86 82 79 78 70 66 59 55 52 47 44 47 42 36 43 39 40 41 39 36 36 37 37 34 34 35 38 34 31 32 33 36 39 40 43 45 47 51 56 58 60 63 67 71
82 75 74 68 67 65 60 57 53 49 47 49 46 41 45 44 42 43 43 40 36 43 43 40 40 38 38 36 32 34 37 38 39 41 44 48 51 53 56 61 65 68 71 75
81 82 80 77 75 70 63 57 58 51 50 49 48 49 50 48 45 47 46 44 40 44 47 46 42 36 35 35 37 39 40 41 43 46 48 51 55 58 62 66 69 73 77 81
85 84 81 79 74 68 62 63 56 53 53 53 51 53 52 51 50 48 50 49 47 48 49 48 47 40 39 39 41 43 45 47 50 52 55 58 61 64 67 72 76 80 85 89
88 87 83 79 73 70 69 62 60 59 57 56 55 56 55 55 53 52 52 53 53 53 54 52 50 46 45 44 46 48 50 53 56 58 61 63 67 70 75 79 83 87 90 95
85 88 83 79 75 73 71 65 62 60 59 61 60 59 58 57 56 54 52 53 56 57 56 56 53 51 50 49 53 55 56 57 60 63 67 70 73 77 80 85 89 94 98 102
72 77 79 77 73 69 67 64 64 65 65 63 62 63 60 58 57 56 56 58 58 60 59 61 56 54 57 56 60 61 62 64 67 69 71 74 78 83 87 91 96 99 104 106
61 68 68 69 73 75 73 71 70 68 63 64 61 62 59 57 56 59 58 58 58 61 61 60 55 58 62 63 64 65 64 67 68 73 77 80 84 88 92 96 101 102 101 105
53 59 64 67 68 67 67 67 65 63 64 60 62 59 57 57 60 60 60 61 59 58 60 55 56 61 62 60 60 63 67 71 74 77 81 85 89 93 97 99 99 102 105 108
46 53 58 63 66 66 66 65 63 63 63 62 62 60 58 58 60 61 62 63 61 56 60 59 60 59 58 61 64 69 72 75 78 82 87 90 93 94 96 100 105 106 110 115
41 45 49 51 54 55 54 56 57 59 60 60 59 60 58 59 61 63 64 61 60 61 60 60 58 58 60 64 68 73 76 80 85 88 91 91 92 97 101 103 104 111 113 118
39 40 41 43 45 44 48 49 51 52 54 54 57 59 60 60 63 64 62 60 62 61 63 58 60 62 65 68 72 78 82 85 88 91 90 92 94 98 101 106 113 115 120 127
37 40 43 46 45 46 48 50 52 54 54 56 60 63 62 60 62 61 62 62 64 62 62 64 64 65 69 74 78 82 85 88 89 89 91 94 97 102 108 115 119 122 128 132
45 47 46 49 50 51 52 53 55 59 61 65 65 65 58 58 59 56 52 51 54 56 59 61 65 70 74 77 81 85 87 88 90 89 96 101 105 110 115 120 123 130 134 130
24 31 33 38 40 45 49 51 52 53 53 55 55 52 52 49 47 49 50 50 54 58 62 67 70 74 78 81 83 83 87 88 90 97 102 107 112 116 118 126 131 132 130 129
29 33 32 29 30 32 34 35 39 43 46 48 48 46 44 45 46 49 52 55 61 65 69 72 76 78 78 79 81 83 86 91 96 102 107 113 114 121 123 129 131 133 130 128
38 36 33 34 33 33 37 39 42 41 40 41 42 45 47 48 51 55 59 65 69 71 74 76 75 76 77 78 82 85 91 97 104 109 112 111 119 125 129 131 132 130 129 124
34 35 37 36 38 37 37 39 40 43 45 46 47 49 51 55 60 65 68 70 71 72 70 71 71 74 77 82 86 92 98 104 108 109 111 119 124 128 130 132 130 128 125 116
43 43 44 43 43 44 46 47 48 50 51 53 55 56 59 62 65 67 67 69 66 65 68 72 75 79 83 89 94 98 103 106 106 111 118 123 128 129 131 132 127 123 118 112
44 46 45 45 49 49 50 50 51 52 55 57 58 61 63 63 63 64 59 60 65 69 72 75 81 86 92 97 100 103 106 108 113 118 123 127 130 132 131 123 118 116 111 109

GFSCGP_250_spd_009.txt.gz
Wind_Speed
95 82 71 62 60 64 60 50 44 39 33 32 29 30 27 26 24 24 24 25 27 24 21 20 22 22 23 25 28 31 33 29 28 28 27 27 27 29 31 33 36 39 42 45
96 79 73 70 67 65 59 51 45 39 36 32 29 29 29 28 23 21 20 23 26 23 24 22 22 22 23 26 27 30 29 28 28 28 28 28 28 29 31 34 36 40 44 48
85 75 76 72 67 60 58 53 47 40 36 33 32 28 29 27 25 23 20 23 25 24 23 26 24 23 24 27 30 32 32 30 28 30 31 31 33 35 37 40 43 46 49 51
89 83 78 72 68 62 60 59 48 40 36 34 34 34 33 28 26 26 25 22 25 27 25 29 29 27 27 28 30 32 34 32 31 31 34 37 38 40 42 45 47 48 51 53
87 82 77 72 70 69 66 57 46 40 37 37 38 35 35 27 27 29 29 27 27 29 26 31 35 32 29 28 31 31 32 33 34 32 34 37 40 42 45 48 49 51 52 53
89 85 81 78 77 72 65 53 47 44 40 39 36 35 35 32 29 29 31 31 32 33 32 29 34 35 34 32 33 33 33 34 33 34 35 36 39 42 44 46 49 51 54 58
94 88 82 78 75 69 61 52 48 45 42 45 37 35 39 34 33 35 34 33 35 35 38 34 31 35 36 36 35 36 35 34 36 37 35 36 39 42 45 48 51 55 58 62
84 84 79 75 70 67 63 54 51 48 48 46 41 40 41 38 37 38 38 37 38 40 41 40 34 34 39 41 41 40 41 39 39 37 39 40 43 46 50 53 57 60 64 68
84 80 76 72 68 70 62 53 56 53 51 47 46 44 43 42 40 40 41 41 40 41 45 47 42 38 38 42 44 46 47 44 43 45 45 47 50 54 57 60 64 66 69 73
81 80 76 74 69 63 62 61 55 52 53 51 47 49 46 44 44 44 45 45 45 44 47 49 49 49 46 45 49 52 53 51 50 50 50 52 57 60 63 65 68 72 75 79
79 78 78 76 68 67 67 62 59 57 52 52 51 53 52 48 47 47 48 49 49 50 51 51 52 51 51 51 52 55 58 59 58 57 58 60 63 66 68 70 73 76 80 84
81 77 75 73 73 71 68 66 62 59 57 57 57 57 57 53 50 53 53 54 56 55 54 55 54 53 56 57 57 58 61 62 62 64 66 68 71 70 71 74 77 82 87 91
83 80 77 73 70 65 64 65 65 68 68 64 60 62 59 56 56 55 57 59 60 59 57 56 57 58 57 59 61 61 63 66 67 69 71 72 71 71 76 79 83 87 91 95
83 82 78 74 75 78 76 74 73 69 62 66 63 65 61 59 59 59 60 61 61 60 58 58 59 62 63 64 65 65 68 69 69 68 70 70 72 76 79 85 89 93 95 97
70 80 81 80 80 77 76 74 71 65 66 63 68 65 64 63 62 63 63 61 60 60 60 60 63 65 68 70 70 71 71 70 68 67 69 73 77 81 86 89 94 98 98 102
51 63 76 82 83 81 79 76 72 70 68 69 70 69 67 65 66 65 62 61 61 61 64 64 65 69 71 73 72 70 69 65 65 70 75 79 82 87 91 95 98 100 102 103
48 52 59 67 75 78 77 77 76 74 71 70 69 71 66 66 64 63 61 61 63 64 64 67 69 71 74 74 70 66 67 68 72 77 80 84 88 93 96 98 98 99 100 101
36 42 47 52 57 61 67 68 68 67 68 67 66 66 63 62 62 63 63 64 62 64 67 69 71 73 73 68 64 68 71 75 77 81 86 90 93 95 95 95 97 99 102 111
32 33 38 42 46 53 58 60 61 62 62 62 62 62 61 60 59 58 57 59 64 66 67 71 72 71 69 68 66 67 73 78 83 86 91 93 93 91 93 96 100 107 113 117
28 30 33 36 39 43 49 51 52 52 53 55 55 55 57 59 59 59 61 62 65 69 71 68 60 57 59 63 68 73 79 84 89 92 92 87 88 92 97 103 108 114 118 121
29 30 31 33 36 37 42 43 45 46 49 51 52 53 54 55 58 61 65 68 66 64 56 57 58 61 64 69 75 80 85 88 89 83 84 88 94 98 102 109 113 117 120 122
38 41 41 42 42 44 43 43 44 48 51 51 53 55 58 59 59 59 58 58 57 58 53 56 59 64 70 77 82 83 84 80 79 83 90 96 101 105 110 113 117 121 126 130
24 26 27 26 26 32 33 36 39 40 43 44 46 49 50 50 52 53 52 51 52 53 57 62 68 73 77 78 80 78 75 79 85 91 97 103 107 110 114 118 122 128 133 135
33 34 32 32 35 34 34 34 36 37 39 39 40 42 46 48 48 50 53 54 56 61 65 70 73 74 76 73 72 76 81 87 92 99 104 106 109 114 118 123 128 133 135 132
30 30 39 37 37 37 39 39 40 41 42 46 50 51 53 55 55 54 58 60 62 66 69 71 72 69 68 73 77 83 89 94 100 104 106 108 114 118 122 128 133 134 133 128
38 36 37 38 37 38 41 42 42 45 46 46 48 51 52 53 54 57 60 62 64 66 65 62 66 70 76 81 86 90 95 99 102 107 110 114 117 123 128 131 132 131 126 123

GFSCGP_250_spd_012.txt.gz
Wind_Speed
107 103 100 88 76 73 67 69 62 58 53 50 44 46 36 36 31 30 30 27 26 29 29 29 27 23 26 27 25 23 25 26 28 29 31 28 27 27 29 30 31 36 39 41
106 99 97 87 80 74 72 67 60 51 51 49 43 45 37 34 27 25 25 24 21 24 29 24 21 24 25 26 25 25 25 27 29 30 31 32 29 28 29 30 32 33 36 39
101 95 97 90 83 74 68 65 57 52 53 50 44 41 34 32 28 27 25 22 19 16 22 25 24 25 28 29 26 26 27 29 32 31 33 35 35 34 34 35 36 38 41 44
93 99 95 87 80 73 70 67 54 51 54 49 44 39 34 29 27 27 27 24 23 19 21 21 24 22 28 30 30 31 31 31 34 35 34 34 37 40 40 41 42 44 46 49
92 99 96 86 78 74 75 69 56 56 53 49 43 41 37 32 28 28 27 25 24 26 24 22 23 25 26 32 35 34 34 34 35 35 36 37 39 40 40 42 44 45 48 51
96 98 92 85 82 77 74 66 58 58 53 48 44 41 37 33 31 30 29 27 27 27 26 25 24 25 27 29 35 37 37 37 37 38 40 40 40 39 40 42 44 45 47 50
98 97 91 87 84 80 72 66 61 58 51 49 42 41 38 34 33 31 32 32 32 30 30 30 30 29 28 32 34 37 39 41 42 43 43 45 46 45 45 47 49 52 53 57
98 98 96 88 83 73 67 64 59 56 54 50 44 45 37 32 31 31 33 35 36 34 35 34 35 36 36 36 37 37 39 42 45 46 48 50 52 53 54 57 59 60 62 64
99 96 88 83 78 73 68 62 56 58 57 53 48 47 40 36 32 32 34 36 38 38 39 39 38 40 42 43 44 45 45 46 47 50 52 53 56 60 62 63 65 66 68 70
95 91 87 80 77 74 69 67 61 59 57 54 50 48 44 42 38 35 36 38 40 41 42 43 44 44 45 48 48 49 50 51 51 52 54 57 61 63 66 68 71 73 75 77
91 88 81 78 77 71 69 65 62 62 58 56 54 51 47 44 42 41 40 40 40 44 46 47 47 49 49 50 53 54 56 57 56 56 58 60 62 65 69 73 77 79 81 83
83 81 79 77 75 73 71 67 64 59 59 60 62 55 49 47 46 45 45 45 47 49 50 52 53 54 55 55 56 58 60 61 62 63 64 68 72 72 74 78 80 82 83 85
81 80 77 74 73 67 60 61 63 66 68 64 59 60 57 52 49 47 48 50 52 53 53 56 57 58 59 58 60 62 63 64 67 68 69 71 73 75 77 80 82 79 82 86
80 79 75 72 71 70 67 66 67 68 64 66 64 65 58 53 52 53 55 56 57 57 59 60 60 62 62 62 63 65 68 68 70 72 72 75 77 78 77 80 78 83 90 93
75 76 74 74 73 71 69 66 64 59 65 62 65 61 63 59 61 61 62 63 64 64 64 63 63 66 67 66 67 69 71 72 72 73 76 78 77 75 76 78 85 90 92 95
72 76 76 74 72 70 69 68 64 62 62 61 65 67 68 64 64 64 65 67 67 67 68 67 69 70 68 69 70 73 74 74 74 76 77 75 75 78 85 88 87 93 98 101
65 74 74 72 71 69 65 66 67 68 67 69 66 74 66 68 68 68 68 69 70 70 71 71 71 70 70 71 74 74 74 74 76 75 74 76 80 81 84 89 94 97 94 89
49 65 73 73 71 69 71 70 69 69 69 70 74 75 72 70 71 71 71 71 71 71 71 72 71 71 72 73 72 72 74 77 73 69 71 75 82 86 90 93 90 85 89 94
41 46 57 68 73 76 77 76 75 74 75 75 76 76 76 75 74 73 73 71 70 71 71 71 71 70 69 69 70 73 73 67 69 72 79 81 85 90 89 84 84 90 94 101
36 41 44 48 55 64 72 75 76 76 78 78 78 78 77 75 71 69 68 68 68 70 68 65 64 66 67 69 70 67 69 71 73 77 81 86 87 85 81 87 91 97 103 108
24 28 32 35 39 44 48 52 56 59 62 63 65 66 65 64 63 63 62 60 59 59 60 63 65 65 66 65 67 65 69 75 79 82 84 86 82 84 88 93 99 105 109 116
24 23 25 27 28 29 31 31 30 34 39 41 44 46 48 49 51 52 53 56 58 60 59 59 61 64 63 62 64 70 76 80 82 83 83 81 86 90 95 100 106 112 116 119
30 32 30 31 33 32 33 35 36 39 40 41 43 45 48 50 53 56 57 53 54 57 59 60 58 57 63 67 72 77 79 80 81 78 82 85 91 96 102 108 114 117 122 126
25 29 33 35 35 35 38 41 42 43 43 44 43 42 42 44 45 47 50 52 53 54 56 58 61 67 70 74 75 76 75 73 78 81 86 91 97 104 110 115 118 123 127 131
24 24 24 28 30 30 30 31 32 33 34 36 36 37 39 42 45 47 50 53 55 59 60 62 66 69 70 69 68 68 74 78 83 88 93 99 105 111 116 120 123 127 133 135
27 27 27 29 32 34 32 33 37 39 41 42 42 43 45 49 51 53 52 53 56 58 59 62 64 62 61 65 69 74 79 84 89 95 101 107 112 116 119 122 127 132 134 133

GFSCGP_250_spd_015.txt.gz
Wind_Speed
70 92 104 107 103 92 91 88 80 74 68 58 60 58 49 47 46 43 41 35 34 33 37 37 36 36 30 30 29 29 33 32 34 35 32 31 32 32 32 34 35 38 39 38
77 89 94 107 103 96 92 88 81 75 66 60 60 59 52 46 46 44 39 34 33 33 30 33 34 33 30 25 29 31 30 32 34 32 32 33 35 35 35 35 36 40 40 40
63 63 90 102 102 98 93 87 82 73 63 62 60 60 54 46 46 43 38 35 33 27 23 30 28 23 25 23 33 33 33 36 35 37 36 36 36 36 37 39 42 42 44 46
44 64 81 95 98 95 91 85 79 73 63 63 62 62 54 46 48 41 37 35 30 25 24 22 20 22 21 23 24 33 36 38 38 40 39 39 38 36 39 42 42 43 45 47
46 58 72 93 95 94 89 85 79 68 63 61 62 59 54 49 47 42 40 34 28 27 26 24 24 23 24 25 27 27 28 36 40 40 41 39 39 40 42 42 45 46 46 46
49 59 76 96 93 92 92 85 79 70 61 62 62 57 55 51 43 39 35 32 29 28 26 27 25 24 27 27 28 29 31 31 32 37 42 45 45 44 45 46 46 47 50 53
58 67 93 98 94 91 89 83 78 65 64 63 60 57 56 47 41 39 35 32 32 30 28 29 29 28 30 31 31 33 33 34 36 39 41 43 44 45 48 48 50 53 55 58
70 87 98 95 95 99 91 80 70 60 63 62 60 57 53 48 44 39 36 34 32 33 33 34 34 33 34 35 36 38 40 41 44 45 45 46 47 50 51 52 54 57 59 61
81 95 94 97 95 93 82 76 66 62 64 57 57 58 54 48 43 38 37 34 32 31 34 36 36 36 37 39 41 43 45 47 49 50 53 54 55 57 58 59 61 62 65 69
91 91 94 96 89 86 78 74 67 67 67 61 60 58 51 48 43 40 38 34 32 31 34 36 37 39 41 43 44 48 51 52 53 56 57 60 61 62 64 65 67 69 71 74
82 82 92 97 89 78 75 71 68 70 65 62 62 58 51 48 44 42 40 36 35 36 37 39 40 41 44 46 48 51 55 56 58 60 62 63 65 66 67 69 71 73 75 78
91 87 84 83 82 81 75 73 74 71 66 64 62 56 53 49 47 45 44 40 38 41 42 43 46 47 48 51 53 56 60 62 63 66 67 68 69 71 72 73 74 75 78 81
85 95 94 88 82 75 69 64 64 68 67 64 62 57 56 54 49 45 42 43 43 45 47 48 49 50 53 56 59 62 65 68 69 71 72 72 74 75 75 76 77 79 81 83
71 80 84 84 77 74 74 70 70 69 64 63 61 58 58 53 47 44 46 48 49 51 52 53 55 57 60 62 65 68 71 73 73 75 76 76 77 77 78 78 79 81 82 82
69 75 75 74 71 72 75 75 69 62 65 59 62 57 58 50 51 52 54 55 56 57 58 60 61 64 65 67 70 72 75 77 78 79 79 80 79 79 78 80 82 82 83 86
67 72 76 77 76 73 71 69 63 60 58 57 61 62 63 62 59 60 60 62 64 64 64 65 67 68 70 72 74 77 79 80 79 81 82 80 79 78 81 82 83 83 86 90
65 72 75 75 74 70 65 63 63 66 64 65 62 70 65 61 62 64 64 66 66 66 66 68 70 72 75 77 79 81 81 81 81 81 79 77 78 81 80 82 85 87 90 93
60 67 71 71 71 67 65 67 66 64 64 63 65 68 63 63 62 65 65 66 67 68 70 73 75 76 79 81 82 81 81 80 78 76 77 79 80 81 82 84 87 91 95 92
51 61 67 69 69 68 70 68 66 65 67 66 68 67 68 66 67 66 69 71 72 74 76 76 78 82 83 82 80 78 76 74 75 75 77 79 81 82 84 88 92 92 88 90
42 50 60 66 68 69 69 67 66 66 68 68 68 69 70 70 69 71 73 74 76 77 80 81 81 78 76 75 74 72 73 74 75 76 78 78 79 84 89 91 88 87 92 95
36 41 48 56 61 65 67 67 67 68 70 69 70 71 72 72 73 75 76 78 78 77 75 74 72 70 69 69 70 70 72 74 75 74 76 81 86 88 88 84 88 92 96 102
26 29 33 36 43 52 58 62 64 68 69 69 70 72 73 72 72 72 70 66 67 66 64 62 62 64 67 67 69 70 70 71 74 79 83 85 85 81 83 89 93 99 104 110
23 26 28 30 31 35 38 42 46 49 49 49 53 54 53 56 56 54 55 55 56 58 60 62 63 63 66 66 65 68 73 76 79 81 81 78 80 85 90 95 99 105 111 118
25 25 27 28 30 31 33 35 37 38 39 41 43 43 43 45 48 50 52 55 58 57 56 58 60 60 63 66 69 71 74 77 77 74 76 80 86 92 98 103 108 113 119 124
24 27 29 30 31 33 35 36 37 38 40 43 45 46 48 49 50 50 48 47 49 52 55 57 59 64 66 68 70 71 74 73 72 76 82 87 93 99 104 110 116 120 124 128
19 20 22 23 25 29 32 33 34 37 37 38 37 37 38 39 42 46 49 51 53 55 59 61 64 66 67 68 70 68 69 73 78 83 89 95 101 106 112 116 120 124 128 131

GFSCGP_250_spd_018.txt.gz
Wind_Speed
82 84 76 77 78 72 86 95 90 86 87 81 72 67 65 56 51 46 45 46 41 38 37 35 35 34 33 34 35 33 35 39 34 33 35 37 39 37 37 39 38 36 37 39
81 74 74 80 73 72 86 95 93 89 89 86 74 67 64 58 49 48 48 42 38 38 34 32 34 35 36 35 35 38 36 33 34 33 33 36 39 39 40 40 39 39 38 40
79 68 71 62 59 67 81 95 94 88 90 83 75 68 63 57 52 51 47 44 39 38 34 34 32 29 31 32 36 34 29 29 36 37 37 36 38 41 40 40 41 41 42 42
58 65 62 57 58 72 83 91 98 90 92 82 74 67 65 58 52 50 49 46 42 38 35 35 30 26 26 27 28 26 27 26 27 30 34 38 41 42 42 42 44 45 46 47
57 59 47 51 56 69 80 89 97 88 84 83 73 68 65 56 54 52 50 46 43 41 38 36 31 30 30 27 27 26 26 26 26 28 30 30 32 35 38 40 42 45 47 49
48 41 38 45 52 72 91 93 97 92 93 83 71 68 69 59 57 58 50 44 43 41 40 34 31 30 29 29 28 27 27 29 29 29 31 33 35 37 40 43 45 47 50 52
32 32 38 44 60 80 83 98 99 93 89 76 72 69 66 59 57 54 49 45 43 43 39 35 32 31 31 30 29 30 31 32 34 36 37 38 41 44 47 49 50 53 55 58
27 31 37 48 58 68 83 89 84 83 76 72 67 65 63 57 57 54 50 44 46 45 40 36 33 34 33 34 34 35 35 35 38 40 42 44 47 50 53 55 58 60 61 63
31 37 47 58 75 85 90 92 82 80 82 78 68 70 66 59 57 52 49 46 44 41 38 36 35 36 37 35 35 37 37 38 42 45 47 49 52 56 59 62 64 65 68 69
40 54 67 78 86 90 90 83 89 85 80 71 72 68 62 58 54 53 52 49 44 40 39 36 35 36 35 34 35 37 39 43 47 49 52 55 59 62 64 68 71 73 74 75
57 66 73 81 87 88 84 88 82 82 75 73 70 63 58 57 55 55 54 50 43 41 38 38 37 36 35 37 39 42 45 48 51 53 57 61 66 68 70 73 75 78 80 80
69 75 81 83 86 85 81 88 83 79 76 73 68 62 59 56 54 55 53 48 43 40 39 39 40 40 40 41 43 46 51 55 57 60 64 67 70 74 76 79 81 83 83 85
75 77 86 88 86 84 90 79 79 75 72 69 65 59 57 54 54 55 51 46 43 43 43 44 45 44 44 47 49 53 57 60 63 66 69 72 75 79 81 83 85 85 87 87
76 85 84 88 85 86 82 82 79 72 71 69 63 59 55 54 53 50 51 50 46 45 47 48 50 50 52 52 55 59 63 66 69 71 74 77 81 84 86 87 87 88 89 88
77 82 83 83 81 82 81 79 73 70 72 65 62 60 58 57 53 52 51 49 48 49 50 52 54 54 56 59 63 67 70 71 73 75 78 82 85 89 88 89 90 89 88 89
70 71 72 72 74 78 75 69 63 66 63 63 60 60 57 54 53 52 48 51 53 54 56 56 58 61 64 67 70 73 73 74 77 80 83 87 90 90 90 91 89 88 90 92
72 71 69 71 72 72 68 63 63 63 61 62 60 61 51 51 50 52 54 57 56 57 59 60 63 66 69 72 74 75 78 80 83 84 88 91 91 90 89 88 88 91 92 95
42 37 52 68 72 67 62 59 61 58 57 57 58 59 51 51 53 55 55 58 59 62 65 67 69 71 72 74 76 80 82 84 86 89 90 90 89 88 87 88 90 92 92 92
40 43 49 58 62 62 61 59 60 58 58 58 59 58 50 55 59 55 56 60 62 63 66 68 69 72 75 79 81 83 86 88 90 89 88 85 85 85 87 87 89 92 93 96
37 40 47 56 61 64 62 60 58 59 60 61 61 59 57 60 57 61 61 62 64 67 69 72 75 77 80 82 84 86 87 86 83 81 82 81 84 86 87 89 91 93 92 91
36 41 45 52 60 63 65 62 61 63 62 60 60 60 61 61 62 65 65 67 70 72 74 77 79 80 82 85 83 82 80 76 77 78 80 83 84 85 87 90 91 90 91 94
28 31 37 45 54 60 62 63 64 64 62 62 63 63 64 65 67 68 70 71 73 75 76 78 81 82 79 76 73 73 75 75 77 78 79 83 84 86 88 89 89 92 96 102
28 30 31 37 41 47 54 59 62 64 64 65 66 67 68 68 69 71 72 73 74 77 77 75 71 68 67 68 69 71 72 75 76 78 81 83 85 85 85 87 92 98 104 109
25 28 32 34 35 39 44 48 53 56 59 62 63 65 66 68 69 70 72 72 70 67 63 60 62 65 64 64 68 70 72 74 77 80 81 80 78 81 87 93 99 105 111 114
22 23 26 27 29 33 36 38 42 46 49 52 55 56 57 57 59 57 55 53 54 56 58 58 58 60 64 68 69 71 74 76 79 76 74 77 82 88 94 101 107 112 118 122
24 23 25 28 28 29 30 32 34 36 36 38 39 41 42 43 46 49 51 51 51 51 53 56 60 65 68 70 72 74 75 71 68 72 77 82 89 95 101 107 113 120 124 128

GFSCGP_250_spd_021.txt.gz
Wind_Speed
59 52 55 65 66 67 64 61 62 65 78 86 79 81 83 81 69 60 59 53 46 44 41 40 40 44 42 42 41 39 39 35 34 33 37 40 36 39 39 41 41 39 41 42
61 56 70 73 72 71 69 65 59 66 78 91 84 82 87 82 69 61 58 53 44 43 39 39 40 37 36 33 34 33 32 33 33 36 36 38 40 40 40 41 42 43 43 42
66 67 78 76 76 74 72 67 65 65 79 90 88 84 87 77 69 64 57 52 41 44 39 39 36 34 30 31 33 33 34 33 33 34 33 33 34 38 42 43 43 44 44 44
70 79 81 82 78 79 74 75 72 66 77 88 92 82 83 76 72 65 55 49 42 46 39 39 36 33 33 32 33 32 29 28 28 30 32 32 34 34 34 34 34 37 39 41
76 77 83 79 77 80 68 73 68 69 78 87 94 82 82 78 73 59 54 47 46 46 41 41 37 35 36 34 33 29 27 26 27 27 28 30 33 33 33 34 36 38 40 41
75 73 74 75 73 65 61 62 63 70 84 93 89 79 84 78 69 61 56 47 48 49 44 43 39 38 39 38 36 32 30 28 29 30 31 33 36 38 39 40 42 44 47 50
67 61 55 54 56 53 48 59 62 75 87 78 85 79 84 76 68 61 54 50 52 52 48 44 40 41 43 39 35 33 32 32 32 34 35 36 38 40 43 43 45 48 52 55
43 41 38 40 42 44 50 66 70 73 72 80 83 76 79 73 67 59 55 53 53 53 48 44 42 46 43 40 37 34 33 35 37 39 39 39 41 44 46 48 51 53 57 61
26 25 28 30 32 35 46 54 67 73 80 82 79 78 84 72 66 58 57 55 54 53 48 44 46 47 43 42 39 37 37 38 38 39 39 43 46 48 51 55 57 60 64 66
17 19 24 28 30 38 52 61 70 83 81 83 82 83 80 70 66 60 59 58 55 52 48 47 47 48 45 42 40 40 40 39 40 43 45 47 51 54 58 61 63 66 69 74
16 19 25 32 37 46 54 63 72 77 77 80 80 78 73 67 65 62 59 58 56 53 49 48 49 48 46 42 41 41 41 41 44 47 49 53 57 60 65 67 69 72 76 80
27 38 41 46 55 60 67 68 61 71 75 72 71 76 71 68 65 61 58 58 54 51 50 50 49 47 44 45 45 45 46 47 49 52 55 59 63 67 71 74 75 79 83 85
49 57 60 58 58 65 71 55 56 67 72 68 73 72 68 65 62 60 57 56 54 52 53 53 50 48 46 48 49 50 51 52 54 58 62 65 69 73 77 78 81 85 88 92
62 65 60 59 60 59 65 48 42 42 68 72 73 70 68 64 62 60 57 55 54 53 54 53 50 49 49 51 53 54 56 57 60 64 68 72 76 79 82 84 87 90 94 98
69 62 59 54 57 55 61 54 57 69 75 76 75 70 68 65 62 60 56 54 52 52 54 54 53 51 51 54 57 58 60 63 66 70 74 79 81 84 86 89 92 96 99 99
64 55 62 57 63 57 64 67 71 76 77 77 72 68 65 59 57 54 52 52 52 53 55 55 54 54 56 57 59 62 65 68 72 76 80 82 84 88 91 94 97 100 99 95
64 63 66 63 65 70 71 72 68 70 72 70 66 65 62 56 53 52 49 50 52 54 57 57 56 58 60 61 64 67 70 74 78 80 81 84 89 92 95 98 101 97 93 94
57 62 65 66 66 66 65 59 61 67 65 62 60 59 56 55 53 51 49 48 51 55 56 57 59 61 63 66 68 71 74 77 79 82 86 89 93 96 99 97 91 90 93 94
45 49 56 61 62 61 57 53 58 59 54 53 54 53 55 54 52 51 50 50 52 54 56 58 61 64 66 68 71 73 76 80 84 87 91 93 96 96 90 87 90 91 92 94
31 39 47 51 60 57 46 51 58 54 52 53 50 52 54 55 53 50 51 52 54 56 58 60 62 64 67 70 74 77 81 85 88 90 93 94 88 84 86 87 88 89 91 95
27 31 38 41 44 45 45 50 54 50 50 50 50 52 53 53 53 53 55 55 57 59 61 64 66 68 72 75 78 82 85 88 90 90 85 82 83 84 85 87 89 92 94 92
26 28 29 32 35 39 45 51 52 50 49 51 52 53 53 53 53 55 57 58 60 62 65 67 69 73 76 79 82 85 87 86 81 80 80 80 82 85 85 88 91 90 88 93
25 25 26 27 29 37 46 51 53 52 50 51 51 53 55 56 57 59 60 62 64 67 70 72 74 76 79 81 83 81 76 75 75 76 78 82 84 84 86 87 84 89 93 99
24 25 26 26 28 33 41 48 52 54 55 56 57 58 59 60 61 62 64 67 69 71 73 74 75 77 78 74 70 71 71 72 74 77 79 81 82 84 81 84 89 94 101 107
23 24 24 23 26 30 36 42 48 53 56 58 59 60 61 62 64 65 66 67 68 69 69 67 65 64 65 65 67 68 70 74 75 77 79 79 77 78 84 90 96 103 110 115
17 18 19 22 26 27 30 33 37 40 44 47 50 53 56 58 58 58 57 56 55 56 58 59 59 61 63 65 67 69 70 73 75 74 72 72 77 83 90 97 104 111 116 122

GFSCGP_250_spd_024.txt.gz
Wind_Speed
61 57 58 66 67 65 57 51 48 51 56 58 56 63 75 77 77 78 77 72 66 59 55 52 44 42 39 39 40 45 49 50 50 49 48 48 44 43 43 44 45 44 45 45
63 60 66 69 69 69 61 54 51 58 64 64 63 60 72 77 76 76 78 75 67 61 56 51 42 39 38 39 41 42 40 41 40 40 41 40 42 41 42 43 43 45 45 46
66 66 69 72 73 67 61 58 63 65 72 69 69 65 73 75 81 76 77 75 68 60 56 51 41 38 37 37 37 38 40 38 38 38 37 38 39 43 40 39 36 37 38 39
66 72 75 77 77 75 67 71 74 74 74 71 75 65 73 75 81 75 76 75 68 60 57 49 42 39 37 35 35 34 35 35 33 36 37 37 39 38 37 38 38 39 39 38
72 77 80 79 81 79 73 78 78 78 77 76 75 71 66 74 80 74 77 74 68 61 55 48 41 40 38 35 34 36 35 34 34 31 32 34 35 38 38 38 39 41 41 42
79 80 84 83 86 84 83 83 83 81 80 71 64 68 61 75 78 78 78 75 69 62 55 50 43 43 40 37 37 38 39 37 35 34 36 37 37 39 41 42 43 44 44 45
80 82 82 86 90 89 90 90 90 84 76 38 66 68 52 72 83 79 76 77 72 62 56 51 44 44 40 41 40 42 42 41 39 38 39 39 40 41 43 45 45 46 48 49
80 85 85 84 80 80 81 79 65 60 42 45 68 60 54 75 83 78 76 77 70 60 56 49 44 45 44 44 42 44 46 45 42 42 42 43 43 45 46 47 48 51 53 56
68 60 56 53 52 51 52 47 63 55 50 65 70 54 68 84 77 76 72 71 66 60 56 49 46 49 46 46 46 48 48 47 45 44 45 45 47 48 49 51 53 55 59 62
42 37 32 29 28 29 32 36 35 35 46 49 54 63 76 76 77 73 73 72 67 60 54 49 49 51 48 48 48 49 50 49 48 48 49 50 50 51 52 54 58 60 63 68
23 16 12 11 12 21 25 25 28 38 45 51 53 61 72 76 78 75 78 72 64 59 53 51 50 51 50 50 50 51 52 51 51 51 52 52 53 55 57 59 63 66 69 75
10 6 10 15 16 15 19 30 36 40 42 48 57 69 76 77 76 77 75 68 62 57 54 51 52 52 51 51 52 52 53 54 53 53 55 56 57 59 62 66 69 72 78 83
19 17 31 41 43 44 39 32 37 42 49 56 60 74 77 76 74 75 70 63 59 57 54 53 53 53 52 53 53 52 53 53 54 56 58 60 62 65 68 72 75 80 85 88
47 50 55 56 53 49 40 54 48 46 43 50 66 72 73 70 72 72 66 61 58 57 55 53 53 54 53 53 53 54 54 55 57 60 62 65 67 70 73 77 81 86 90 92
56 66 60 54 50 42 37 30 43 42 47 54 65 68 68 69 73 69 64 61 59 57 55 54 53 54 54 54 55 56 57 58 60 62 65 69 71 74 78 83 87 91 93 97
63 62 62 57 54 47 40 34 24 37 48 56 66 67 68 69 69 64 62 59 59 56 55 54 53 54 55 56 58 59 60 62 63 67 69 71 75 79 83 87 90 94 98 102
48 65 59 52 52 55 53 45 32 42 38 54 65 69 69 69 66 62 58 57 55 53 52 52 52 55 56 57 59 61 63 65 68 70 73 77 80 83 87 90 94 99 103 106
49 52 55 53 51 55 60 54 51 47 55 60 62 64 67 66 62 59 57 55 54 53 51 51 53 54 56 58 60 62 65 68 72 75 77 80 83 86 90 94 99 103 104 98
50 47 49 51 50 49 54 52 52 54 61 57 58 65 66 62 59 57 55 54 51 52 53 52 54 56 58 59 61 64 67 70 73 77 79 82 86 90 94 99 102 99 94 94
41 43 45 45 49 49 50 49 46 48 56 56 58 62 62 57 56 54 55 53 52 53 54 55 55 56 57 59 61 65 69 73 75 78 82 86 90 94 98 99 93 92 91 94
30 32 35 33 37 39 39 37 41 38 49 53 55 58 58 55 54 55 54 53 52 54 55 57 58 59 60 63 65 69 72 74 78 82 86 90 94 96 92 89 89 91 90 91
21 24 27 26 31 29 28 29 32 36 43 47 54 56 54 53 54 56 56 55 55 55 56 58 59 61 63 66 68 71 75 79 83 86 90 92 90 86 86 87 88 88 86 84
17 20 19 22 25 26 24 27 29 29 42 47 50 51 51 52 53 54 54 54 55 56 57 59 61 63 66 68 72 76 79 83 86 88 86 83 81 82 83 84 84 82 83 89
16 15 16 18 19 20 24 28 31 34 43 48 51 50 49 50 52 53 54 55 56 57 59 61 64 67 70 73 76 80 82 82 81 79 77 77 78 79 80 78 79 84 89 95
17 16 17 18 20 22 22 24 28 33 43 49 52 50 50 50 52 54 55 57 59 61 64 66 69 71 74 76 77 76 75 74 73 73 73 74 75 74 74 79 84 91 97 102
19 19 18 19 18 19 20 22 28 34 40 45 49 51 52 54 56 57 59 61 63 65 67 70 70 70 70 68 67 68 69 69 71 69 70 69 69 72 78 84 92 98 102 108

GFSCGP_250_spd_027.txt.gz
Wind_Speed
73 67 63 66 68 64 61 59 58 62 64 66 59 53 57 58 62 67 75 71 68 70 75 73 67 62 59 54 51 49 46 50 56 59 61 61 64 60 62 60 54 54 52 50
73 68 71 73 69 66 65 61 61 64 67 66 64 53 57 52 56 60 70 73 67 67 73 73 70 65 57 53 50 49 43 40 44 47 49 51 54 50 49 49 49 50 47 48
78 75 76 74 74 71 68 66 66 68 72 66 62 52 57 53 53 55 60 71 68 65 72 72 69 64 57 53 50 48 48 40 38 38 39 40 43 45 46 46 45 45 48 44
84 79 82 77 74 75 72 72 71 71 73 68 63 45 54 56 55 52 54 65 68 65 70 73 69 64 59 52 47 45 45 42 39 39 41 42 43 44 44 42 43 43 42 42
88 85 84 79 79 79 74 78 76 77 76 72 60 45 46 55 54 55 57 62 69 66 70 71 72 67 57 51 48 45 44 38 37 38 39 39 40 41 39 40 40 40 42 43
78 84 83 81 81 80 78 80 82 83 81 65 65 52 43 52 53 57 62 69 72 69 72 72 72 65 56 52 49 47 42 38 38 39 38 38 39 39 39 40 41 43 44 46
70 74 75 76 78 80 82 86 88 88 81 57 71 71 36 53 64 62 63 66 73 72 69 72 71 66 57 53 48 47 41 39 41 42 43 43 41 42 42 42 44 46 48 50
67 66 72 75 80 86 87 90 90 89 81 77 87 66 40 58 69 71 64 64 70 70 70 72 71 65 56 52 50 48 42 41 43 45 45 46 47 47 47 48 49 50 52 54
67 70 73 78 81 84 85 87 90 81 78 82 79 62 58 60 65 70 65 63 66 72 72 71 71 63 54 53 51 47 44 43 46 47 48 49 50 50 50 51 52 53 56 59
65 70 65 54 53 54 57 60 60 59 61 66 64 57 46 65 68 70 67 62 68 74 75 72 70 60 54 54 52 48 46 46 48 48 50 51 51 52 53 55 56 58 62 64
61 49 39 34 32 32 32 33 35 36 37 41 49 45 65 67 66 67 66 67 72 77 76 73 70 60 55 54 52 49 48 49 50 50 52 53 53 54 57 59 61 63 66 69
34 32 29 22 12 10 12 12 15 21 24 30 47 66 67 68 73 68 66 68 72 74 72 71 67 59 55 55 53 51 50 51 51 51 54 54 56 57 60 62 65 68 71 74
14 11 12 15 17 24 15 4 6 8 13 24 44 56 69 75 67 62 61 63 72 71 71 69 63 58 55 55 54 52 52 51 51 53 55 56 58 60 62 65 68 72 75 78
30 37 34 36 31 25 28 21 14 18 20 25 37 45 58 59 56 56 60 65 69 69 71 68 61 56 54 54 54 53 52 51 52 54 56 58 60 62 65 68 72 75 79 82
45 41 44 44 42 34 28 26 27 30 33 37 42 48 54 51 52 57 63 67 65 68 67 63 58 56 55 54 52 51 51 53 54 56 59 61 64 66 70 73 76 80 83 86
44 44 37 41 38 32 21 22 28 33 39 41 46 50 52 53 55 63 67 66 66 67 64 61 58 55 53 51 50 50 51 54 56 59 62 65 67 71 73 77 80 84 88 92
44 42 42 35 29 20 13 21 18 29 29 25 35 40 48 52 56 62 61 62 65 64 60 57 54 52 50 49 49 50 54 57 60 62 65 68 71 74 77 80 83 88 92 95
48 45 38 29 35 34 27 27 26 19 18 23 32 38 49 53 56 59 58 61 63 59 56 53 51 49 48 49 49 52 55 58 61 63 66 69 72 76 79 82 87 91 95 98
44 42 42 36 39 33 35 38 36 36 32 31 26 37 39 48 53 54 56 59 57 54 53 51 49 48 48 50 52 54 56 59 61 65 68 71 73 77 81 86 90 94 98 102
46 40 42 42 41 38 37 35 37 35 29 25 25 25 43 49 51 54 55 54 54 54 52 50 50 51 51 50 51 54 57 60 63 67 69 73 76 81 85 89 93 98 101 100
44 46 40 41 46 40 37 33 35 35 30 27 26 34 43 47 50 54 56 54 52 51 50 49 49 49 50 53 55 59 61 64 67 70 73 77 81 85 89 93 97 96 93 93
32 35 35 34 35 36 29 29 29 17 20 25 29 35 40 45 50 53 53 51 50 49 49 50 50 50 53 56 58 60 63 67 70 74 76 80 85 89 93 93 90 89 91 90
16 26 19 12 23 15 23 18 16 16 16 19 27 31 38 45 48 51 51 50 49 49 49 50 52 54 56 58 60 63 66 69 72 77 81 85 88 88 85 85 87 87 83 81
15 18 16 17 17 18 17 16 13 14 15 17 20 31 35 42 47 50 50 49 49 49 51 53 56 57 60 61 64 66 69 73 78 81 84 83 79 80 83 82 78 76 78 84
15 14 15 16 17 17 16 14 15 16 17 19 20 25 35 41 46 49 50 49 49 50 52 55 57 59 61 64 67 71 74 76 79 76 73 75 78 78 73 70 72 78 84 90
10 12 13 14 12 13 14 15 16 17 18 17 21 25 33 39 43 46 47 48 49 52 54 56 59 62 66 69 71 73 71 67 68 71 73 72 68 64 66 72 79 84 89 96

GFSCGP_250_spd_030.txt.gz
Wind_Speed
72 69 69 74 76 77 75 72 67 66 66 65 62 57 62 64 61 59 58 58 60 64 68 67 67 69 73 76 75 68 64 63 59 56 53 53 53 57 60 59 60 63 65 65
73 72 75 78 79 79 78 76 72 68 73 68 66 55 59 61 60 58 56 55 59 64 65 68 68 68 69 72 73 70 62 59 57 52 49 48 50 53 54 57 59 59 61 58
76 77 78 80 82 83 83 81 80 74 76 70 65 55 59 58 55 56 54 54 54 59 62 68 70 70 69 71 71 69 63 58 53 49 47 45 49 51 51 52 51 50 52 48
77 80 81 81 81 86 88 88 89 84 79 74 73 54 58 57 53 51 53 51 51 55 59 62 71 70 67 70 68 67 62 56 50 47 45 44 43 42 44 45 45 46 46 46
70 73 79 77 79 82 81 91 94 93 84 77 70 58 50 57 52 49 49 51 52 51 55 59 68 72 67 66 69 67 60 55 50 48 47 48 47 46 45 46 46 44 44 45
64 67 69 76 82 82 81 82 86 87 84 69 70 64 44 52 52 49 50 54 55 56 54 57 63 71 67 66 67 65 61 56 50 47 46 45 44 44 44 41 42 43 43 43
63 70 76 78 81 76 72 74 77 75 72 58 67 68 44 52 54 57 54 56 59 58 54 55 60 66 66 66 67 65 62 55 49 48 46 44 44 44 42 41 41 42 45 46
67 70 72 64 65 63 61 69 71 71 67 65 70 56 49 60 61 62 57 59 59 56 56 54 58 66 66 64 66 66 61 54 50 48 46 45 45 45 47 47 47 48 49 51
63 58 58 64 66 68 67 69 76 73 72 75 68 57 59 58 68 66 68 64 57 59 59 58 58 65 67 64 66 65 61 54 51 49 46 46 47 47 48 47 48 49 51 55
50 50 61 71 69 69 69 72 75 73 73 69 59 63 64 70 80 78 74 67 60 58 57 61 61 63 69 64 65 63 60 54 51 49 47 47 48 49 49 49 51 53 55 58
48 55 59 63 53 47 45 43 48 52 56 52 46 46 62 79 89 82 79 71 62 56 59 62 64 64 69 63 64 62 59 55 52 50 48 48 50 50 50 51 54 56 59 62
50 38 31 43 48 39 42 43 42 41 39 38 33 38 64 85 94 87 86 75 64 57 60 62 67 66 65 61 64 63 61 54 51 50 48 49 50 51 52 54 57 60 63 66
18 25 32 22 26 22 24 25 23 22 20 24 31 46 58 78 89 86 85 77 65 59 59 62 66 65 63 63 64 59 56 53 52 50 49 50 51 52 55 57 60 63 66 69
13 13 7 3 8 13 12 11 9 6 5 11 15 20 38 61 80 82 77 63 55 56 58 61 63 64 63 61 60 56 54 53 51 50 49 51 53 55 58 60 63 66 70 73
17 17 14 21 23 23 21 18 16 16 11 4 9 16 23 42 65 60 49 51 46 52 57 60 58 65 60 58 57 55 53 52 50 49 50 53 56 59 62 64 67 70 73 78
21 25 25 17 27 24 24 17 21 18 16 11 9 15 21 26 34 40 37 39 48 53 56 54 59 58 57 57 54 52 51 50 49 50 53 55 60 63 65 68 70 74 78 81
26 18 19 17 19 27 27 23 28 25 15 12 12 16 16 24 29 34 41 46 50 50 48 54 57 55 55 52 50 50 48 48 49 51 55 58 61 64 68 71 74 78 80 83
27 15 25 19 23 25 22 25 29 29 25 18 18 24 20 16 23 28 36 41 43 42 46 53 53 54 51 50 49 48 47 47 50 53 56 59 62 65 69 72 76 79 82 85
23 23 20 27 24 22 19 20 15 23 14 22 14 18 25 10 14 27 32 34 39 43 48 51 52 52 50 48 47 47 47 50 53 56 58 60 63 67 70 73 76 80 85 89
25 29 27 26 24 24 20 21 14 15 15 21 18 15 13 9 14 17 22 29 36 41 49 50 50 47 46 45 46 46 48 51 53 55 59 62 65 69 72 77 80 84 88 92
29 26 30 23 23 23 22 18 15 11 6 11 13 12 7 7 13 18 25 32 37 44 47 45 44 43 42 43 45 47 48 51 54 58 61 65 68 72 75 80 83 87 92 97
34 31 34 28 25 25 22 19 18 10 5 3 8 4 1 7 14 25 31 36 40 43 43 42 41 42 43 44 46 48 52 55 58 60 64 68 71 76 80 83 88 93 96 93
24 31 29 28 28 22 20 16 13 14 8 11 5 5 5 13 19 27 30 35 37 41 43 43 44 45 46 48 51 53 55 58 61 64 68 72 76 79 84 89 92 89 86 86
17 23 19 26 25 20 22 20 14 11 9 10 4 3 6 12 21 26 30 35 38 41 43 43 43 45 47 49 51 54 57 61 65 69 73 75 80 84 87 86 82 84 79 74
15 8 12 19 19 18 19 16 10 5 5 9 7 3 7 13 17 24 30 34 40 43 45 45 45 46 48 50 53 57 61 64 68 71 75 80 81 80 79 79 77 71 72 76
9 9 14 14 15 15 14 11 11 9 6 6 7 9 10 12 14 17 22 31 37 41 44 46 48 50 52 55 58 61 64 67 71 75 75 73 74 74 74 69 69 71 77 82

GFSCGP_250_spd_033.txt.gz
Wind_Speed
70 69 73 77 76 74 73 71 69 70 73 76 73 62 58 58 56 57 58 59 57 57 61 60 57 57 63 71 75 72 71 72 71 69 67 61 58 57 56 55 52 50 51 54
70 71 74 77 79 78 76 74 74 74 78 77 75 64 61 63 61 59 59 58 59 62 62 62 60 55 62 69 74 72 71 70 69 69 67 62 56 56 57 54 49 48 50 53
72 73 75 76 76 75 77 78 81 83 84 81 79 68 71 68 61 59 60 60 59 60 63 66 63 57 58 67 72 73 70 69 67 66 65 63 57 54 53 50 50 50 52 54
69 72 70 71 73 79 80 84 88 88 88 85 87 73 70 70 66 64 62 62 62 61 63 64 64 59 56 62 70 73 70 66 65 65 64 61 58 52 51 49 49 48 50 52
70 71 71 72 79 83 84 86 88 91 93 90 84 81 65 70 69 69 68 67 66 65 63 64 66 59 57 59 65 71 70 64 63 64 62 60 56 51 50 48 49 48 48 48
66 67 70 74 78 79 82 84 85 87 87 75 79 79 58 67 73 76 70 69 67 67 65 63 63 56 55 56 60 67 69 65 62 62 62 58 53 49 50 50 51 51 50 48
64 66 70 71 67 68 73 78 81 83 84 72 78 74 61 68 70 76 74 70 68 69 67 64 57 56 56 56 57 60 67 64 61 61 61 58 53 50 50 50 48 50 48 46
51 54 56 60 64 71 77 83 87 79 76 68 67 50 47 63 66 76 77 75 69 70 68 61 56 56 57 56 56 56 61 62 59 61 60 56 53 50 50 48 48 49 49 49
45 51 56 63 66 76 81 80 75 69 70 65 62 53 52 58 66 73 81 81 74 69 67 59 53 55 55 55 54 55 58 60 59 59 59 57 52 51 50 49 49 51 51 52
48 50 59 63 68 70 69 70 70 67 64 62 56 57 60 61 69 77 81 78 76 70 61 53 49 51 53 56 53 53 56 59 58 59 59 57 53 51 51 51 52 52 53 53
49 54 60 57 58 61 59 58 54 49 45 44 40 42 64 71 77 83 81 82 77 73 63 56 48 51 54 57 54 50 54 58 58 59 58 56 53 51 52 52 53 54 55 56
50 52 50 50 41 41 42 45 47 46 43 40 32 41 47 69 84 86 81 81 81 75 62 56 51 52 54 55 53 50 53 58 59 59 58 55 53 52 53 54 55 55 57 58
45 44 33 29 29 30 34 25 25 23 28 32 33 32 35 47 66 83 83 83 81 74 61 56 51 51 53 54 51 50 54 57 58 59 57 54 53 53 54 55 55 56 57 60
37 26 20 16 13 16 21 30 30 29 24 20 23 27 29 37 48 62 77 81 82 72 61 54 51 51 53 53 51 53 54 56 58 58 56 53 53 53 55 56 55 57 59 63
21 13 5 11 17 18 29 30 37 37 32 19 17 17 20 24 35 48 60 74 78 69 56 51 51 49 50 51 51 51 55 57 57 57 55 54 54 55 56 56 56 58 61 66
11 4 7 18 24 23 27 26 35 37 39 28 17 7 6 17 20 25 39 55 65 59 52 50 50 49 49 50 50 49 54 54 55 54 53 54 54 55 55 56 57 60 64 69
13 7 10 23 23 18 21 27 33 36 36 33 33 32 25 19 16 15 21 29 39 47 47 50 50 50 52 47 43 45 52 52 54 54 54 53 52 54 55 57 58 62 66 70
18 10 18 22 16 17 13 22 34 38 34 42 41 33 33 29 29 30 35 39 39 40 44 48 49 49 45 41 40 46 50 52 52 52 50 50 51 54 55 57 60 65 69 74
21 20 18 9 15 8 17 24 33 32 32 38 39 36 35 24 24 27 32 35 35 37 37 36 36 34 33 37 41 46 48 50 48 48 48 49 51 53 55 59 64 69 73 76
21 19 19 11 10 6 11 16 24 28 31 34 29 27 26 21 19 13 13 20 25 25 22 25 25 27 32 37 40 43 45 44 44 45 47 49 52 55 58 63 67 71 75 79
22 22 19 16 12 6 2 5 11 16 18 24 27 24 25 15 12 13 10 5 8 16 17 20 24 28 32 36 39 41 41 41 43 45 47 50 53 57 61 66 71 74 78 83
23 26 22 16 12 11 11 6 3 5 6 9 15 10 9 2 9 10 9 6 3 6 16 21 24 29 33 36 38 38 39 40 42 45 48 51 55 60 66 70 74 78 83 87
14 23 18 16 15 13 15 10 11 9 7 6 8 4 4 6 6 4 4 3 4 7 15 21 27 32 34 35 37 38 39 41 44 46 50 55 61 66 70 73 77 81 85 91
13 12 21 18 12 14 15 16 17 17 12 2 2 4 5 8 7 3 1 4 11 14 20 24 29 33 35 36 38 40 41 43 47 52 57 61 65 68 72 76 79 84 89 88
19 18 11 19 26 23 26 24 14 9 9 12 11 9 9 9 7 5 6 9 13 19 24 28 32 36 38 39 41 43 46 50 54 57 60 63 68 71 75 80 84 83 82 82
12 17 26 21 17 14 10 6 10 6 4 13 16 13 13 15 14 11 10 12 16 21 26 30 34 38 41 44 46 49 52 55 58 61 64 67 71 76 79 77 76 78 77 74

GFSCGP_250_spd_036.txt.gz
Wind_Speed
78 76 79 80 80 81 82 80 78 75 74 74 70 60 62 64 65 65 64 62 58 52 58 62 65 67 66 63 62 64 62 62 63 65 68 69 72 70 67 65 63 59 58 55
79 79 81 83 84 83 83 80 77 76 76 74 73 62 64 66 66 66 66 66 65 62 57 59 64 69 66 63 62 63 64 62 58 61 65 67 69 69 67 64 64 62 59 54
76 80 83 85 87 87 84 78 78 78 77 75 75 66 72 68 70 70 69 69 69 69 66 62 63 67 70 66 64 65 64 63 60 58 61 65 66 68 67 65 63 61 59 55
79 81 81 81 83 82 77 75 76 79 80 80 80 74 72 75 74 76 77 78 75 75 74 69 69 67 68 66 68 68 68 63 61 59 59 64 64 65 65 62 60 61 61 56
63 67 69 72 75 72 73 74 77 78 79 79 80 88 72 79 82 83 87 85 82 81 80 77 69 68 69 66 63 65 65 61 63 60 61 64 64 63 63 59 61 62 58 57
58 62 65 67 68 68 69 73 77 79 82 80 86 89 70 85 86 87 91 94 94 88 87 85 77 70 69 66 62 64 62 60 60 61 61 65 64 61 58 59 62 61 59 58
54 56 60 63 65 67 71 75 77 80 82 79 84 83 77 83 81 85 87 94 93 87 86 86 80 73 69 65 62 64 61 59 59 60 61 62 62 59 54 60 62 60 58 58
51 54 57 62 63 66 68 70 75 73 74 74 77 81 81 88 82 84 86 87 90 85 78 77 78 72 68 65 60 63 60 55 55 58 59 59 60 59 59 59 59 58 58 58
50 54 55 55 54 54 54 60 67 70 76 78 84 84 85 85 77 77 86 89 95 97 83 77 76 72 65 63 60 61 56 53 53 55 55 57 58 58 57 61 60 60 59 59
43 41 43 42 45 49 53 62 70 76 76 77 74 73 75 77 66 70 80 81 88 94 92 79 76 68 64 61 59 56 51 50 50 49 54 56 57 58 60 61 61 61 60 59
31 36 40 44 46 52 57 66 65 64 60 59 57 59 61 62 59 64 73 74 76 86 86 77 74 67 62 58 57 53 49 49 46 45 52 56 58 57 59 62 61 60 59 59
34 37 40 44 49 54 53 41 40 46 51 52 54 39 63 46 50 57 70 74 73 79 80 73 72 68 62 56 55 50 47 45 44 44 47 55 58 57 59 62 61 60 60 60
34 36 41 46 45 31 23 32 27 24 27 37 39 35 47 43 45 54 60 69 68 71 73 70 67 65 59 54 49 43 43 45 48 47 46 53 57 59 61 62 62 62 60 60
32 36 42 31 14 13 14 16 21 30 29 29 35 33 33 33 36 47 53 55 64 65 66 64 60 62 56 52 47 43 43 47 48 48 49 52 57 61 62 63 64 62 60 61
32 33 16 3 6 10 19 19 25 30 37 29 22 29 20 16 21 27 36 43 53 60 59 56 56 55 52 50 47 43 43 46 47 48 49 51 57 60 62 63 62 61 60 60
28 10 7 4 6 10 19 22 27 33 38 26 27 21 18 11 8 15 21 30 44 57 54 51 50 49 49 45 42 44 46 47 48 49 48 50 57 60 62 63 61 58 59 61
15 8 10 3 9 7 17 20 26 34 40 43 45 34 22 11 8 11 16 23 40 54 49 47 45 47 46 44 43 45 46 47 48 49 49 50 57 59 59 59 59 58 60 62
11 13 13 7 5 13 15 19 24 36 42 43 44 48 38 32 31 29 29 27 31 51 46 43 41 43 43 44 46 45 47 47 46 47 46 48 54 55 56 57 57 58 60 63
17 15 13 15 4 14 14 19 24 29 42 41 40 42 40 38 32 35 35 31 32 44 48 44 44 45 45 45 46 46 47 45 42 41 41 46 50 52 53 55 56 58 61 64
23 18 17 14 5 3 6 11 19 28 30 38 32 36 37 34 28 33 40 35 14 30 39 42 45 47 46 44 43 43 40 40 38 37 39 43 46 48 50 53 56 59 62 66
29 23 20 15 9 1 4 7 11 16 18 25 29 28 28 27 28 25 23 27 20 4 16 30 35 36 36 34 33 33 33 32 30 32 36 40 41 44 49 53 57 60 64 69
28 23 18 17 16 11 8 7 7 8 14 15 21 22 16 19 16 19 22 21 17 11 8 8 11 16 18 18 17 17 18 21 26 30 34 36 40 46 50 54 58 62 66 71
31 24 15 14 11 12 10 9 9 10 14 14 10 12 11 9 9 11 10 13 14 12 10 8 6 7 8 10 13 16 19 24 28 32 36 39 43 48 53 57 61 66 71 76
25 17 22 19 18 17 15 18 17 15 13 15 12 8 7 6 3 3 6 6 8 8 5 2 4 6 9 12 15 19 23 28 33 36 39 44 48 53 57 61 66 71 76 80
24 20 12 9 21 20 27 27 17 10 5 10 12 10 11 10 9 7 6 7 7 6 5 6 7 9 12 16 21 25 29 33 37 41 46 50 54 59 63 68 72 76 80 84
26 21 20 18 16 28 21 18 14 10 4 9 15 14 14 15 14 12 10 9 8 9 10 12 14 16 19 23 28 32 36 41 45 49 53 57 61 65 69 73 76 79 83 84

GFSCGP_250_spd_039.txt.gz
Wind_Speed
82 79 81 82 77 77 76 76 75 77 77 76 72 66 65 67 68 72 71 67 64 62 64 62 62 59 62 61 60 62 63 65 68 64 61 60 60 61 63 65 67 69 72 73
76 78 77 77 77 77 78 78 79 79 80 78 78 72 71 73 73 70 73 74 71 69 69 67 65 64 64 64 62 62 63 64 68 66 62 59 55 59 60 60 62 65 68 72
74 76 78 79 77 80 82 80 82 82 81 80 80 72 78 73 74 75 76 78 77 75 73 71 69 66 65 65 66 62 60 64 67 66 63 60 59 58 56 58 61 62 65 66
71 74 75 75 77 79 81 83 85 83 82 82 82 77 76 79 79 78 79 82 83 81 77 76 74 72 69 66 68 66 60 60 66 67 63 61 60 59 58 59 60 63 63 68
76 75 76 79 80 79 81 81 83 83 84 85 85 89 76 82 82 84 84 84 86 87 85 79 79 77 75 71 70 72 67 61 63 66 63 64 63 62 60 60 61 64 65 68
63 64 67 68 70 73 75 77 82 84 85 84 85 91 73 81 86 86 86 87 90 93 92 89 86 84 81 77 72 71 71 65 64 67 62 63 60 61 61 60 60 64 66 68
55 63 66 68 72 74 75 77 79 80 79 73 76 77 70 81 86 82 88 90 93 94 97 96 91 89 86 83 79 73 74 72 68 68 62 61 59 58 57 57 57 62 67 67
56 57 55 55 52 52 54 56 62 60 66 67 68 68 76 85 90 86 90 92 91 92 97 98 97 91 89 85 81 78 77 72 69 67 61 58 60 57 56 56 56 59 66 67
41 39 39 39 40 43 47 50 57 59 61 60 63 70 72 79 84 85 89 82 81 84 86 88 90 84 81 79 77 80 78 74 72 67 60 59 58 56 57 54 53 58 65 66
33 32 34 39 38 37 40 48 51 50 52 60 65 69 80 87 89 91 94 82 71 79 92 89 89 89 77 73 69 68 71 71 69 61 57 58 58 57 54 53 54 57 65 67
31 30 34 29 26 33 36 43 47 52 59 66 69 68 78 83 83 79 81 71 65 73 87 87 85 89 81 76 70 66 63 64 64 56 56 56 57 56 53 50 50 56 62 66
23 25 25 23 27 32 40 45 50 56 48 47 54 41 64 70 68 67 62 55 47 61 71 76 79 77 76 75 72 68 64 61 60 53 53 55 57 53 50 48 50 56 61 64
20 22 24 27 31 35 41 42 27 26 28 32 41 47 55 51 56 57 50 42 44 58 52 56 68 68 66 65 64 67 68 60 56 54 51 56 56 53 48 48 49 53 61 64
21 22 24 28 31 36 25 19 11 15 21 24 44 37 55 48 42 45 42 39 46 44 43 44 55 57 58 51 53 60 59 57 53 49 52 55 53 51 49 51 51 53 61 65
22 23 25 28 31 19 10 8 22 26 22 27 41 39 37 31 22 23 24 26 29 32 31 34 45 48 46 41 50 52 54 52 47 48 51 50 49 51 52 53 52 54 59 64
22 21 26 26 15 4 4 10 18 23 27 30 37 39 30 30 23 15 12 14 20 22 24 30 41 39 37 44 47 50 47 46 47 46 47 47 51 52 52 53 54 54 57 62
20 21 15 12 7 10 6 9 14 28 29 26 34 39 27 25 20 8 1 4 14 18 19 33 35 32 36 41 44 44 44 45 43 44 46 48 49 51 52 53 55 54 54 59
20 11 13 9 11 11 2 10 13 20 28 26 32 35 39 33 24 20 15 14 17 22 28 27 28 31 34 37 38 40 41 41 44 45 46 47 49 51 54 54 54 54 53 56
12 10 15 5 14 10 2 9 15 24 27 33 27 29 33 40 41 43 26 24 26 26 25 25 28 32 35 36 37 38 40 39 40 42 44 46 48 49 50 50 50 48 50 55
11 16 16 9 15 7 6 10 12 17 24 28 29 24 26 28 35 34 34 19 19 21 23 25 26 28 30 31 33 34 34 37 39 44 45 46 48 48 47 45 43 45 48 52
20 22 18 14 14 9 4 6 13 15 17 24 23 26 20 18 24 26 22 28 16 15 16 18 20 21 24 27 29 32 35 38 39 41 45 43 41 40 38 37 38 42 46 51
23 24 23 19 16 13 10 14 15 14 15 13 20 22 20 10 13 12 12 19 13 14 8 19 23 25 27 29 31 33 36 36 35 34 32 31 30 30 31 34 38 42 47 53
23 27 28 14 13 14 18 20 16 13 18 17 17 20 14 8 11 11 10 12 10 6 12 13 13 13 15 16 18 19 18 18 18 20 21 23 26 29 33 38 43 48 54 59
28 24 22 19 13 15 16 17 19 25 19 17 11 12 7 3 5 6 10 12 10 12 12 11 11 9 8 8 8 9 11 15 18 21 24 28 31 36 40 45 50 55 60 65
29 23 16 13 15 14 21 19 19 20 14 14 11 11 8 6 2 1 2 4 9 8 7 8 7 8 9 9 11 14 16 20 23 27 31 35 39 44 49 53 58 63 68 73
31 31 25 17 17 15 20 19 15 12 7 11 12 10 10 10 8 8 6 4 6 9 9 9 11 12 13 15 17 19 22 26 31 35 39 44 48 52 57 61 66 70 75 79

GFSCGP_250_spd_042.txt.gz
Wind_Speed
81 82 82 88 84 88 86 85 85 86 85 85 84 79 77 77 74 75 70 62 65 63 65 70 69 68 65 63 63 62 61 52 57 51 53 56 58 56 59 60 57 58 58 64
80 81 83 86 86 85 83 85 85 85 85 83 83 75 75 76 71 70 71 69 69 70 69 66 69 73 71 68 66 66 65 61 57 56 53 54 51 56 60 59 57 58 56 60
81 79 78 79 80 81 80 82 84 84 82 80 79 74 74 71 70 74 75 76 75 75 74 74 75 72 78 73 70 68 69 68 62 59 55 54 52 54 58 59 59 59 58 60
76 80 78 75 78 76 73 74 77 79 81 77 75 70 71 73 74 77 79 79 80 79 79 79 78 75 76 79 76 72 68 68 68 62 59 54 53 52 55 58 60 58 57 59
70 77 83 79 77 76 73 71 75 76 74 72 73 76 68 78 81 82 82 83 85 87 85 84 84 81 76 82 81 76 72 68 69 65 66 59 60 53 50 55 58 60 61 63
67 67 71 78 77 75 71 72 75 75 75 75 75 79 66 77 81 85 87 89 92 91 90 91 91 89 84 83 83 81 76 72 72 68 71 63 66 60 57 60 59 58 58 61
64 66 67 67 69 70 67 70 74 77 77 78 83 81 75 80 84 89 90 95 96 96 97 97 97 94 89 87 85 86 82 78 74 72 71 69 69 63 63 63 59 59 57 55
55 57 62 66 70 72 74 76 77 73 71 71 74 72 76 79 80 83 95 96 97 97 95 92 92 92 91 90 87 89 84 81 81 78 78 75 66 67 64 63 61 60 56 54
46 51 55 59 60 60 61 60 63 65 69 69 69 65 62 68 69 75 83 87 88 89 90 87 86 85 87 91 89 88 85 83 86 82 83 73 65 66 65 62 63 62 57 55
38 40 41 45 49 50 54 54 50 48 44 43 46 50 56 64 71 74 77 83 85 86 84 82 80 81 86 90 86 88 86 85 83 82 78 72 70 71 65 61 62 60 57 56
36 38 42 47 44 37 32 30 31 31 38 38 44 51 61 70 75 82 86 87 91 90 85 80 76 85 86 90 79 81 76 74 73 72 67 65 66 65 63 59 60 57 57 57
34 37 37 27 22 19 23 23 27 32 41 48 52 48 62 66 73 74 74 78 79 76 69 66 63 74 80 81 74 77 78 71 64 58 60 58 55 57 58 57 58 57 55 56
26 26 20 17 14 17 20 25 30 39 43 42 36 34 51 62 66 61 58 63 60 62 54 50 56 63 66 63 69 75 68 66 66 66 62 54 47 51 54 55 56 54 56 56
19 17 14 12 15 20 23 27 28 27 23 26 33 29 38 48 54 55 52 49 52 45 38 41 55 60 56 61 65 62 54 60 69 68 63 51 47 48 51 53 55 56 59 57
14 13 13 14 17 20 25 16 13 9 12 16 22 22 30 40 44 47 38 33 32 30 28 31 36 36 40 45 44 46 46 51 58 61 58 49 47 47 49 52 56 58 56 55
14 14 14 14 18 18 13 13 1 8 15 21 23 30 30 35 34 28 25 21 16 12 12 13 16 21 28 33 37 37 37 41 49 54 50 47 47 46 49 53 54 55 54 53
15 13 13 17 16 11 14 3 4 13 20 23 25 29 32 27 24 33 27 19 10 8 9 11 14 19 22 24 24 25 32 38 42 41 41 43 44 47 49 50 51 47 53 55
12 13 15 17 9 16 9 2 7 17 22 28 23 33 30 33 26 37 35 30 27 26 27 26 23 21 20 21 23 25 27 29 30 33 37 39 42 43 43 45 46 50 53 58
15 15 16 12 13 15 10 1 7 16 21 27 23 29 27 30 23 28 32 29 30 26 21 19 19 22 24 25 24 23 24 26 29 31 33 34 35 38 43 45 48 55 58 59
17 15 9 14 21 21 12 5 11 14 20 21 22 19 29 24 21 26 21 27 25 25 26 25 23 21 19 17 15 17 20 22 24 26 28 30 34 38 40 49 51 53 57 59
18 12 14 14 18 19 9 8 14 18 16 19 18 15 21 19 17 15 23 22 21 18 18 14 15 14 12 11 9 14 17 17 19 24 25 22 32 41 45 51 55 56 52 49
15 13 19 19 15 16 14 15 17 14 12 21 27 26 10 16 9 9 10 14 18 13 24 8 10 11 3 13 3 5 16 15 14 18 34 33 43 49 51 47 45 42 41 44
13 17 24 19 19 11 12 16 15 14 21 22 19 21 12 3 3 7 6 6 8 7 9 8 8 11 15 15 19 25 24 26 29 34 38 34 31 32 33 35 38 42 45 49
17 19 24 20 13 16 14 14 16 16 19 16 20 19 10 3 6 2 4 10 7 5 5 4 4 5 6 8 11 14 14 13 15 18 21 23 28 34 37 41 44 48 51 56
21 22 24 22 16 17 12 15 17 22 14 13 18 20 11 8 3 3 1 1 3 6 2 4 4 5 7 7 7 9 11 14 17 20 23 27 32 36 41 45 49 54 59 64
24 28 26 22 18 15 14 17 21 17 16 8 11 9 9 10 7 6 6 5 3 4 7 7 7 7 8 9 11 13 15 17 18 21 25 30 35 41 46 51 55 59 63 66

GFSCGP_250_spd_045.txt.gz
Wind_Speed
88 89 89 91 90 88 79 75 77 80 80 76 75 74 75 79 73 74 76 76 76 76 80 78 75 75 71 69 68 68 68 64 63 64 62 58 54 50 51 52 51 57 59 54
82 84 88 89 88 88 86 86 83 81 79 75 77 75 78 79 77 77 79 78 81 82 80 76 74 73 71 70 67 66 67 70 69 68 65 59 56 52 51 51 53 52 51 53
82 81 81 83 85 87 86 84 86 85 84 83 78 76 80 80 81 82 84 86 86 81 78 76 73 70 70 71 74 73 72 70 70 69 72 67 61 57 55 55 55 54 54 51
81 79 76 75 76 80 81 82 82 83 84 83 82 78 79 80 82 84 87 85 82 81 80 77 75 74 72 73 77 76 78 77 75 74 73 77 69 63 61 58 56 54 52 45
78 77 80 80 74 74 77 79 83 82 82 79 78 75 74 79 81 81 83 85 82 80 80 79 80 80 80 78 78 82 82 80 79 76 71 76 76 68 63 59 57 54 54 50
73 75 74 77 76 75 75 78 80 79 77 74 77 75 66 73 79 81 80 80 80 83 84 85 87 87 87 86 86 85 86 86 85 81 74 71 75 76 69 61 59 54 53 53
67 69 70 69 67 69 75 77 76 74 72 72 72 70 65 70 76 78 80 84 87 90 91 91 92 91 92 92 92 92 92 91 91 87 79 73 72 78 77 64 62 62 63 64
66 65 65 66 64 63 66 76 73 70 69 71 69 67 68 74 78 85 86 90 90 94 98 100 99 98 97 98 100 100 98 93 92 92 84 76 75 77 75 68 67 66 63 66
60 64 64 61 60 60 62 61 64 68 72 74 72 69 69 76 82 87 91 89 91 93 96 97 99 100 100 101 105 106 104 101 93 85 77 71 73 75 70 69 69 71 67 68
44 47 50 49 51 54 54 54 57 61 64 66 67 72 77 83 81 79 83 87 91 97 99 99 101 99 98 98 98 95 94 90 83 76 71 67 68 70 73 74 74 70 68 67
34 34 38 38 38 41 46 50 51 54 55 55 59 61 70 72 68 64 67 75 84 87 89 88 89 93 95 96 93 89 86 87 79 69 65 70 70 72 73 73 70 68 67 69
28 32 31 28 29 31 34 38 41 45 44 47 42 42 55 52 57 63 69 75 81 83 85 79 76 84 90 91 88 87 85 86 84 71 69 68 66 74 74 72 69 66 64 63
25 24 22 24 29 33 35 31 27 26 30 35 37 40 49 49 53 58 60 70 73 76 68 64 61 66 74 74 70 75 72 68 67 76 79 76 69 63 59 56 53 54 54 55
22 21 24 26 25 23 18 18 18 25 29 35 35 37 38 38 39 42 50 61 56 54 48 45 44 45 44 48 57 58 56 57 56 62 75 75 67 62 54 48 46 48 48 50
20 22 22 21 18 15 15 15 21 23 22 25 29 24 22 30 29 30 44 45 38 35 32 31 32 30 34 38 40 42 41 47 52 61 64 64 62 56 53 47 44 45 45 48
21 19 16 14 13 12 13 16 16 16 12 7 8 17 15 25 25 26 26 29 27 22 15 11 10 12 15 19 26 32 35 40 43 41 49 51 50 50 50 48 45 43 44 48
15 14 13 13 11 10 12 14 14 6 7 13 16 20 22 29 28 27 27 24 25 19 13 7 3 5 8 9 12 14 16 21 28 34 36 40 42 41 43 43 42 42 45 48
13 13 13 10 7 9 13 15 13 5 10 13 19 17 28 34 29 21 28 30 30 29 29 28 26 24 23 23 24 24 24 22 22 24 27 29 32 36 37 38 40 44 47 47
13 12 10 7 9 13 21 13 7 6 14 15 19 20 25 31 27 19 23 30 29 29 28 29 28 27 26 26 26 25 23 20 19 19 20 22 24 28 32 35 40 44 45 45
14 12 9 8 15 19 21 16 10 8 13 19 18 25 21 27 25 19 10 19 22 25 29 32 33 33 32 28 26 25 23 20 17 16 15 19 22 26 30 36 37 44 48 49
14 12 11 12 18 20 21 16 12 12 16 18 24 25 21 20 23 15 10 14 12 20 20 21 24 21 17 18 18 14 12 11 12 10 14 17 23 28 33 35 39 41 43 50
15 16 13 14 19 22 25 18 17 16 19 20 22 25 19 19 18 16 4 11 6 10 17 13 11 19 12 11 11 15 9 11 9 11 16 19 23 29 31 34 38 44 52 57
19 17 14 15 20 21 17 17 16 12 16 19 22 25 17 17 17 14 9 4 3 2 7 4 3 9 15 12 4 3 12 4 9 14 20 23 26 27 30 35 46 47 47 51
20 17 14 17 23 21 16 11 8 9 16 17 17 17 11 12 16 13 11 7 3 1 1 6 5 3 10 12 12 12 13 15 17 18 22 29 33 38 41 43 40 40 43 48
22 19 16 18 23 20 16 11 10 14 14 18 14 13 7 4 10 12 10 8 7 7 5 2 2 3 4 6 9 11 14 14 14 15 18 21 24 27 31 35 40 45 49 53
25 21 20 22 23 21 16 12 14 16 14 16 11 12 8 5 8 9 7 7 8 7 5 3 4 4 5 6 7 8 9 11 13 16 19 23 29 34 39 43 47 51 55 59

GFSCGP_250_spd_048.txt.gz
Wind_Speed
91 98 95 94 89 88 85 81 77 76 76 73 72 69 75 79 73 71 72 73 72 71 74 73 75 77 77 76 74 73 72 74 76 72 69 67 68 64 63 61 61 63 62 61
84 89 98 97 96 92 86 79 78 79 77 72 72 69 73 76 74 73 74 75 77 77 77 77 79 79 79 82 81 80 80 80 72 71 72 69 71 65 64 63 61 65 67 62
82 83 93 96 95 92 90 85 82 80 75 72 74 71 70 74 74 73 75 76 77 79 80 80 81 82 83 84 84 85 86 81 76 69 66 70 69 64 62 63 62 66 70 59
81 80 78 86 91 92 90 88 86 85 80 74 72 69 74 74 77 77 80 80 80 83 85 86 87 89 88 87 89 90 88 83 79 73 67 69 73 73 70 68 66 65 70 68
82 79 75 77 81 86 88 85 85 87 86 83 83 76 79 81 82 83 84 84 85 87 88 91 93 93 93 92 92 89 88 86 83 78 74 71 71 75 75 73 71 65 59 60
80 81 78 74 74 75 81 84 85 82 83 81 86 84 78 84 87 87 88 91 91 92 93 93 93 94 94 94 93 91 89 89 88 88 83 78 75 75 76 76 77 71 68 61
79 76 77 75 72 69 73 78 80 79 80 81 84 83 85 85 89 90 92 93 93 94 96 97 96 93 93 94 95 95 95 94 94 93 90 85 81 80 79 80 82 80 73 64
70 68 69 75 74 69 68 67 68 70 73 73 74 75 82 86 88 89 91 92 94 95 97 98 97 97 98 99 99 99 101 101 101 98 93 90 86 83 81 79 85 83 76 69
58 59 63 65 71 72 69 66 70 71 72 72 74 75 78 80 81 82 84 86 88 89 91 94 96 97 98 100 101 103 104 104 103 101 100 97 92 88 85 84 85 83 80 76
53 54 57 59 61 61 60 61 62 63 62 64 65 69 79 79 76 75 77 80 83 86 89 93 94 96 101 104 107 108 106 102 98 96 94 93 90 87 86 84 82 76 69 68
50 49 51 52 53 53 55 56 55 53 53 53 54 57 63 66 68 71 75 77 82 86 87 90 93 98 101 103 105 105 103 98 96 95 93 93 92 88 81 73 69 66 62 62
41 41 43 47 51 52 53 52 53 49 50 53 51 61 59 62 64 66 67 73 76 79 83 87 88 88 91 95 98 101 101 100 98 91 90 85 82 77 71 69 68 67 64 61
31 31 31 31 31 34 36 37 36 38 40 40 44 49 51 54 55 55 60 67 71 74 78 82 81 77 78 79 86 91 94 94 97 94 92 90 87 84 77 70 66 62 59 61
26 26 26 28 30 30 29 28 29 30 33 37 34 40 38 43 45 45 44 50 54 57 60 59 55 52 53 55 60 63 69 74 77 76 72 70 71 73 70 72 74 62 53 51
24 24 25 26 27 25 25 26 25 26 27 28 29 31 34 32 33 29 32 37 38 38 52 45 40 40 42 40 42 45 48 54 54 53 52 55 54 52 54 60 69 64 54 47
23 24 24 23 21 21 22 20 20 21 25 22 18 22 21 22 24 25 26 29 33 28 34 37 32 26 22 25 26 26 29 32 34 33 38 41 42 47 53 57 59 57 51 51
23 22 23 22 21 19 18 18 19 18 18 16 10 10 15 16 23 23 22 29 27 23 24 24 22 15 11 5 4 5 11 16 19 26 28 32 39 46 49 44 42 43 45 47
24 23 21 18 15 16 16 15 18 19 16 13 16 17 19 17 24 28 23 27 16 19 18 19 22 20 16 11 11 12 16 15 14 15 17 19 21 22 26 31 32 34 39 42
20 18 16 16 16 14 14 18 23 27 23 16 13 18 18 19 24 23 21 24 13 14 18 17 21 25 27 28 29 29 27 25 24 23 20 19 20 18 21 23 26 30 36 40
17 16 16 17 13 12 14 21 23 20 17 16 15 20 20 20 20 16 19 18 11 9 12 17 20 25 26 29 30 31 30 30 31 28 20 20 17 18 20 28 30 33 40 42
17 17 16 14 11 11 18 27 24 20 18 14 20 24 22 20 19 15 14 14 2 6 10 15 16 14 20 19 19 23 26 25 20 18 20 16 16 18 22 27 31 35 36 38
21 19 17 13 12 15 22 26 26 23 17 19 21 25 26 21 17 16 14 14 3 1 9 7 13 6 6 10 12 10 10 9 9 14 11 12 15 18 20 26 29 32 34 38
23 21 18 16 15 18 21 27 28 24 21 21 22 25 24 13 14 14 13 11 15 11 12 7 5 6 4 12 8 8 8 4 3 2 5 8 12 17 20 21 26 31 35 39
25 22 19 16 15 21 22 23 25 24 16 18 23 21 16 7 11 10 15 11 5 7 4 4 1 4 9 11 10 8 7 7 9 13 13 12 15 18 22 25 30 35 39 43
26 24 20 16 17 21 25 25 24 19 16 15 16 14 12 7 10 8 11 13 11 8 6 4 4 6 6 7 8 7 8 10 11 12 13 15 18 21 24 28 33 38 44 48
27 23 21 17 17 17 22 25 20 19 19 16 17 14 10 11 10 11 9 11 13 11 9 7 6 4 4 4 5 6 8 10 12 15 17 20 24 29 34 38 43 48 54 57

GFSCGP_250_spd_051.txt.gz
Wind_Speed
106 112 106 100 98 96 92 89 87 88 89 88 86 81 83 87 82 80 80 80 80 81 84 82 81 82 83 82 79 79 78 75 74 74 73 73 74 73 70 72 70 67 73 73
95 104 108 105 101 96 93 87 84 83 83 82 82 77 80 81 80 78 77 79 82 79 81 82 81 79 77 78 78 75 76 79 76 76 78 78 79 76 75 76 75 73 72 74
92 90 99 104 106 102 93 88 88 86 83 80 78 75 76 78 78 77 77 77 77 77 79 81 79 77 78 79 82 81 80 80 80 80 81 82 83 82 80 78 76 71 67 66
88 88 91 98 102 100 99 92 89 86 81 77 78 74 78 76 77 78 79 78 75 76 76 77 78 77 78 79 80 82 85 85 84 84 83 84 86 86 85 84 81 76 74 76
81 84 84 88 90 94 96 98 96 90 84 81 78 73 82 79 78 78 79 79 79 79 79 80 81 82 83 84 85 87 89 91 93 92 91 92 91 89 88 88 86 82 77 72
78 79 79 81 83 82 88 95 96 95 92 84 81 77 79 81 80 80 85 85 82 82 83 82 84 86 89 91 93 95 94 94 96 99 99 97 97 95 92 90 87 82 82 75
70 72 72 73 74 78 77 84 90 90 88 87 87 83 84 85 85 85 86 86 87 86 87 87 89 92 95 97 98 99 100 102 104 104 103 102 98 96 93 88 87 83 80 82
67 74 73 71 71 71 69 66 75 82 85 87 87 87 90 89 88 88 90 91 91 92 93 95 97 99 101 103 104 105 107 109 110 110 109 108 103 98 94 90 87 88 86 85
56 64 71 72 72 70 65 61 63 66 71 77 83 87 88 90 93 92 92 95 97 99 101 103 104 106 107 108 109 108 108 108 107 108 107 105 101 98 96 95 93 90 87 85
51 55 65 69 70 68 64 62 58 60 60 64 69 78 85 85 84 85 87 89 91 92 93 93 94 94 97 100 102 103 106 107 109 110 108 106 103 100 98 96 93 91 92 93
48 52 53 62 68 62 57 59 65 64 59 59 62 70 72 75 76 76 77 78 78 77 78 81 87 92 95 98 101 102 105 107 107 107 106 104 103 102 100 97 93 89 88 88
44 46 45 46 51 53 53 52 53 59 66 63 61 66 64 63 64 64 66 66 62 65 70 75 82 88 92 96 97 97 99 101 98 96 97 98 101 99 95 91 85 80 78 76
40 42 43 42 42 46 49 50 50 52 53 52 56 52 48 54 59 58 57 58 61 64 68 74 78 83 87 88 91 89 88 91 96 99 98 98 98 98 93 90 86 82 78 70
36 39 41 40 40 40 42 44 44 44 44 46 42 48 40 42 45 50 53 53 57 61 66 69 69 72 72 66 67 70 70 69 73 78 81 85 85 85 82 79 79 77 78 74
27 31 34 35 37 36 34 32 33 32 31 29 33 35 37 38 40 44 48 49 50 49 52 52 52 55 52 53 47 43 47 50 53 56 62 63 63 65 66 63 64 67 68 65
27 28 29 29 29 27 27 29 28 26 28 29 30 30 32 35 36 36 34 33 34 30 37 43 46 51 49 42 38 35 33 32 34 38 41 44 47 49 50 52 53 52 50 54
27 29 29 27 25 26 27 27 26 25 24 24 27 29 25 22 24 27 29 31 24 24 33 35 40 42 40 37 28 20 17 14 14 19 24 26 28 31 33 36 39 38 39 43
27 27 26 24 25 25 24 23 23 25 25 25 23 21 22 26 28 31 25 27 18 23 30 28 29 29 27 25 19 12 7 2 2 5 8 11 9 11 15 16 18 18 20 25
24 24 23 25 24 22 23 24 24 24 24 21 21 18 23 24 25 23 25 20 15 22 23 21 27 25 24 20 18 15 12 10 15 17 15 21 19 17 15 13 12 16 14 11
26 24 22 22 21 22 22 23 22 23 25 24 23 22 29 24 19 22 22 17 12 14 17 17 23 26 22 23 19 19 21 24 28 26 24 27 30 24 24 19 15 19 22 19
22 20 20 20 22 21 19 20 21 25 26 27 26 25 27 24 26 22 19 15 8 16 13 17 16 18 22 23 25 25 26 23 17 14 18 14 13 14 17 12 15 16 22 28
21 19 19 20 21 17 13 17 23 26 28 24 23 24 28 30 29 19 13 10 7 14 17 20 19 11 11 13 13 17 19 20 18 15 12 8 6 5 4 8 12 17 23 29
24 22 20 22 20 16 14 16 24 28 28 27 28 27 30 31 24 13 9 8 8 11 15 18 18 6 4 6 8 7 10 11 9 10 7 1 3 6 10 14 17 22 26 28
27 25 23 23 19 15 15 17 20 30 28 29 29 29 24 23 19 16 7 6 9 8 10 15 15 14 10 7 6 7 8 9 10 10 10 10 11 12 14 17 21 24 28 32
29 27 26 23 19 17 16 20 20 23 24 22 24 21 20 18 17 19 11 8 8 10 10 11 13 13 11 9 8 7 8 9 11 11 12 14 16 18 21 24 28 32 36 39
29 26 27 22 22 18 14 17 21 24 25 24 25 23 22 17 15 17 18 13 12 13 13 11 12 14 14 13 11 10 10 10 12 13 16 20 23 26 29 31 32 31 30 32

GFSCGP_250_spd_054.txt.gz
Wind_Speed
100 108 111 112 102 103 103 100 102 101 96 93 91 84 87 90 85 85 86 86 82 82 84 84 83 82 82 84 84 84 83 83 84 84 83 84 82 82 73 74 69 68 69 73
96 101 107 109 111 104 99 98 93 95 96 92 88 84 87 90 87 85 84 83 83 81 80 82 81 80 80 81 82 83 85 84 83 84 83 80 77 73 73 73 73 75 72 76
90 95 101 110 109 106 97 97 98 96 92 89 87 85 87 91 88 88 87 85 83 83 84 83 81 81 80 80 83 85 84 83 81 81 81 79 79 79 81 80 80 82 83 74
87 90 97 101 107 108 103 96 96 95 90 84 82 80 86 86 87 87 86 85 85 85 84 85 84 82 81 82 84 83 84 84 84 82 79 80 81 82 85 86 85 86 84 84
79 85 87 89 100 106 106 102 94 94 91 87 82 78 87 83 82 83 85 84 83 82 81 81 81 80 79 80 81 82 82 83 85 86 85 85 86 87 87 90 92 91 91 90
71 78 80 82 86 96 104 102 98 92 88 84 83 82 81 84 83 82 82 81 81 80 80 80 80 82 83 84 85 86 86 88 90 91 93 93 92 92 92 94 95 95 96 96
61 69 75 79 80 83 87 99 101 99 92 85 88 88 82 85 83 82 83 81 80 80 80 81 82 83 85 87 88 91 93 94 95 95 97 97 97 98 97 98 99 100 100 99
58 64 69 71 74 77 75 76 85 99 98 96 92 87 86 89 89 87 86 85 83 84 83 83 85 88 90 92 94 97 99 100 102 103 105 105 105 105 104 104 104 103 105 104
50 56 61 65 69 69 70 72 75 76 86 96 96 98 96 93 91 88 86 84 86 89 90 90 91 92 94 97 100 102 105 107 109 111 113 114 114 114 114 113 113 112 109 103
43 55 57 57 61 64 64 65 66 69 71 73 79 88 93 94 94 92 90 93 95 94 93 96 99 101 102 104 107 111 115 118 120 122 123 124 122 120 117 113 110 105 100 95
40 48 54 55 56 57 57 58 58 60 63 68 71 71 72 75 81 86 88 90 89 92 96 98 98 99 101 103 103 104 106 108 109 110 111 111 109 106 103 102 100 97 97 96
39 43 49 53 56 57 59 61 60 58 57 60 61 62 60 58 60 65 71 74 78 83 85 87 89 90 90 90 91 93 96 97 98 100 103 106 103 99 97 95 93 93 93 92
37 42 44 52 48 48 51 61 61 59 58 54 56 57 54 52 54 55 58 64 67 69 71 71 72 75 77 79 82 86 87 89 89 87 89 93 97 96 91 89 91 91 92 89
33 38 41 44 43 42 44 50 51 50 48 49 47 49 51 53 54 50 49 51 54 55 56 58 60 64 67 72 75 75 74 75 73 72 71 73 76 75 78 76 74 75 81 85
32 33 33 34 35 34 33 35 36 36 39 43 41 42 41 41 44 44 43 44 45 47 49 53 57 57 51 53 55 51 53 50 47 47 52 55 57 59 63 67 69 71 69 71
27 30 32 35 36 38 36 35 36 38 41 35 39 38 33 32 33 38 39 39 40 36 39 43 42 35 39 46 47 46 47 45 38 34 35 36 38 43 48 51 52 57 63 64
26 27 30 33 33 34 34 35 33 30 28 23 25 25 28 30 31 34 35 35 32 31 37 38 27 30 36 37 46 45 45 41 31 26 23 20 20 24 28 33 38 42 46 49
23 24 23 23 23 23 24 24 23 21 21 23 24 24 26 27 29 30 29 29 31 28 36 29 24 28 30 29 35 37 37 37 28 22 16 7 2 4 7 11 15 18 16 16
23 22 21 21 21 21 22 21 21 23 23 22 23 26 27 28 28 24 30 29 29 28 32 23 21 22 25 23 26 32 32 35 34 25 15 15 15 15 17 18 17 17 14 12
23 22 22 21 22 23 22 22 22 22 22 24 26 28 25 25 25 26 26 25 27 28 25 22 19 20 24 19 17 26 26 27 29 28 25 22 19 21 18 20 19 16 15 10
26 24 23 23 22 22 22 22 22 22 24 26 28 24 23 25 31 28 26 24 23 22 21 19 18 17 19 17 16 15 20 22 18 18 22 23 20 21 16 10 9 5 3 8
25 25 24 22 21 21 21 21 21 23 27 29 27 25 26 29 31 28 24 16 18 15 13 13 14 16 15 14 16 17 18 17 17 19 19 19 17 13 12 12 10 9 11 13
24 23 20 20 21 21 19 19 18 23 28 28 26 26 27 29 32 28 20 15 14 9 10 11 11 12 12 14 16 20 13 11 11 11 10 10 11 13 14 13 13 14 16 19
25 22 20 19 19 21 21 17 18 22 26 29 26 25 26 29 29 25 21 16 14 11 10 12 14 13 10 10 10 11 11 10 11 12 14 15 17 18 19 20 21 23 25 28
27 23 21 19 21 23 21 17 16 18 21 24 28 26 26 27 28 28 22 19 15 14 12 13 14 16 19 15 15 16 15 14 15 15 14 14 17 20 23 26 28 28 28 29
30 28 27 25 25 26 22 16 14 18 19 20 23 23 25 25 30 27 22 21 16 17 15 14 15 16 18 18 16 16 16 16 15 14 17 19 22 24 26 28 29 29 30 31

GFSCGP_250_spd_057.txt.gz
Wind_Speed
98 103 102 106 112 117 107 108 106 107 105 101 99 95 96 96 96 95 94 93 90 87 88 86 84 84 82 82 82 83 82 81 82 81 80 80 81 82 81 82 82 80 80 74
92 98 101 104 107 115 116 109 105 103 103 101 98 93 95 97 96 94 92 92 92 89 88 90 88 85 82 81 80 79 81 82 82 80 79 80 82 82 82 82 83 81 81 80
85 93 96 100 102 105 112 109 104 101 99 100 97 94 94 96 94 88 90 90 91 91 92 89 86 83 81 80 80 80 80 81 80 81 81 80 82 83 84 85 85 84 82 82
76 86 91 96 97 100 108 113 107 103 100 95 94 92 99 95 92 90 88 88 87 87 87 87 89 87 84 82 81 80 81 83 83 84 84 85 84 84 85 85 86 85 83 83
74 81 86 90 91 95 99 107 110 106 97 96 91 89 96 93 91 89 90 89 86 84 84 84 85 84 83 83 83 85 87 87 88 89 87 86 84 85 87 87 88 89 88 89
74 79 81 84 90 92 94 101 108 102 101 93 90 88 89 89 87 89 88 86 84 82 81 82 84 84 84 84 85 87 89 89 89 90 90 90 91 91 92 92 93 95 94 94
67 71 72 75 77 79 83 85 95 103 101 93 93 89 88 87 85 85 84 82 82 82 83 83 81 82 83 85 86 87 87 88 89 91 93 95 96 97 97 97 98 99 99 99
60 65 67 68 68 70 72 77 83 92 99 102 95 92 90 92 90 86 82 81 80 81 83 84 84 84 85 85 85 87 90 93 95 97 98 98 99 100 101 103 103 103 103 104
50 56 59 60 60 62 66 70 74 80 90 95 97 95 91 91 90 88 85 84 84 83 82 82 84 86 87 89 92 94 96 98 99 101 104 106 107 109 110 110 110 110 109 111
43 49 52 54 56 59 61 63 67 71 75 84 94 94 96 93 90 85 85 88 89 89 88 88 88 90 92 93 95 96 99 102 105 109 111 113 115 117 119 120 119 119 119 120
40 44 48 50 53 57 60 62 61 60 62 68 73 81 92 94 91 92 93 93 92 92 90 90 91 93 96 98 100 104 108 112 114 114 115 116 117 115 112 110 109 108 108 106
38 40 44 43 45 47 52 57 59 58 58 62 66 66 66 68 75 85 95 100 100 99 100 99 99 100 102 104 105 105 105 103 101 100 102 104 103 103 103 103 101 100 99 99
32 36 39 43 44 44 44 47 50 53 58 59 59 57 56 57 61 64 67 69 69 71 74 74 75 77 79 82 83 83 83 84 85 88 95 99 98 99 98 98 98 95 87 85
28 32 36 40 43 45 44 45 42 46 48 49 50 52 49 51 54 54 56 59 58 59 60 61 65 68 68 65 63 66 69 73 78 80 84 84 84 86 87 86 84 83 80 77
27 30 31 34 37 39 43 44 44 43 42 48 48 44 45 44 47 49 51 52 53 50 50 51 50 50 50 49 55 58 57 56 59 58 57 58 59 59 60 62 62 62 61 63
22 26 30 33 32 37 38 38 36 35 38 34 37 33 32 35 40 39 37 39 41 41 40 40 40 44 42 46 47 43 45 44 44 43 43 38 37 36 36 38 40 43 43 44
22 24 27 30 32 34 37 37 33 28 25 23 26 31 34 32 34 35 34 33 33 34 35 33 35 38 39 41 34 32 33 36 36 36 37 35 30 27 24 21 21 23 25 28
23 24 26 28 30 32 33 31 28 28 29 30 28 28 27 27 28 30 31 31 30 30 31 30 34 36 38 30 21 22 25 29 32 30 32 37 33 26 20 14 8 6 8 11
19 21 23 26 27 27 27 27 28 27 26 23 22 22 25 27 28 28 28 29 26 25 26 31 37 35 28 24 16 19 22 26 29 28 30 30 34 38 37 30 22 15 10 6
13 14 16 18 19 19 20 21 22 22 22 22 22 24 25 25 24 26 28 25 22 27 32 31 31 29 23 25 20 17 22 24 24 24 24 27 27 29 29 27 26 28 22 18
18 16 16 17 18 20 20 20 21 21 22 22 23 26 26 27 27 27 28 24 23 27 30 25 26 22 18 21 20 18 18 22 21 20 17 18 21 24 25 26 24 21 21 19
22 22 21 21 20 21 22 22 22 22 22 22 25 26 28 28 25 24 25 22 20 21 19 19 15 10 12 14 15 18 17 14 11 13 17 19 20 21 22 22 23 22 21 19
23 22 20 21 23 23 22 21 20 20 21 24 29 30 27 25 26 25 25 18 18 19 17 16 12 11 11 12 11 13 13 11 11 12 12 12 16 18 20 21 21 22 22 22
22 24 26 26 24 22 22 20 21 22 23 26 28 28 27 26 25 26 27 19 22 18 21 19 16 14 13 14 14 15 15 14 15 14 12 13 16 18 20 22 24 26 28 28
27 28 27 25 24 24 23 23 21 20 22 23 25 26 27 26 27 26 29 26 25 19 20 21 19 17 16 16 16 16 16 15 14 13 13 14 18 21 23 24 26 26 27 29
32 30 28 25 24 22 22 22 21 21 20 21 24 26 24 22 26 26 29 23 22 20 17 21 21 19 18 20 19 18 18 17 16 15 17 19 21 25 27 29 30 29 29 31

GFSCGP_250_spd_060.txt.gz
Wind_Speed
99 106 110 112 119 127 125 120 120 122 119 113 109 105 103 101 98 97 94 90 87 84 83 80 79 78 79 79 79 80 80 81 81 81 81 82 83 84 84 84 84 83 83 83
93 97 102 106 114 121 126 125 119 120 118 116 109 105 103 103 101 99 96 94 92 89 87 86 84 82 83 84 83 83 83 85 86 86 85 84 84 82 82 83 82 84 84 83
85 88 92 98 104 115 118 126 123 116 116 115 113 110 106 104 103 101 100 97 95 93 91 89 89 88 86 86 86 86 87 86 85 87 88 86 84 82 83 83 84 85 86 85
76 79 82 88 96 108 114 116 124 119 113 110 113 113 108 106 104 101 98 97 95 94 94 93 90 90 90 90 91 90 87 86 87 87 87 87 86 84 84 86 89 91 91 90
66 69 74 77 85 98 108 112 115 122 116 109 104 109 110 109 106 102 99 94 92 92 97 96 95 93 89 88 87 86 87 87 87 88 89 89 89 90 91 91 92 95 95 95
62 65 70 74 80 89 99 105 109 113 119 109 105 101 103 104 105 103 101 99 98 97 95 94 92 89 86 86 84 86 85 87 88 88 88 90 91 93 94 95 96 98 98 97
61 64 68 71 75 82 93 97 100 103 111 113 100 100 98 95 96 98 97 96 95 93 91 88 88 89 91 92 90 88 86 85 87 87 90 91 93 94 95 99 98 98 98 100
55 57 61 65 70 76 80 87 91 95 99 103 116 98 98 97 96 95 94 91 89 88 88 89 88 88 87 87 87 87 87 87 88 90 92 94 96 98 99 100 101 102 104 105
44 50 52 52 61 65 69 79 85 91 94 94 96 111 105 90 93 93 91 91 92 93 94 91 89 90 90 88 87 86 87 89 92 93 95 97 99 102 104 106 107 109 110 110
41 45 46 48 49 55 60 65 69 79 86 86 88 92 100 108 99 91 88 89 90 90 90 89 87 86 85 87 87 88 90 90 92 95 97 100 103 107 110 114 116 118 119 119
31 36 42 44 45 46 50 55 61 66 71 75 77 83 89 93 99 102 100 98 94 92 91 89 89 90 91 90 91 91 92 96 98 100 103 106 111 117 120 123 124 122 119 117
30 33 38 42 44 43 43 47 53 58 62 66 70 74 79 82 87 93 96 95 95 95 94 95 94 94 93 93 93 96 100 102 103 104 110 113 108 108 109 108 107 106 105 105
28 33 37 42 42 42 43 44 48 52 55 58 60 64 67 68 70 74 79 86 91 93 93 93 93 93 92 93 96 101 103 102 98 90 90 91 93 96 98 100 98 97 90 85
31 31 34 38 40 41 41 43 44 46 51 54 54 54 52 56 59 59 60 60 63 69 74 78 82 82 79 75 75 75 76 76 76 76 75 78 80 83 85 85 84 83 83 83
27 29 31 33 37 40 39 40 40 44 46 49 49 50 53 51 47 48 52 53 56 59 61 62 63 63 63 64 66 66 62 62 61 66 64 63 65 66 64 62 56 55 54 56
24 27 30 32 34 40 42 42 41 38 38 37 41 40 41 43 46 49 49 48 49 50 52 55 55 56 54 52 52 49 51 54 57 54 51 49 44 44 37 34 34 35 36 37
23 26 29 30 32 35 39 42 40 38 37 38 36 39 40 42 42 41 41 42 44 45 44 45 43 42 42 44 44 45 44 43 43 41 38 33 33 32 33 35 32 29 22 19
19 22 26 29 28 29 30 30 33 34 31 30 29 30 30 30 33 35 36 35 36 38 36 35 34 35 39 42 44 42 38 32 37 32 34 28 28 28 29 32 32 31 30 25
17 21 24 26 29 30 31 32 32 28 27 27 27 27 30 32 29 31 32 33 31 31 31 31 32 37 39 39 38 36 30 31 34 32 28 26 23 20 24 27 29 29 28 28
14 17 20 24 27 29 30 32 36 35 34 32 29 28 28 28 29 29 29 28 28 26 27 32 36 41 38 38 34 30 31 31 32 30 23 17 17 19 20 20 23 26 27 27
16 16 17 22 25 27 29 30 31 31 31 30 29 26 27 29 29 28 27 26 26 27 30 34 38 35 31 32 28 27 28 26 29 26 21 18 16 17 19 22 24 27 29 30
20 20 21 21 20 22 25 27 28 29 29 28 28 28 30 29 27 27 28 29 29 26 25 28 29 26 26 26 24 23 23 19 18 19 19 19 18 17 19 21 22 24 25 26
22 22 23 26 27 27 28 27 28 29 29 27 28 29 27 26 28 31 29 30 28 23 21 22 24 24 23 23 23 20 19 19 19 19 20 20 19 19 21 23 25 27 28 27
25 24 24 25 25 25 25 27 26 26 25 25 25 24 26 28 30 30 27 28 28 22 23 21 25 25 25 24 24 23 22 23 23 22 22 22 22 22 22 24 27 30 32 31
29 28 27 27 26 25 26 26 25 24 22 22 22 26 28 30 30 28 28 28 29 21 20 20 23 26 27 26 25 25 25 24 23 22 22 24 25 24 25 27 30 32 33 31
30 29 30 29 29 28 26 25 24 22 22 21 21 23 25 26 27 28 30 28 29 25 22 22 21 24 26 28 27 26 27 27 25 24 24 26 26 26 27 30 33 35 35 34

GFSCGP_250_spd_063.txt.gz
Wind_Speed
91 98 103 110 118 129 131 127 123 122 117 114 109 107 103 101 99 99 98 94 91 87 83 81 80 78 77 77 77 77 75 73 76 76 76 79 79 79 79 82 85 86 87 87
85 92 100 108 113 121 128 127 120 122 119 117 114 109 106 106 102 98 96 96 91 89 89 87 86 85 84 83 83 82 83 82 82 82 81 80 83 84 85 87 87 87 88 90
85 89 94 101 108 115 123 128 124 121 119 118 114 112 111 108 105 101 98 96 93 90 89 88 87 86 85 84 83 82 82 82 82 83 85 85 90 90 92 94 93 94 93 92
81 84 90 96 102 109 117 127 124 122 119 121 119 117 113 110 109 106 104 100 95 93 92 91 90 87 85 85 86 86 86 87 89 91 92 93 93 96 97 99 97 98 98 95
71 78 85 89 94 102 110 122 127 124 124 118 118 120 115 112 112 110 107 105 103 101 98 96 94 92 92 91 91 91 91 92 93 94 94 95 96 97 97 100 101 101 102 103
65 71 77 82 85 91 104 114 125 127 126 124 121 120 117 118 115 112 111 109 107 103 102 101 99 97 96 96 95 95 95 93 94 96 98 98 99 100 98 99 100 101 99 98
61 65 69 74 76 83 93 106 114 124 128 123 121 121 119 118 118 118 114 112 110 108 105 102 100 97 96 96 95 94 96 96 96 97 98 100 100 101 99 99 99 98 99 99
52 59 63 65 69 77 85 96 104 110 114 118 119 121 116 115 116 117 117 116 114 111 108 107 105 104 103 101 99 97 98 98 99 99 100 99 103 101 100 101 99 99 101 102
44 49 55 60 65 71 75 82 92 99 103 108 114 117 120 114 112 111 113 114 113 113 112 112 110 108 107 106 106 104 102 102 104 105 105 101 99 100 98 98 99 101 104 106
36 41 45 48 53 58 65 69 77 85 91 95 102 107 109 113 115 110 108 107 105 107 109 110 109 109 107 104 102 103 101 99 99 99 99 98 97 98 98 100 103 106 109 113
28 30 34 39 42 46 51 59 67 75 80 87 93 98 100 104 108 107 105 102 102 104 104 103 101 97 98 99 99 98 99 97 95 95 94 92 96 100 102 108 111 114 117 119
25 26 29 32 35 40 43 49 56 62 69 76 81 84 91 95 96 99 101 103 96 94 92 93 94 91 90 92 94 94 93 93 93 96 99 99 106 105 106 107 108 108 105 109
21 25 28 29 31 34 39 44 48 54 59 64 73 77 81 85 88 91 93 93 96 100 100 97 93 91 90 91 95 96 101 103 103 101 103 103 100 99 98 91 92 92 97 99
22 25 29 30 32 33 34 36 46 48 52 58 63 67 71 77 82 81 80 80 85 88 90 92 96 99 101 102 105 104 101 99 97 99 98 91 85 82 81 79 79 77 80 84
23 25 28 31 35 37 38 38 40 44 50 52 53 57 60 65 69 71 74 74 79 79 76 78 82 85 88 91 93 92 87 82 80 77 74 73 73 70 67 65 62 62 63 62
23 24 27 31 33 37 39 40 40 41 42 48 48 49 56 57 61 64 66 69 69 68 67 65 66 68 68 66 66 66 64 65 64 62 62 62 63 61 54 53 50 50 44 42
24 26 27 30 32 32 36 40 39 40 39 40 45 47 53 55 57 58 58 59 57 54 56 58 57 55 56 56 56 56 55 56 56 54 56 57 57 50 44 45 41 36 34 34
22 25 27 27 28 30 34 38 39 38 37 38 37 39 40 43 46 47 44 45 49 51 49 49 51 50 48 48 49 49 49 51 50 49 51 52 48 41 38 35 35 36 34 34
18 23 25 28 29 29 30 33 39 39 40 38 38 43 41 39 43 45 46 45 47 47 46 44 42 41 43 43 44 46 48 45 44 45 47 44 41 36 35 33 33 34 32 32
16 19 23 26 29 28 30 30 34 37 39 42 38 34 33 34 33 37 38 38 39 39 38 38 36 35 36 40 44 46 46 45 45 44 41 41 36 33 32 33 31 31 31 33
17 19 20 24 30 32 33 34 35 35 37 34 32 30 32 33 36 37 37 36 35 32 29 31 31 33 38 44 45 42 42 38 40 38 35 33 32 31 31 31 31 30 30 31
18 20 23 24 25 31 36 37 37 39 39 39 37 38 40 37 33 33 33 30 29 30 29 30 31 35 39 43 40 36 35 35 33 31 28 28 30 30 31 32 31 30 31 32
22 22 22 24 27 31 30 32 34 34 35 36 35 34 34 33 32 30 30 31 30 29 29 30 33 36 38 41 36 32 30 28 29 27 27 28 31 32 33 34 31 32 33 33
28 26 27 26 27 27 27 29 31 32 32 34 34 32 32 32 30 30 30 29 29 30 30 32 30 32 37 38 34 31 29 29 31 31 31 33 33 33 34 34 33 34 35 35
34 32 30 32 31 30 29 30 30 30 30 30 30 31 32 31 28 29 30 29 28 30 31 32 28 27 29 31 32 32 32 31 31 31 32 33 33 34 36 36 34 35 36 37
37 35 35 32 33 32 31 32 30 30 30 31 31 30 28 26 28 31 30 31 30 29 32 32 27 25 25 26 28 29 31 32 33 33 34 34 34 36 37 37 36 36 37 39

GFSCGP_250_spd_066.txt.gz
Wind_Speed
87 92 92 98 108 112 115 122 123 125 121 118 113 111 104 100 98 98 97 95 93 90 90 88 84 86 86 83 82 82 82 83 82 76 71 70 76 76 73 77 82 82 81 85
87 89 92 96 100 105 109 113 123 127 122 120 117 112 109 102 98 99 98 94 93 92 88 86 87 85 83 81 78 76 78 79 79 80 79 75 76 81 82 81 83 84 82 84
88 89 90 91 92 96 102 107 117 122 123 121 121 116 110 104 103 100 97 96 93 88 88 85 83 83 83 82 80 78 78 79 80 80 81 82 80 82 84 86 85 87 88 91
90 87 88 84 85 88 95 101 110 117 124 124 122 118 115 110 105 103 101 98 94 92 90 88 85 84 84 83 82 81 82 82 82 81 82 83 86 82 85 90 91 95 97 98
84 81 79 73 75 81 90 96 104 115 122 125 121 119 116 111 108 105 102 99 98 97 93 92 90 88 87 87 86 84 84 85 86 87 88 88 90 91 90 93 98 100 103 105
71 74 75 75 76 77 83 90 99 112 121 122 123 120 118 114 112 109 105 102 100 98 96 95 94 93 91 89 88 88 89 89 91 92 93 93 95 96 98 101 102 104 109 110
56 60 65 71 71 75 74 81 92 102 114 118 120 122 117 116 112 111 110 106 103 102 100 99 98 96 96 95 95 94 95 95 95 96 98 98 100 102 101 104 106 108 112 112
49 52 56 61 67 65 67 75 82 92 100 113 121 119 119 116 116 114 110 110 108 105 104 103 102 102 102 102 103 102 102 102 102 103 102 102 103 105 104 106 109 110 112 114
43 48 51 55 59 60 62 68 75 84 95 103 112 119 119 118 117 117 116 113 111 110 109 108 107 106 105 105 105 105 106 106 106 105 105 105 105 109 111 112 114 112 115 112
29 36 40 46 52 55 58 65 70 76 86 94 104 111 116 118 117 118 116 115 115 114 114 113 111 110 110 109 109 110 110 110 110 110 110 111 112 115 115 112 113 109 107 107
19 23 27 34 39 42 48 55 61 69 76 86 94 99 106 113 117 115 114 114 113 114 114 115 114 113 114 114 113 113 114 114 114 113 109 111 109 111 107 106 106 104 103 106
15 17 21 26 30 35 40 48 55 61 68 76 83 90 99 106 112 113 112 108 108 109 110 110 111 111 110 111 113 112 109 108 105 106 104 105 100 101 101 99 98 101 109 111
16 18 21 24 27 31 36 43 48 54 61 69 75 79 87 94 100 105 106 107 106 102 101 102 106 107 105 106 106 105 102 101 103 103 99 100 103 103 101 105 109 111 104 100
15 17 20 24 30 32 35 38 43 49 55 61 64 71 78 83 87 90 95 99 99 101 100 98 99 101 101 100 98 98 97 97 98 98 101 103 106 109 110 110 101 92 86 81
19 21 24 26 27 31 34 37 40 45 51 53 58 63 66 72 77 82 86 88 92 94 95 96 97 97 97 96 95 95 96 97 98 98 98 98 97 95 89 86 80 76 71 69
17 22 26 28 29 30 32 36 39 41 45 47 51 55 60 64 70 71 73 76 78 81 83 85 86 86 83 81 84 86 84 84 85 86 83 80 78 75 73 71 66 62 61 60
19 19 23 29 31 32 33 33 34 38 41 44 45 50 54 57 59 62 66 68 70 73 75 76 76 78 78 77 78 76 76 75 71 70 69 68 67 63 61 61 60 56 51 53
20 20 22 24 27 30 35 34 36 37 37 42 43 43 46 46 49 51 54 57 59 61 63 66 66 67 69 69 70 69 64 63 62 60 60 59 56 54 54 54 54 49 48 45
22 21 23 25 26 28 32 33 34 37 38 39 39 41 42 45 44 46 51 55 57 59 60 61 61 62 61 62 58 55 54 52 53 55 55 51 50 51 52 52 51 46 45 41
19 21 21 23 25 28 30 32 33 33 35 37 40 42 42 44 47 49 50 51 53 55 54 53 53 53 51 50 49 46 48 51 52 50 48 47 49 50 49 48 46 43 41 39
18 18 20 21 24 28 29 29 29 31 36 38 38 39 41 42 42 43 43 43 44 45 45 44 46 44 42 40 41 44 47 49 46 43 44 44 44 44 42 41 39 37 39 38
19 18 19 22 22 26 28 29 31 33 37 40 39 39 39 39 41 42 41 38 37 40 40 39 36 35 34 36 40 43 44 45 39 38 38 39 38 36 36 36 36 38 40 39
22 21 20 22 23 26 27 31 32 34 35 38 41 43 42 39 38 36 36 34 35 37 35 32 31 33 35 35 38 42 45 40 37 35 34 31 32 34 35 37 39 41 42 41
26 25 26 23 25 27 29 31 34 36 38 36 37 39 40 40 39 41 40 36 35 32 29 30 32 30 33 36 37 38 40 38 36 35 32 32 34 36 37 37 39 40 41 42
31 30 27 27 26 26 30 33 35 35 36 36 38 40 42 40 38 36 36 33 30 30 30 31 30 33 33 33 31 32 34 34 33 33 33 33 34 35 36 37 38 40 42 43
33 32 33 31 32 29 29 29 30 33 34 34 33 34 35 36 36 35 33 31 31 31 31 31 31 29 33 28 27 27 29 30 29 30 32 34 35 35 37 39 41 43 44 45

GFSCGP_250_spd_069.txt.gz
Wind_Speed
79 83 87 94 103 111 118 115 114 122 123 119 117 114 111 105 100 97 96 95 92 90 89 86 84 84 84 83 82 80 79 80 79 78 77 79 80 80 80 79 82 83 83 79
75 78 86 92 99 107 115 117 114 115 120 120 119 117 114 107 102 100 98 95 94 91 88 87 86 87 87 86 85 84 82 82 82 81 80 81 82 82 82 80 77 73 75 79
69 73 81 87 92 100 108 118 117 110 115 120 119 116 114 108 105 102 99 97 94 93 89 87 86 87 88 87 86 85 85 85 84 82 80 78 75 74 75 76 79 82 82 80
71 73 77 84 89 94 102 109 113 110 111 118 119 117 117 113 109 105 102 99 96 92 90 88 88 89 89 88 86 84 83 82 80 80 80 78 75 74 78 79 82 85 86 89
71 70 72 77 84 89 94 97 103 111 112 111 119 118 116 116 110 107 105 101 97 94 92 91 90 89 88 87 86 87 86 86 84 83 84 83 82 84 85 85 86 92 94 94
69 69 73 73 75 79 83 85 91 99 105 103 109 115 118 116 114 114 109 103 99 97 95 94 90 90 89 88 87 86 86 86 86 86 87 88 88 89 91 93 91 93 98 100
56 62 71 69 70 71 71 74 80 84 91 93 104 105 112 118 117 114 112 109 104 100 97 98 96 93 92 91 90 89 89 89 90 90 91 91 93 93 93 96 98 100 101 105
46 52 64 72 70 65 62 61 65 70 78 92 104 99 101 114 117 116 114 111 110 107 104 101 99 98 97 96 95 94 93 92 93 93 92 93 96 97 98 100 103 104 107 109
35 39 50 62 68 67 62 61 60 60 68 82 91 93 104 107 113 116 116 115 114 112 108 105 103 101 101 100 99 98 97 97 98 97 97 98 99 100 103 104 107 109 110 113
29 33 39 44 48 53 54 52 56 60 63 69 79 87 92 105 110 113 116 117 117 116 113 110 107 104 103 102 101 100 100 101 101 101 101 102 103 104 106 108 109 113 115 116
15 21 28 32 37 40 41 44 50 54 59 63 70 77 86 99 110 111 110 110 115 115 115 113 111 109 107 106 105 105 105 104 103 104 104 105 107 108 111 113 115 116 117 114
14 15 18 22 28 31 33 38 43 49 55 59 63 70 79 88 99 110 113 112 112 113 113 113 114 114 113 111 110 110 109 108 108 108 109 109 112 113 114 114 115 117 111 106
17 18 20 23 25 28 32 36 42 47 51 56 59 64 72 80 88 95 104 111 114 114 112 113 113 113 113 113 113 113 112 112 111 110 112 112 112 114 113 112 106 102 106 106
16 19 22 24 25 27 30 33 38 43 46 50 53 59 66 73 80 87 94 100 103 107 111 114 114 114 113 113 113 113 113 112 111 111 109 110 107 109 110 103 100 103 104 103
18 20 22 23 25 28 31 35 37 41 45 46 49 54 60 65 70 78 87 90 94 97 99 101 105 106 108 108 108 108 108 107 107 105 105 107 99 98 99 98 96 95 93 89
19 22 25 27 27 28 32 35 37 40 42 46 49 51 57 62 66 72 77 81 85 88 92 96 98 99 99 98 96 96 95 98 100 97 94 95 92 90 87 85 84 80 80 76
19 21 25 28 28 29 31 33 38 39 41 44 45 51 54 58 63 66 69 73 77 81 84 87 89 91 91 91 92 92 92 91 88 88 84 82 83 79 78 76 73 72 69 66
19 20 23 26 30 33 35 34 37 40 39 40 45 46 50 54 57 59 62 63 66 69 72 76 79 81 82 84 84 82 79 77 78 78 79 74 72 71 70 71 67 61 59 60
19 20 23 25 27 32 34 34 35 35 37 43 43 45 48 50 51 54 54 56 58 59 62 66 67 67 65 66 68 71 74 75 71 67 68 66 63 66 65 59 56 55 57 57
20 20 22 25 26 29 28 32 35 35 36 38 39 43 44 45 47 45 45 46 47 48 50 53 56 59 62 62 62 62 61 62 63 62 59 60 60 59 53 52 53 54 52 48
17 18 21 23 26 27 25 28 30 34 35 34 36 39 40 43 42 42 43 42 43 43 45 46 48 50 51 53 55 56 54 53 53 54 56 55 51 48 49 48 47 47 44 42
17 19 18 21 22 25 25 28 30 31 32 33 33 36 38 41 41 39 41 44 45 45 44 44 46 45 44 46 46 46 46 46 50 49 48 45 46 43 43 41 41 39 38 39
19 21 20 20 21 22 23 25 28 31 31 32 35 37 39 42 44 43 43 43 43 42 42 41 41 42 43 41 39 41 41 41 43 46 46 44 40 39 38 37 36 36 38 40
22 21 21 21 21 20 22 24 28 29 30 31 35 40 40 40 42 42 40 40 40 41 39 37 33 33 34 35 35 36 35 40 44 45 42 38 38 36 36 37 36 36 39 41
25 25 23 24 25 25 26 26 26 30 31 32 35 39 43 45 44 43 40 39 39 36 36 34 35 33 32 32 33 33 36 39 39 40 38 36 34 34 35 36 37 37 40 42
27 26 28 26 29 30 28 27 28 30 32 34 35 37 39 41 42 40 39 40 39 39 36 34 33 31 31 32 31 34 34 32 32 33 32 33 33 33 34 36 38 41 43 45

GFSCGP_250_spd_072.txt.gz
Wind_Speed
65 69 74 82 88 95 105 112 119 127 124 122 121 123 119 111 107 102 98 95 94 91 87 85 84 84 83 83 82 82 80 78 76 75 74 73 74 74 75 75 75 76 77 79
61 67 75 79 86 94 101 108 114 120 122 121 121 120 122 114 108 107 102 98 96 92 89 86 84 85 85 85 85 83 82 80 79 78 77 77 77 77 77 78 79 80 81 81
61 66 72 78 84 88 96 104 111 114 120 120 120 121 118 115 111 108 104 99 96 93 90 90 88 86 85 84 84 83 83 82 81 81 81 81 81 80 81 80 81 82 80 77
60 64 68 75 81 85 93 100 107 113 113 120 120 115 114 114 113 112 110 103 98 96 93 90 91 89 87 86 84 84 85 84 84 83 83 83 84 84 84 84 83 83 82 83
60 59 63 68 76 82 90 97 105 111 114 113 112 112 109 109 111 110 111 108 102 96 92 93 92 91 91 90 88 86 86 86 85 85 85 84 83 82 80 79 81 84 87 88
52 58 61 64 69 78 85 91 98 105 107 110 109 107 108 107 106 113 113 112 108 102 99 96 95 94 93 93 91 89 88 87 86 86 87 86 85 85 85 85 84 85 88 91
47 55 58 60 62 68 78 85 90 97 99 102 110 104 102 106 106 111 114 112 110 107 105 101 99 98 97 95 93 91 90 89 89 90 89 89 88 88 87 88 90 90 90 94
40 46 53 56 57 61 66 77 83 87 93 101 106 93 99 103 103 107 111 111 110 109 109 107 104 102 100 97 95 93 91 91 91 91 90 91 91 92 91 92 94 95 94 95
28 33 39 48 53 55 57 57 68 77 84 92 93 94 105 102 101 104 107 110 111 111 110 108 109 107 104 101 99 97 94 92 92 92 92 93 94 94 95 96 96 96 98 99
31 32 36 42 49 51 53 57 56 59 69 77 81 89 98 113 113 108 108 112 114 114 113 111 109 108 107 106 103 101 99 98 97 96 96 96 97 97 97 97 98 100 100 102
27 32 37 36 41 54 57 58 59 58 56 60 67 72 81 93 105 115 117 111 112 114 116 114 111 110 110 109 107 105 104 103 102 100 99 98 99 99 99 100 101 103 105 108
23 27 29 33 36 39 43 46 46 52 59 60 60 64 72 78 85 99 105 111 111 109 112 113 114 114 113 112 110 108 106 105 105 105 104 103 102 103 103 104 105 107 109 111
21 24 26 29 32 33 33 36 39 43 46 51 56 64 69 72 76 82 95 101 103 106 104 104 107 109 112 113 112 110 108 108 108 107 107 106 106 106 107 108 110 112 114 114
20 23 26 28 29 30 33 35 37 38 41 47 50 59 65 68 71 74 79 91 97 98 104 104 103 103 105 108 111 110 110 110 110 109 108 108 108 109 109 111 111 113 111 111
19 24 26 28 29 31 31 33 35 37 39 39 47 52 58 61 64 67 72 78 86 90 93 99 106 107 105 103 104 105 106 106 106 106 106 108 109 110 111 110 107 104 102 98
18 21 25 28 29 31 33 36 38 39 38 39 41 46 53 56 59 63 66 70 76 83 86 88 91 94 99 102 102 103 104 105 105 106 107 107 108 104 97 93 94 94 96 97
17 20 24 27 29 32 32 36 36 38 38 40 39 47 48 52 55 60 62 66 71 76 80 84 86 87 88 91 92 94 94 93 93 91 91 92 91 87 86 89 91 91 90 86
17 18 21 24 26 31 37 36 38 39 39 39 43 44 46 50 53 55 58 61 64 68 72 76 79 81 83 84 85 86 86 88 88 89 86 84 87 89 88 86 86 83 81 77
18 18 18 22 26 29 31 32 36 39 39 40 42 42 45 48 49 50 54 58 60 62 65 68 70 73 76 78 79 80 81 83 84 84 84 83 83 83 81 77 78 74 72 69
18 19 19 19 22 28 28 30 32 35 39 42 42 43 45 45 47 49 52 52 54 56 58 61 62 64 65 67 68 70 71 71 75 77 76 74 72 75 71 69 68 64 62 58
20 20 20 19 20 22 26 29 32 33 36 37 40 44 44 45 44 47 48 48 50 49 51 53 54 55 56 56 56 58 59 62 63 63 65 64 62 64 63 61 59 54 52 52
22 21 21 21 19 19 22 27 30 31 32 32 35 38 39 43 46 47 47 47 46 43 45 45 45 45 44 42 42 43 45 47 50 53 54 56 56 54 52 50 48 49 51 49
23 23 22 21 19 19 18 22 25 29 32 32 32 35 36 36 41 42 42 45 42 39 39 37 37 37 38 38 41 42 43 44 44 46 47 48 47 47 46 47 48 47 46 45
25 23 23 22 22 20 20 20 22 24 29 32 31 31 32 34 36 38 40 41 40 37 37 39 41 41 40 40 40 42 44 44 42 41 40 41 44 46 46 43 42 42 43 40
24 25 24 25 25 24 23 19 21 23 24 29 31 31 32 34 35 38 43 42 41 40 39 37 37 39 39 38 37 35 35 36 34 37 37 43 45 44 41 40 39 38 39 40
25 23 26 25 27 26 25 24 24 24 25 26 30 31 30 31 36 39 41 42 41 39 39 38 39 38 35 35 36 35 35 33 34 35 38 40 40 39 38 35 33 34 36 39

GFSCGP_250_spd_075.txt.gz
Wind_Speed
64 62 63 68 72 77 82 89 97 107 110 112 115 115 115 115 115 112 106 102 96 93 90 86 85 86 86 85 83 82 80 79 77 77 77 76 76 74 74 74 73 72 73 73
62 62 64 68 73 78 82 87 96 106 111 110 115 116 116 117 115 110 108 104 101 95 92 89 86 87 89 88 86 84 83 81 79 78 79 79 79 78 77 76 76 76 76 77
58 61 61 63 69 74 79 85 94 104 111 115 116 116 116 113 115 112 106 105 101 96 91 90 89 88 88 90 89 87 85 84 82 81 81 81 81 80 79 79 80 80 79 79
48 51 54 58 64 70 77 85 91 101 109 115 115 117 116 118 116 115 109 108 106 102 99 95 94 92 90 89 88 89 88 87 86 85 84 84 84 83 83 83 83 81 81 82
45 51 53 55 61 68 76 81 87 95 105 112 114 119 120 120 114 111 108 110 109 107 104 101 97 95 93 92 91 90 87 85 86 86 85 84 85 86 86 85 86 85 85 85
42 48 49 53 56 65 74 79 83 91 98 105 112 117 119 119 116 115 110 108 110 109 108 106 101 98 97 97 95 94 91 88 87 85 84 84 84 84 84 85 86 87 87 88
35 43 50 53 55 61 69 73 78 85 92 99 108 113 120 121 118 118 114 110 106 109 108 109 107 104 102 99 97 95 93 92 91 90 88 88 87 86 86 86 86 87 89 91
30 38 42 46 49 54 60 70 75 80 86 97 104 102 106 115 119 114 112 111 106 103 107 110 108 107 106 103 101 98 95 93 92 92 91 90 89 89 90 90 90 91 90 90
18 30 37 43 50 53 53 59 68 75 82 89 95 100 105 109 112 114 112 107 106 104 107 109 112 112 109 107 104 102 100 98 97 95 94 92 91 91 91 90 91 92 92 93
18 21 22 30 41 46 48 56 59 64 72 78 85 91 95 104 106 104 106 108 109 109 108 107 107 109 112 111 109 107 104 102 100 99 97 96 95 94 93 93 93 93 93 93
23 23 24 27 30 43 46 52 52 57 61 69 76 83 93 106 106 105 106 103 103 104 103 103 104 105 107 111 112 110 108 107 105 103 102 101 100 98 97 97 97 97 97 98
19 24 30 33 37 41 43 45 46 51 54 59 65 72 85 91 97 100 108 111 108 101 99 100 98 99 104 109 112 112 110 108 107 106 106 105 104 103 102 102 103 103 103 103
19 23 28 33 37 39 40 44 47 52 55 56 58 63 74 81 86 89 96 100 98 101 102 100 97 95 98 99 101 106 110 110 109 107 106 105 104 105 107 106 106 106 107 107
20 23 25 29 34 37 38 41 42 42 43 50 56 65 68 73 76 81 85 89 89 90 91 95 99 99 96 97 98 100 103 104 105 104 105 105 107 106 107 107 107 107 108 107
21 22 23 26 29 32 36 39 39 40 47 46 50 51 58 66 71 74 78 82 82 82 84 86 92 96 101 101 101 101 103 104 105 105 107 107 107 105 105 107 107 105 106 104
21 23 23 25 27 30 31 34 37 39 41 41 46 48 54 58 63 68 71 75 77 78 79 81 83 85 88 95 100 100 100 100 101 102 100 97 99 100 98 100 102 99 99 101
20 22 23 25 25 26 31 35 35 36 38 41 40 48 46 50 53 59 63 64 69 73 75 75 77 79 79 84 90 94 94 93 91 92 95 99 102 102 100 97 97 97 90 83
22 21 21 25 22 25 36 32 35 37 37 38 40 41 43 46 48 52 56 59 63 65 69 71 71 72 75 77 81 84 86 86 85 84 84 85 84 85 83 80 78 73 76 84
22 22 23 23 23 30 32 30 32 38 41 40 43 42 42 43 45 48 50 54 57 59 62 64 66 68 70 71 74 76 77 78 79 78 76 73 73 75 74 71 76 82 81 75
21 22 24 25 24 26 28 29 31 36 38 37 39 41 43 44 46 43 44 48 52 54 57 60 62 63 65 66 69 71 73 75 76 76 76 77 78 77 77 79 80 78 82 86
24 22 23 23 25 28 25 26 30 32 36 36 38 40 42 44 43 42 44 45 46 48 51 54 57 59 60 62 63 65 67 69 69 71 72 72 70 68 68 66 64 66 68 66
26 24 23 23 24 23 26 25 26 29 33 34 35 39 41 41 43 45 44 44 45 45 46 47 49 51 53 54 56 58 59 60 59 59 61 57 54 52 52 55 56 57 57 55
28 24 23 25 24 22 24 24 24 25 29 31 34 35 38 39 41 41 43 43 44 45 45 45 45 44 46 47 48 48 49 48 45 43 41 42 44 47 47 48 48 50 50 49
26 28 26 26 25 23 23 24 24 23 26 28 30 33 34 35 37 41 42 44 45 45 43 43 42 39 39 39 39 37 36 35 35 37 40 40 39 41 42 44 45 46 46 48
27 29 28 28 26 25 24 23 24 23 23 25 27 29 32 32 32 35 39 38 40 42 43 41 38 36 35 34 32 33 36 36 36 36 38 39 37 37 39 42 45 46 42 39
32 29 29 29 28 28 24 24 24 24 23 21 23 26 30 32 32 33 35 37 37 39 40 37 35 35 34 35 36 36 36 35 34 34 33 34 34 36 37 41 43 43 40 39

GFSCGP_250_spd_078.txt.gz
Wind_Speed
63 64 63 67 72 77 82 85 90 91 90 88 90 94 98 99 99 103 105 108 103 99 97 92 89 87 79 76 77 73 76 74 70 69 69 68 68 67 65 65 67 67 70 72
57 63 65 67 68 73 78 84 89 91 89 90 92 92 98 97 99 102 102 110 108 103 97 94 90 88 86 85 82 82 80 82 79 78 75 73 72 73 75 73 72 73 74 75
48 57 59 62 66 69 73 80 85 89 89 88 90 90 93 98 100 105 100 102 111 104 99 96 93 91 89 86 85 85 86 85 84 83 81 80 79 80 79 78 77 77 77 78
48 52 56 59 62 65 69 74 80 82 82 83 86 89 95 100 102 102 102 100 105 109 106 102 98 95 94 91 88 86 84 85 86 87 85 84 83 82 82 82 81 80 80 80
38 47 52 56 59 61 64 69 74 76 76 79 83 87 94 97 102 102 104 104 103 109 110 108 105 100 96 94 91 88 87 85 86 85 85 85 85 84 85 84 84 84 84 83
33 41 45 51 54 55 58 61 68 70 75 77 81 84 95 98 103 107 106 104 106 103 109 114 108 105 101 98 96 94 91 90 88 87 87 87 86 87 86 85 84 83 83 83
26 37 44 47 51 53 54 58 61 65 68 74 79 82 97 102 106 109 108 106 106 105 103 106 113 110 107 105 101 97 96 94 93 91 90 90 89 89 90 90 89 88 86 87
21 32 40 45 49 50 53 55 58 60 65 72 76 78 91 101 105 110 110 109 108 108 104 101 107 110 114 109 106 103 100 98 96 95 93 91 91 90 89 90 89 90 90 88
17 26 34 42 45 47 46 47 52 58 63 68 73 77 89 98 105 107 112 114 114 112 109 107 101 102 108 109 110 109 107 106 102 100 98 96 95 94 92 91 90 91 91 91
19 20 30 38 43 43 44 50 51 54 58 62 67 75 82 93 101 106 112 115 114 112 112 111 109 105 101 101 105 111 111 108 106 104 102 100 98 97 96 94 93 93 93 93
21 25 26 30 33 41 47 51 52 57 60 64 68 72 83 90 95 99 106 112 116 117 118 118 111 105 103 101 101 101 103 110 109 109 107 105 102 101 99 98 99 99 99 98
14 25 29 32 36 38 40 44 48 53 54 60 65 69 77 85 90 92 98 102 108 115 116 118 116 108 104 104 103 102 100 100 104 110 111 110 108 106 105 104 104 104 103 103
14 18 25 34 38 40 42 46 50 56 56 58 63 61 73 86 87 90 96 98 98 102 105 107 107 106 104 102 102 102 103 101 100 101 103 105 107 107 109 109 109 107 107 106
19 18 21 24 30 37 43 48 50 52 52 55 56 65 71 81 83 85 87 89 94 98 100 99 94 93 94 94 94 92 92 92 94 95 96 97 100 102 103 104 106 107 106 105
22 21 21 21 22 25 33 42 45 44 48 54 60 64 72 78 80 80 83 84 86 89 93 92 91 88 88 85 88 89 86 86 89 91 92 92 91 94 96 96 96 97 99 99
25 23 22 23 23 23 24 29 37 44 47 48 55 57 71 73 73 75 77 78 80 84 85 83 82 80 80 77 79 85 86 87 89 88 87 88 87 87 91 92 92 93 96 98
27 25 23 24 23 23 26 30 29 32 39 44 46 54 53 56 61 64 69 73 74 75 76 76 77 78 76 75 75 75 77 79 82 83 84 87 90 93 97 96 95 95 93 93
29 25 22 26 22 23 34 27 28 31 35 36 42 47 47 47 49 51 54 58 62 67 70 71 72 73 75 74 73 72 72 73 75 76 78 80 82 87 89 89 88 87 86 82
28 26 25 25 24 29 32 30 27 30 33 32 37 38 39 40 43 47 49 48 48 51 56 61 64 68 70 70 69 70 69 69 69 71 73 75 76 77 78 79 80 79 77 73
28 26 24 28 26 29 33 28 27 30 34 32 36 36 37 40 42 42 37 41 46 48 49 52 56 60 63 66 66 67 67 66 65 66 67 68 67 68 68 67 65 65 64 64
25 27 26 26 26 31 27 25 28 29 33 33 35 36 39 40 38 35 40 40 41 43 46 47 51 53 55 58 60 62 63 63 63 62 62 62 62 62 62 63 66 67 68 73
22 26 30 26 28 30 23 28 27 28 31 32 34 36 36 38 38 37 39 38 37 39 40 42 43 46 49 51 53 56 56 57 56 57 58 60 61 64 65 65 65 68 72 72
25 26 26 26 31 28 26 26 25 26 28 29 31 34 34 36 37 41 39 39 38 39 40 41 42 41 41 41 44 46 48 51 53 55 56 58 59 60 58 57 53 50 49 48
23 26 28 27 26 27 28 27 25 26 26 27 29 32 33 35 35 36 39 38 39 38 38 39 40 39 41 42 41 41 42 43 45 46 45 45 45 42 41 40 40 44 44 45
27 29 33 32 27 25 28 27 27 27 26 25 26 27 28 31 31 33 35 36 37 38 39 39 40 41 39 38 37 37 37 37 36 36 35 34 35 35 37 39 40 41 41 42
29 33 32 27 25 30 28 29 28 26 26 26 25 26 26 27 30 31 33 35 37 37 38 38 38 39 40 39 36 35 35 35 33 32 32 33 35 35 37 38 37 39 40 40

GFSCGP_250_spd_081.txt.gz
Wind_Speed
52 57 61 65 66 70 77 80 82 84 84 83 81 83 81 83 89 90 89 89 92 101 100 96 91 88 89 70 59 61 70 71 72 74 71 70 70 69 68 68 67 67 65 64
47 56 62 65 66 71 74 80 84 85 84 83 81 80 83 82 86 88 90 91 91 100 104 102 96 92 87 90 81 75 71 71 70 72 73 73 72 69 71 70 68 67 67 67
44 51 57 61 63 67 72 76 84 86 83 83 81 77 78 81 82 85 88 89 93 95 102 105 102 97 92 89 90 89 83 77 75 73 74 72 72 72 70 68 67 68 69 69
37 45 51 53 59 65 70 73 76 81 82 81 82 77 78 80 83 81 85 88 93 97 97 104 106 103 98 94 91 90 88 88 85 76 76 79 77 76 79 79 77 76 76 75
29 37 46 51 57 61 64 67 69 73 78 81 82 80 81 81 81 81 87 87 90 95 97 98 105 107 105 100 97 96 93 92 90 88 84 80 76 77 79 80 81 80 79 78
26 33 41 49 51 55 59 61 63 67 71 77 83 82 84 82 84 84 87 87 89 93 95 100 101 107 109 107 102 100 99 97 95 92 89 87 86 84 83 82 82 82 82 82
25 30 37 41 46 50 54 57 58 61 64 69 77 77 79 83 84 88 90 89 92 93 95 97 98 103 109 111 108 104 101 100 97 95 93 91 88 87 86 85 84 83 82 83
24 30 37 42 46 51 55 56 56 56 58 65 70 69 73 77 80 88 90 91 94 93 97 96 99 102 107 109 113 109 104 102 100 98 96 94 92 90 88 88 88 88 88 87
25 29 34 41 46 48 52 52 54 55 58 61 63 65 71 73 79 85 90 91 96 98 100 98 98 99 102 107 107 114 113 108 105 102 99 97 96 94 92 91 91 91 90 90
23 30 35 40 42 45 47 51 51 52 53 56 59 63 69 72 77 82 85 89 93 96 99 100 101 99 100 100 103 108 112 115 110 107 104 101 98 97 96 95 95 93 91 91
19 27 34 39 43 49 50 51 53 56 55 54 57 61 67 71 75 80 81 84 88 94 97 101 102 104 100 100 98 98 104 113 113 110 109 106 104 103 101 101 101 99 97 96
16 23 32 35 42 46 49 51 51 51 51 54 57 61 67 68 71 76 79 81 86 90 97 100 103 106 105 100 98 95 93 97 105 110 110 111 112 110 109 109 108 106 104 105
17 21 27 35 39 43 48 53 55 55 56 55 59 57 63 68 74 77 79 81 86 90 93 97 104 103 102 99 97 96 92 92 92 95 99 103 105 105 106 107 105 106 103 103
23 21 24 29 34 42 47 53 55 58 55 56 52 59 62 72 75 77 75 77 82 86 89 90 93 96 100 98 96 95 96 97 96 94 95 96 95 96 95 96 98 99 98 99
25 24 22 25 30 34 42 49 50 53 57 59 60 63 70 75 77 74 74 78 79 82 85 85 87 88 89 90 90 91 93 92 92 96 94 94 94 95 94 92 90 90 91 91
25 27 21 23 27 31 33 36 43 50 54 54 63 63 74 73 73 73 73 74 77 78 80 80 81 84 84 84 83 85 84 80 81 79 80 83 83 85 86 85 85 84 84 84
22 28 24 22 24 25 29 36 33 34 41 45 47 60 59 65 69 70 71 71 72 74 75 78 80 80 81 81 80 79 77 75 73 73 73 75 81 83 79 80 79 80 82 84
24 26 22 23 20 23 32 28 28 31 33 33 40 49 49 52 54 55 60 65 65 66 70 73 75 77 77 75 74 73 72 71 71 70 69 70 72 73 74 75 76 78 78 80
22 23 23 23 22 28 30 26 26 28 30 29 34 36 37 39 40 48 47 46 45 45 52 58 61 66 70 73 72 70 66 64 63 62 64 65 65 65 65 66 67 69 72 73
22 24 22 25 24 26 31 23 21 24 28 29 32 31 32 32 36 36 32 34 36 39 43 45 46 50 55 61 63 66 65 63 61 60 58 58 60 60 61 62 64 66 66 66
20 21 21 24 24 28 30 21 20 24 28 30 32 33 33 33 35 31 28 31 34 35 34 35 37 41 43 47 52 57 60 62 61 60 60 59 59 60 60 60 61 60 58 56
20 21 26 26 25 29 19 22 24 25 28 30 32 33 33 34 34 33 32 33 32 31 31 33 33 34 36 38 42 45 50 53 55 59 60 60 60 59 59 57 56 54 54 54
18 24 24 25 29 27 23 26 25 26 28 29 30 32 33 33 34 34 35 34 33 33 32 32 34 34 33 32 34 36 39 42 46 48 50 52 53 53 53 52 51 52 54 56
19 24 26 28 26 27 24 23 26 27 29 29 29 30 31 32 32 34 35 34 35 35 35 34 34 35 35 35 34 34 35 36 37 39 42 44 46 48 49 49 49 50 54 57
20 28 30 30 28 26 26 25 30 29 29 28 28 28 28 29 29 31 32 33 34 33 34 36 35 35 35 36 36 36 35 34 37 37 38 40 42 42 42 43 43 43 42 40
22 27 30 29 21 28 29 29 29 27 27 27 27 27 26 26 26 27 28 30 32 32 32 33 34 35 37 37 37 38 38 36 33 34 35 37 37 37 35 34 35 36 37 39

GFSCGP_250_spd_084.txt.gz
Wind_Speed
58 62 64 68 69 67 68 75 82 84 85 85 85 88 87 88 89 88 91 95 94 91 93 96 96 95 91 87 82 75 70 65 64 68 68 67 68 69 69 68 66 66 66 66
48 55 60 63 64 66 68 73 79 85 87 86 84 85 86 82 84 85 86 90 93 94 91 94 97 96 95 91 87 86 78 73 66 64 62 68 71 69 70 70 68 69 69 69
42 50 53 55 57 60 65 69 77 83 84 82 80 81 79 79 82 82 84 88 94 94 93 93 95 97 96 96 94 92 88 81 73 62 58 60 68 74 71 70 72 73 71 71
37 43 51 55 55 59 63 68 72 75 80 82 81 80 78 79 78 79 84 85 92 94 95 93 94 95 97 98 99 95 90 87 80 75 75 70 71 74 74 74 74 74 71 71
28 37 45 52 58 59 61 65 68 71 75 78 79 79 80 81 80 78 84 85 89 95 95 95 93 96 98 98 99 100 98 95 91 89 83 75 71 71 72 73 73 74 73 73
27 32 40 48 51 55 58 60 65 69 71 75 78 77 80 82 84 80 84 85 86 91 93 96 96 94 94 96 98 102 104 102 99 95 94 94 88 83 81 79 75 73 72 73
24 33 36 40 46 51 53 57 61 63 66 68 76 80 81 86 82 81 82 84 86 85 91 90 92 94 94 95 99 102 105 107 106 104 101 98 97 95 94 92 89 88 88 86
20 28 35 39 44 50 56 58 60 61 62 66 73 76 86 86 82 82 83 80 83 86 89 89 91 93 95 96 98 99 101 105 110 110 107 104 102 100 98 98 96 95 93 92
19 23 31 39 45 49 53 53 55 59 62 66 69 73 85 83 81 82 83 83 81 83 87 88 91 93 94 95 97 100 103 104 105 109 112 110 107 104 101 100 98 98 97 96
22 23 28 36 41 47 49 54 55 58 61 63 66 71 79 78 78 81 84 85 85 86 86 87 92 95 95 96 99 100 103 105 106 106 109 110 112 110 107 104 102 101 100 99
24 26 28 33 41 49 52 54 55 59 60 62 64 65 72 74 74 77 79 82 86 89 90 91 92 94 96 99 100 100 101 101 103 106 108 109 111 111 111 109 106 102 101 101
19 27 32 34 37 43 49 54 56 58 59 61 63 62 67 70 70 71 74 77 79 83 88 92 93 95 97 100 101 100 100 102 103 104 105 107 108 110 111 112 112 107 105 103
20 23 33 34 36 41 46 54 58 61 60 60 61 60 66 70 71 73 71 72 74 77 81 87 92 94 95 97 99 99 98 99 100 102 103 104 105 105 108 107 107 110 113 112
21 21 32 37 37 41 43 49 54 57 59 63 60 65 70 72 75 74 71 71 73 75 79 84 88 90 92 95 96 96 95 94 94 94 97 99 100 100 100 100 101 103 104 105
20 20 28 36 38 38 42 44 45 53 60 58 66 67 72 75 75 71 69 69 71 73 77 80 84 87 89 91 93 94 93 92 91 90 89 88 88 89 93 92 91 95 97 98
21 19 24 34 39 39 39 40 42 48 60 62 67 66 76 74 73 72 71 69 69 72 76 79 80 83 84 86 88 87 87 87 86 84 83 82 82 84 82 84 88 87 89 90
23 20 20 30 37 37 38 44 43 43 47 53 56 70 66 70 69 69 68 68 71 73 72 73 75 77 78 79 79 82 82 82 82 83 83 82 80 81 82 83 83 85 84 84
25 21 18 26 34 36 44 35 36 39 45 44 52 61 58 58 59 63 64 65 67 67 67 69 70 73 74 74 75 76 78 78 77 78 76 74 74 76 78 78 78 78 78 79
24 17 18 22 30 39 39 32 33 38 38 40 45 49 51 53 54 59 54 54 55 56 57 59 63 68 69 70 71 72 72 72 72 71 71 69 70 72 73 72 71 70 71 70
26 17 14 20 27 35 36 31 31 32 32 37 39 39 40 40 43 43 45 47 48 47 48 48 50 53 55 58 62 65 68 70 70 68 66 65 64 63 62 63 63 63 64 64
27 19 15 19 26 31 33 27 25 27 27 31 34 37 38 38 38 36 36 39 39 39 39 40 41 40 42 45 46 50 54 57 60 62 62 62 61 61 57 56 57 57 56 58
28 23 17 18 23 31 26 22 23 27 30 29 30 30 31 32 35 36 37 38 37 37 36 34 34 35 36 35 37 38 41 44 46 48 50 52 53 58 59 57 57 57 57 57
27 24 20 19 25 29 24 22 26 27 27 27 26 27 27 28 29 30 33 35 37 38 38 37 36 35 35 35 34 33 34 35 37 40 42 43 46 49 52 55 56 56 55 56
28 25 22 25 22 27 26 25 28 29 30 28 27 27 25 26 27 29 29 32 36 37 38 39 39 38 37 37 37 37 35 32 31 32 33 36 39 41 44 47 50 52 53 53
24 24 24 24 23 26 26 27 29 28 28 27 27 26 25 24 25 27 28 30 33 37 39 38 38 39 40 38 38 39 38 37 35 33 34 34 36 38 40 42 44 46 48 49
26 21 21 19 21 28 29 29 29 29 30 29 28 28 27 26 25 26 26 28 30 32 35 37 38 38 38 38 37 39 39 38 38 38 39 38 37 39 40 41 42 42 43 44

GFSCGP_250_spd_087.txt.gz
Wind_Speed
53 59 65 70 75 79 82 87 88 90 89 90 93 95 94 93 98 96 97 97 96 96 97 96 96 97 97 95 91 89 84 81 74 72 71 68 66 63 61 58 58 62 65 65
45 56 60 67 68 71 74 79 82 87 88 91 94 94 94 92 93 93 94 94 95 97 98 96 97 96 97 98 95 93 90 85 83 78 74 66 68 68 66 67 66 65 63 66
33 48 54 59 64 68 71 72 78 83 89 89 90 90 91 89 91 92 92 95 94 97 98 98 98 97 95 96 98 97 95 91 87 83 75 70 65 65 70 69 70 70 69 68
31 40 47 52 59 63 66 68 71 77 82 88 89 88 91 89 86 89 90 92 91 94 98 98 97 97 96 94 94 97 97 94 87 85 80 80 75 71 68 68 68 71 70 71
24 37 46 52 55 60 63 65 69 74 77 81 86 88 86 86 84 85 87 91 89 88 95 95 94 99 99 97 97 95 95 95 94 91 89 90 88 82 79 76 77 75 73 73
17 30 39 49 55 56 59 62 65 69 72 71 79 82 85 82 83 85 87 88 87 84 89 93 93 97 99 98 97 96 95 95 97 97 96 92 93 92 91 86 82 77 77 75
11 22 36 46 52 56 60 61 65 67 67 67 73 74 78 82 86 87 85 85 86 84 85 89 92 94 97 97 99 98 97 95 96 99 101 100 99 97 93 90 87 80 79 79
15 18 27 40 48 54 59 62 65 67 66 71 71 71 76 86 90 89 85 80 81 81 82 86 89 91 95 96 98 97 97 96 95 98 101 103 103 103 101 99 97 97 95 92
21 18 23 29 42 52 58 60 64 63 64 65 68 73 78 86 88 86 84 82 81 81 80 82 86 87 91 93 96 97 97 98 98 98 100 102 104 106 105 104 103 103 102 102
25 21 24 27 34 42 53 58 60 61 62 65 67 70 76 82 85 84 84 85 82 81 82 82 83 85 88 91 94 96 97 98 98 98 98 102 104 105 107 110 111 109 107 106
29 22 22 28 30 40 47 55 59 62 63 64 67 71 72 78 81 81 84 84 82 81 82 83 82 85 88 92 91 93 96 98 99 100 101 102 103 104 105 108 110 113 113 111
35 24 22 28 34 36 41 49 56 59 62 65 68 68 72 76 79 78 80 80 81 81 81 84 84 84 89 92 91 92 93 95 97 99 101 103 104 104 105 105 106 107 110 112
37 27 24 26 34 35 39 47 54 60 63 64 67 69 70 74 78 77 76 76 75 77 80 82 86 86 88 88 90 93 95 96 97 98 100 101 102 104 105 105 106 108 110 110
36 26 25 26 31 39 41 45 50 55 56 66 65 70 71 77 78 76 73 69 70 73 75 77 82 87 89 91 92 93 94 97 97 99 101 102 103 103 104 104 105 107 108 108
36 24 24 25 30 37 42 43 45 49 62 61 69 70 75 78 75 73 69 67 69 71 74 76 79 82 86 90 93 96 97 100 102 102 105 104 105 106 105 104 104 104 104 104
36 25 21 24 29 33 39 40 39 46 55 61 68 70 74 74 72 72 71 70 68 69 71 74 75 78 82 85 89 93 95 97 100 103 104 103 103 103 101 99 98 95 95 95
36 28 20 21 26 32 34 41 41 44 50 54 55 69 65 69 68 70 70 70 70 70 69 71 74 76 79 82 85 88 90 93 95 96 97 97 95 95 94 92 91 89 88 87
36 29 21 20 23 25 38 46 44 43 46 48 53 63 58 59 63 67 68 67 66 67 68 69 70 73 76 77 81 83 86 87 89 91 91 91 91 91 90 88 87 86 84 83
38 29 23 19 21 26 42 45 38 40 42 42 48 52 50 49 53 56 56 59 62 61 61 65 67 69 70 73 74 76 77 78 78 79 80 82 83 83 82 80 81 81 80 80
41 29 24 19 21 31 37 38 37 39 40 41 42 44 46 47 50 46 49 53 55 54 54 58 60 59 59 62 65 69 70 72 73 73 74 74 75 75 75 75 74 74 73 73
45 33 25 22 20 28 33 32 34 37 39 39 41 43 44 45 45 44 44 46 48 50 51 53 54 54 55 55 57 58 60 61 63 64 66 67 68 68 68 68 67 68 68 67
51 38 29 22 20 25 30 24 30 33 37 37 39 40 42 44 45 44 44 44 44 43 44 46 48 48 48 50 52 53 52 52 53 53 54 56 56 56 56 56 57 60 58 59
53 42 32 26 20 22 25 25 27 31 34 35 37 38 39 39 39 38 38 39 40 41 41 42 44 44 44 45 46 45 44 44 43 43 44 45 46 47 46 45 45 47 48 50
52 45 32 29 23 19 22 25 25 30 33 34 33 34 34 33 33 33 32 33 34 35 37 39 42 44 45 45 45 45 45 44 44 42 40 40 39 40 41 40 40 41 42 45
53 47 33 25 26 22 18 26 29 31 32 32 32 32 32 32 32 31 31 31 32 33 34 36 38 41 43 45 45 46 47 46 44 45 43 40 37 36 35 36 38 41 43 44
56 51 36 22 27 29 23 24 31 33 34 33 31 32 32 32 31 31 31 32 32 31 32 33 34 35 38 40 42 44 45 45 46 45 46 44 43 40 40 40 39 40 41 43

GFSCGP_250_spd_090.txt.gz
Wind_Speed
22 38 56 64 71 78 78 80 84 90 94 94 95 95 97 95 96 97 99 101 102 107 113 110 109 108 104 102 100 98 92 90 85 81 76 71 67 67 60 64 63 65 64 58
7 31 45 56 63 70 72 72 74 79 86 92 92 92 92 92 93 94 97 101 102 102 104 105 109 108 105 103 101 99 98 94 89 85 81 70 64 64 63 59 56 61 64 64
14 29 41 51 58 66 72 73 77 76 80 84 86 90 89 91 91 94 96 97 99 102 102 99 101 101 100 100 96 95 95 93 93 89 84 73 68 64 63 59 61 63 65 68
11 23 36 47 56 62 69 73 73 75 77 82 84 84 90 94 92 93 95 95 97 99 103 100 99 99 97 99 99 97 94 91 90 92 90 82 76 76 71 69 62 56 60 69
9 18 31 43 52 59 64 66 71 74 77 75 74 74 83 89 91 90 91 91 93 95 100 99 99 100 99 96 98 99 95 92 93 81 90 92 88 84 82 81 78 76 70 72
12 16 26 37 48 53 56 64 69 72 75 72 75 76 84 84 90 89 89 90 91 92 94 97 92 96 101 99 97 97 98 95 93 97 96 92 94 92 90 87 86 84 86 85
17 15 23 33 43 50 59 64 68 71 69 69 74 73 78 82 87 87 87 88 89 90 89 94 92 90 96 98 97 98 98 99 99 96 94 95 96 97 98 96 95 93 89 89
23 18 22 30 39 50 57 62 64 67 68 71 72 70 76 82 86 89 91 89 88 89 89 88 91 89 90 94 95 96 98 100 100 98 96 96 96 96 99 101 101 101 101 98
35 24 20 28 35 43 52 57 64 64 66 68 68 71 76 80 83 87 89 89 87 87 88 88 90 87 85 91 93 94 96 99 99 97 97 98 97 97 98 102 103 104 104 103
43 32 20 24 34 43 46 52 57 62 64 68 70 73 75 80 84 84 85 87 87 87 88 88 88 84 83 86 88 90 91 95 98 98 97 98 99 99 100 101 103 105 106 106
49 38 25 22 30 44 47 50 51 58 64 66 70 73 74 75 78 81 83 84 85 88 88 89 88 81 80 82 86 87 88 91 96 98 97 98 100 100 100 101 102 102 105 106
57 44 31 21 28 35 44 47 50 52 57 63 69 69 71 73 76 78 79 81 83 85 87 88 85 81 79 80 83 85 86 91 95 96 97 98 100 100 100 101 101 103 105 105
62 49 35 23 23 29 42 47 48 51 55 57 64 69 71 77 77 77 78 79 78 80 82 83 82 81 81 79 80 82 85 87 90 92 95 97 98 99 100 101 103 105 104 104
65 55 40 25 24 26 36 48 49 50 50 56 58 68 70 76 77 76 75 76 73 75 78 79 80 80 80 82 82 84 86 88 90 91 92 92 95 98 100 101 102 103 104 105
63 53 42 28 23 24 30 39 48 47 50 48 57 61 68 74 75 74 73 74 70 73 75 78 77 77 80 83 85 86 87 89 91 91 92 93 95 98 99 101 101 101 102 103
59 52 43 30 22 23 26 31 38 46 47 48 54 56 66 69 70 71 71 70 69 71 72 74 73 75 76 78 80 83 88 91 92 93 93 94 94 97 99 101 103 105 105 103
60 51 45 32 25 21 23 28 32 42 47 48 48 58 57 61 63 66 67 68 70 71 71 70 69 72 73 74 74 76 79 84 88 92 95 96 97 98 100 100 101 100 102 102
62 48 42 33 27 22 23 27 33 37 43 44 47 53 52 52 56 62 64 62 64 67 68 67 67 69 70 71 73 74 76 79 81 84 87 89 92 95 97 98 99 101 101 102
62 51 41 33 28 24 23 28 32 34 42 45 46 48 45 45 51 55 55 60 63 65 64 63 64 66 68 70 72 74 75 76 76 78 80 82 84 87 90 90 92 93 94 94
66 56 47 36 28 25 24 27 27 30 38 41 43 43 42 41 45 48 50 53 56 57 58 58 60 58 62 66 69 70 71 71 72 74 76 78 80 84 85 85 85 86 86 86
67 59 52 43 31 24 26 24 24 26 35 37 38 39 39 40 41 43 46 45 47 50 50 52 54 56 58 61 61 61 64 64 64 68 69 71 74 74 74 75 76 78 78 79
71 60 48 41 36 27 24 20 19 24 32 35 37 37 36 37 38 39 41 42 42 44 45 47 50 53 54 55 55 57 57 59 62 63 64 64 64 64 64 64 64 63 64 64
81 64 57 47 37 30 23 22 18 23 31 35 37 37 36 35 36 36 37 38 39 39 40 42 43 44 46 48 51 53 54 55 55 56 56 56 56 56 55 55 54 53 53 52
84 73 61 54 42 31 25 20 22 26 35 36 37 39 37 36 35 36 36 36 38 39 41 41 42 43 44 45 46 47 48 49 49 50 51 50 50 49 48 47 47 45 45 45
90 78 66 53 43 33 26 24 24 26 33 35 37 38 37 36 35 34 34 36 37 37 38 39 40 41 42 43 45 46 47 49 50 50 50 51 50 49 48 48 45 42 40 41
92 80 65 57 46 34 26 24 22 27 31 38 38 38 36 35 34 34 36 36 36 36 36 37 37 38 39 41 43 45 46 47 49 51 51 51 51 52 51 50 48 46 44 41

GFSCGP_250_spd_093.txt.gz
Wind_Speed
8 29 44 53 61 69 77 80 85 91 97 98 99 101 99 99 96 99 100 99 100 99 102 102 102 101 97 94 90 90 87 79 80 85 84 80 78 72 68 64 63 65 65 65
16 15 34 48 55 62 64 67 72 75 90 92 95 95 94 94 90 95 99 98 99 101 100 101 102 104 104 100 97 93 92 90 89 87 85 83 82 80 75 70 70 68 50 46
2 22 30 42 51 61 67 66 69 74 78 89 88 89 88 87 87 90 95 96 99 99 101 100 101 103 106 106 104 100 97 96 95 94 92 90 85 82 75 72 71 70 63 52
13 7 25 38 48 59 67 65 62 66 73 76 74 80 82 81 83 79 87 93 93 97 96 100 101 102 105 107 107 107 102 99 97 98 97 90 88 89 80 81 83 79 73 67
25 13 17 31 46 55 61 63 63 63 65 66 68 69 75 77 72 79 84 90 92 94 96 97 101 103 101 104 106 107 107 105 102 103 103 99 98 96 92 84 83 84 81 74
27 20 16 25 37 49 57 65 69 63 61 59 63 63 70 74 80 81 82 87 91 94 94 96 97 98 101 101 101 104 108 108 103 100 86 88 101 99 95 90 89 85 86 86
38 24 17 21 33 43 53 61 67 67 58 56 68 64 70 79 81 82 81 84 90 93 94 95 94 96 97 98 102 104 103 103 103 101 100 97 90 93 95 94 90 85 88 93
47 33 22 19 29 42 50 58 62 66 63 66 70 62 71 79 74 75 78 82 90 94 96 95 93 93 95 98 99 101 103 103 102 100 99 99 99 93 93 97 98 94 94 92
55 42 25 23 23 37 49 53 58 63 67 69 69 68 73 76 74 72 75 80 87 91 93 95 93 92 90 92 96 97 98 97 98 99 101 101 102 99 97 96 96 96 98 102
59 52 34 24 20 31 41 52 55 62 65 67 71 72 74 75 75 71 70 77 82 86 92 94 93 93 89 89 91 93 94 94 93 95 98 100 100 99 99 100 97 98 99 102
65 56 41 31 21 25 36 45 53 60 62 65 69 73 74 75 74 75 73 78 78 81 86 89 90 90 90 88 87 89 91 90 89 91 94 95 96 97 98 98 101 101 101 101
71 56 44 36 27 20 25 37 47 54 57 62 68 71 74 75 77 77 76 75 76 81 82 85 86 86 87 89 89 87 86 86 87 87 88 91 94 95 98 99 99 102 103 103
77 67 50 38 31 21 21 30 40 51 57 58 62 68 72 75 75 77 78 77 75 77 78 79 80 82 86 89 91 87 85 85 86 86 87 88 91 92 94 96 97 99 101 102
79 71 54 40 32 21 21 25 34 44 53 57 59 67 67 71 75 76 78 76 75 74 74 76 78 80 84 88 90 86 85 84 84 84 86 86 88 90 92 94 96 98 100 101
76 69 54 43 33 21 20 23 26 36 48 52 61 62 64 67 72 75 76 73 73 73 74 75 77 79 82 84 85 83 82 82 83 84 85 85 86 87 90 92 94 95 97 98
73 67 56 43 36 24 17 19 22 27 36 46 56 57 64 65 66 69 72 71 70 70 73 75 78 78 80 81 80 78 78 79 80 83 84 85 85 86 88 89 91 93 93 94
74 69 58 45 37 28 20 18 20 26 29 39 49 61 60 58 60 62 63 64 67 70 73 73 73 75 76 77 77 74 73 74 76 78 81 84 86 88 89 91 93 94 95 96
74 67 56 46 37 33 25 21 20 24 28 32 42 55 53 52 53 55 56 57 60 65 69 72 71 72 72 71 73 72 72 71 71 72 74 78 81 85 88 90 92 94 95 96
79 69 60 52 44 38 31 21 21 22 25 30 39 47 48 48 48 51 50 52 53 54 59 63 65 67 67 68 69 67 67 68 68 69 68 71 74 76 77 80 84 86 88 90
82 77 70 58 48 42 38 27 19 19 20 26 34 41 44 46 45 44 45 45 47 48 50 52 54 57 57 59 63 64 65 66 68 66 67 70 70 71 73 76 78 81 84 85
83 82 75 69 61 48 39 31 21 20 20 23 28 36 42 45 44 43 43 43 45 46 47 49 50 49 51 55 57 60 62 64 64 65 67 67 68 70 72 74 75 77 78 80
84 82 78 73 62 53 44 35 27 25 23 24 26 32 38 42 44 43 41 40 41 42 44 46 46 47 49 54 55 56 59 61 62 63 65 66 67 69 70 71 72 72 73 72
88 83 80 72 62 55 49 39 33 27 26 27 29 30 36 39 41 40 40 41 40 40 42 44 44 47 49 51 53 55 56 58 59 61 62 63 64 65 65 66 66 65 64 63
82 86 90 79 71 61 51 40 32 29 27 26 29 29 35 39 38 37 36 37 38 38 39 40 40 41 43 43 44 44 46 47 50 54 56 58 59 58 57 56 54 55 55 54
75 87 86 83 76 64 55 44 34 29 28 25 27 30 35 38 36 35 35 35 36 36 37 37 37 37 38 39 40 41 43 44 45 47 48 50 51 51 51 51 52 53 52 52
79 83 83 81 77 65 57 45 37 26 26 26 25 28 33 38 38 36 36 36 36 37 37 37 36 36 38 39 40 41 42 43 44 45 47 48 50 52 53 53 53 53 54 54

GFSCGP_250_spd_096.txt.gz
Wind_Speed
17 38 40 43 51 62 67 70 83 90 96 102 100 100 99 100 104 108 106 104 101 98 98 101 105 100 99 102 99 98 96 94 89 84 81 82 80 78 76 73 72 70 67 65
4 28 41 48 51 56 57 62 73 84 87 93 96 98 99 98 99 103 108 106 102 99 98 98 98 99 101 96 91 100 101 94 93 88 88 86 82 80 78 76 71 70 67 67
8 11 31 44 50 57 63 61 65 76 86 84 89 94 91 94 95 97 100 104 103 101 99 98 97 96 98 96 89 95 101 103 95 92 83 85 77 77 78 77 79 76 73 69
18 7 18 38 48 54 60 63 64 67 71 78 85 90 90 90 92 93 93 102 105 105 103 101 98 96 97 98 101 99 97 95 98 100 95 90 86 77 80 80 78 78 79 74
36 13 10 23 39 47 54 60 64 68 70 71 76 82 87 86 86 89 89 94 99 102 102 101 101 100 99 100 100 100 100 99 95 93 98 94 88 86 85 93 88 88 87 86
46 29 10 14 29 43 54 58 61 62 67 65 68 72 79 84 85 86 86 88 91 95 97 97 99 101 100 99 99 101 96 96 97 99 98 95 95 91 90 89 88 93 96 95
52 37 21 14 21 33 47 55 60 62 64 58 64 66 70 76 81 82 84 87 86 88 91 93 97 98 101 102 102 102 103 102 95 91 88 90 84 92 105 100 100 97 95 94
58 47 30 16 18 27 40 49 54 59 60 56 64 60 66 71 74 78 83 84 84 87 89 89 90 94 99 102 104 104 104 104 102 101 98 97 100 97 87 80 84 95 102 103
60 58 42 22 17 23 34 46 55 60 61 58 60 58 70 76 70 72 76 79 82 83 82 85 88 93 98 99 101 104 105 105 104 102 101 101 101 103 104 104 107 107 106 103
62 57 48 32 20 19 27 41 52 57 61 62 58 59 63 70 71 69 72 74 76 80 83 85 88 91 96 98 100 101 101 101 100 100 100 101 102 102 104 104 103 105 103 103
64 58 51 39 26 19 19 30 44 56 60 64 64 60 65 67 70 72 75 77 80 81 84 84 84 86 91 95 97 98 99 98 98 98 98 99 100 101 100 100 102 103 103 105
69 63 57 45 32 25 18 22 30 44 56 62 64 66 69 70 71 73 74 74 77 79 80 81 84 85 88 90 93 95 97 97 97 97 96 95 95 95 96 99 99 99 101 103
74 72 65 55 37 28 21 19 26 37 52 58 62 66 70 72 72 72 71 73 73 75 77 78 80 82 83 85 88 91 93 93 93 94 95 94 92 91 91 92 94 95 98 96
77 72 69 59 45 29 23 18 20 28 40 52 59 69 72 72 71 72 71 70 70 72 73 73 75 78 79 81 82 86 90 91 91 92 92 92 90 89 88 88 89 91 94 92
76 75 70 60 46 33 24 19 18 21 30 40 56 64 68 71 74 74 72 71 70 70 71 71 72 73 75 78 79 81 84 86 87 88 89 89 87 87 87 86 86 88 90 91
71 74 67 55 44 35 25 19 18 19 24 33 45 54 64 67 71 73 74 74 73 72 70 71 73 75 75 75 76 78 79 80 81 82 82 82 83 83 85 85 85 86 88 89
68 73 66 53 47 38 28 18 14 17 20 29 35 52 59 63 64 69 72 71 72 72 72 72 74 73 72 73 73 75 76 77 79 80 77 77 78 79 80 81 83 85 85 87
68 73 67 57 56 43 34 26 17 15 18 22 32 44 48 53 57 59 62 66 69 69 68 70 72 72 72 72 73 73 74 76 77 78 76 74 74 74 75 76 78 80 83 86
67 72 76 69 61 51 41 33 26 19 15 20 29 37 41 47 49 55 59 60 61 63 62 64 66 67 69 71 72 72 73 74 74 74 73 71 70 70 71 71 71 74 78 81
68 73 79 76 69 60 52 40 33 25 19 20 26 30 34 42 46 50 53 53 55 56 56 58 59 61 62 64 65 66 68 69 70 70 68 66 66 68 68 68 69 71 73 74
70 73 77 80 75 67 59 49 39 31 25 24 26 30 32 36 42 45 48 51 50 50 50 50 50 53 55 56 58 59 59 61 62 62 63 64 65 66 67 69 70 71 72 73
70 73 77 80 77 75 67 59 48 38 29 27 26 28 31 35 40 45 47 49 49 48 46 45 46 48 49 51 53 52 54 57 60 62 64 65 66 67 68 69 70 71 72 73
71 76 76 76 79 78 74 69 58 46 37 30 27 27 28 30 37 44 46 48 49 48 47 47 48 49 50 52 53 54 55 58 59 61 62 63 64 64 64 66 67 68 69 69
74 78 81 87 87 85 80 74 68 53 40 34 28 27 29 28 33 41 45 46 47 45 44 43 45 47 48 49 51 53 53 55 56 56 56 56 57 58 60 61 62 64 64 63
74 79 82 90 90 85 83 80 76 58 44 37 32 27 28 29 29 36 42 43 44 44 43 43 43 45 45 46 47 48 49 49 49 50 51 50 50 51 51 52 53 53 54 53
73 77 83 85 88 87 82 78 78 61 49 39 32 30 27 30 30 33 39 43 43 41 41 41 40 40 42 43 43 43 43 45 46 46 46 46 47 47 48 48 49 49 49 49

GFSCGP_250_spd_099.txt.gz
Wind_Speed
10 20 23 27 31 38 48 55 70 76 77 86 91 97 100 102 106 106 108 107 103 105 104 99 98 101 89 85 94 96 98 101 96 87 90 91 91 85 80 80 79 73 73 69
18 13 23 27 34 37 40 48 62 71 70 76 88 90 95 102 102 107 107 107 106 103 107 102 103 96 99 99 93 96 98 94 94 96 89 81 83 84 84 80 78 77 74 71
22 13 17 26 34 40 44 49 58 65 70 74 82 88 98 101 100 104 107 108 107 106 104 107 110 109 101 103 107 106 108 107 103 103 101 99 96 92 87 87 87 88 84 79
38 22 15 19 33 43 50 55 57 62 66 70 77 88 90 95 97 98 101 105 107 106 105 103 103 109 116 113 107 108 108 100 99 100 104 100 94 96 90 95 84 78 80 78
42 33 21 19 24 35 49 56 61 63 64 67 71 77 83 85 89 89 97 100 102 105 105 104 104 105 107 114 116 114 111 105 93 83 86 87 83 94 88 81 86 80 67 65
49 41 26 20 22 28 41 49 57 60 66 68 68 72 78 79 87 89 94 97 98 100 102 103 104 105 105 105 105 105 107 110 115 112 91 92 86 79 81 89 91 88 87 82
53 47 35 21 22 26 34 46 52 58 64 65 72 74 72 76 82 83 87 91 95 99 100 101 102 103 106 107 105 105 104 104 104 97 98 97 90 83 82 85 87 92 94 94
56 50 41 28 18 25 31 38 47 52 58 62 73 70 68 73 75 79 80 84 91 95 99 100 100 102 105 107 107 105 104 103 102 101 92 91 97 95 94 88 92 91 89 90
57 54 46 34 21 19 27 32 42 51 58 62 67 64 73 75 76 78 78 81 86 89 94 97 99 98 98 103 105 105 107 107 105 104 103 103 101 97 95 93 89 86 86 93
62 56 53 40 28 19 23 32 35 44 52 54 56 62 68 73 78 78 78 79 83 88 90 91 93 98 98 96 100 103 107 108 108 108 108 107 107 106 105 102 101 98 99 99
62 60 56 47 35 24 20 24 30 38 44 54 57 60 68 74 75 75 77 80 82 84 85 87 89 91 93 93 96 97 99 102 106 108 110 111 111 109 109 107 106 105 103 103
63 66 58 55 45 32 21 21 24 32 37 50 56 59 64 70 74 76 76 77 79 80 82 84 85 86 88 91 94 96 98 99 101 102 105 107 108 107 107 108 106 105 105 105
65 70 65 58 50 39 28 20 19 25 34 40 50 59 64 69 72 75 75 74 74 75 77 78 79 81 83 86 89 92 96 98 100 103 104 105 106 106 104 104 103 103 103 102
63 69 71 64 54 41 31 23 17 16 22 40 47 57 62 66 70 74 74 73 76 77 77 78 80 82 83 84 86 89 90 91 92 95 98 99 101 102 101 100 99 99 98 98
59 67 72 66 59 45 34 24 18 13 20 25 43 52 59 63 65 67 68 70 74 77 78 78 78 78 78 79 80 82 84 86 88 88 89 92 93 94 96 96 95 95 94 92
59 64 71 70 58 48 35 28 21 16 16 22 31 39 52 57 60 64 66 69 71 71 72 74 73 75 76 78 82 81 80 81 81 83 86 86 88 89 90 90 89 87 87 87
56 63 68 68 61 52 47 36 27 20 17 21 27 41 44 48 57 64 67 68 67 69 71 72 72 72 73 75 75 76 77 77 77 78 79 81 82 82 82 82 82 83 83 83
59 64 68 73 67 62 53 44 34 26 19 20 27 32 34 39 47 56 62 65 67 69 70 71 72 72 73 72 71 72 72 73 75 76 76 77 77 76 77 77 77 77 79 79
57 65 68 75 74 67 64 53 44 35 27 21 24 28 29 33 36 44 52 59 65 66 67 68 69 71 71 72 71 70 72 73 73 74 75 75 74 73 73 73 73 74 74 75
58 62 70 74 76 75 69 63 54 48 34 26 22 23 26 29 33 39 42 51 56 60 63 65 67 68 69 69 69 70 71 72 72 73 73 71 70 71 72 71 71 69 69 71
59 61 67 74 78 78 74 67 63 57 42 32 23 20 23 27 33 37 40 44 50 56 60 63 63 63 64 64 64 64 66 69 69 69 69 70 70 69 69 69 69 68 68 71
58 61 67 77 79 80 76 74 70 65 49 39 29 22 20 22 28 34 38 42 45 52 56 59 60 60 60 60 60 59 60 60 60 62 63 63 63 65 67 68 68 69 70 71
59 60 70 74 78 84 80 80 76 72 60 45 33 27 21 21 23 29 34 38 43 48 52 55 56 56 55 55 56 55 54 54 56 58 59 61 62 65 67 68 70 70 71 72
56 61 68 75 79 85 85 86 83 74 64 51 41 31 25 21 23 26 31 34 39 45 50 53 54 54 53 52 54 54 55 56 57 59 61 63 64 66 66 66 67 66 66 67
58 62 68 73 78 83 87 88 84 77 72 57 46 37 28 24 24 27 29 32 35 40 47 51 53 54 54 54 54 55 55 54 56 58 59 59 59 60 60 60 60 59 59 59
59 62 67 75 80 84 84 84 85 81 77 60 49 37 29 24 24 26 28 31 33 36 42 47 49 52 52 51 50 49 49 51 52 53 53 53 54 54 54 54 53 54 53 53

GFSCGP_250_spd_102.txt.gz
Wind_Speed
46 37 24 16 13 15 19 36 52 66 61 59 71 81 87 96 105 108 105 100 98 95 94 80 71 62 72 84 80 77 85 84 84 79 66 71 85 85 79 86 83 76 73 76
43 37 29 17 13 18 21 28 40 52 54 66 62 76 82 92 102 108 108 107 101 98 94 82 80 73 70 78 82 79 77 70 79 60 78 55 59 57 63 68 65 65 71 71
40 40 33 25 14 18 27 31 34 44 46 54 59 67 81 89 96 105 109 109 106 111 106 88 85 91 76 70 69 83 80 77 73 75 66 75 74 64 66 73 74 79 70 69
45 43 37 31 22 17 23 36 37 41 45 50 57 57 68 83 91 99 107 110 112 114 111 110 100 91 100 89 91 83 81 88 87 79 82 75 70 75 79 83 86 83 73 78
41 42 39 34 27 24 21 31 44 43 49 48 50 54 60 74 86 89 99 107 112 114 113 111 111 105 100 100 96 99 95 87 92 96 86 90 78 94 87 86 74 78 77 75
45 43 40 35 31 27 25 29 41 53 52 53 52 53 58 59 72 93 100 103 108 113 115 114 114 113 112 109 106 100 97 98 100 94 99 96 97 95 94 96 96 94 91 87
48 45 40 37 33 29 29 28 35 42 47 52 58 55 57 61 68 76 87 98 101 107 109 113 112 112 113 118 115 114 113 112 112 109 110 109 106 111 106 99 97 102 95 84
50 48 45 38 34 29 28 30 30 37 45 52 63 58 64 64 66 69 73 80 91 99 101 106 109 111 112 113 117 122 114 115 115 116 116 114 114 110 102 105 107 107 108 91
52 49 48 45 36 30 27 27 29 35 41 48 57 55 66 70 70 73 75 76 83 90 96 103 105 108 109 112 113 113 116 120 121 117 116 117 119 117 118 115 115 116 115 117
53 55 52 48 42 34 28 27 26 29 35 43 49 56 63 72 77 78 78 80 83 86 91 98 102 105 105 106 107 109 110 111 114 118 121 122 119 120 121 119 117 114 113 111
53 57 56 54 48 40 32 25 24 26 29 35 45 57 67 73 76 77 78 81 83 86 88 92 97 102 103 105 107 108 109 111 113 112 112 111 112 112 113 114 116 115 113 111
53 59 59 58 53 47 37 25 21 20 23 32 40 50 67 74 77 77 80 83 84 85 87 90 94 101 105 107 108 111 111 112 112 112 112 113 114 113 115 115 114 115 116 114
52 60 63 59 55 49 43 32 20 19 20 27 37 50 59 70 76 78 79 81 81 83 85 86 89 92 97 103 106 109 110 112 113 112 112 112 114 118 118 118 118 120 119 120
53 59 65 65 59 53 44 36 24 18 17 22 29 44 57 67 72 77 80 80 79 80 82 83 86 87 89 92 95 99 103 108 110 111 112 113 113 113 111 113 115 117 117 118
51 58 64 66 62 54 47 36 29 21 16 16 28 38 50 55 64 71 76 80 81 81 80 80 83 85 86 86 87 90 93 96 100 102 106 107 110 111 112 112 115 115 113 112
48 55 60 66 64 56 47 39 33 26 19 16 19 27 37 42 49 60 69 74 76 74 75 75 77 79 82 83 86 87 88 91 91 92 96 96 97 102 106 107 107 107 105 103
47 51 59 66 68 62 55 52 41 29 21 18 18 22 27 31 39 48 57 65 70 74 77 77 78 78 82 82 82 85 85 84 82 84 84 86 89 91 92 95 96 94 94 95
45 49 57 64 69 68 64 61 51 41 28 19 18 18 22 26 33 40 47 53 63 68 71 75 77 80 83 82 81 80 79 78 79 79 81 82 86 86 87 86 85 86 85 86
46 49 55 64 70 70 70 70 60 55 45 27 20 17 19 23 29 37 45 51 56 64 70 75 78 78 79 78 78 76 74 72 72 75 78 81 83 83 83 84 83 83 83 82
47 51 57 64 73 75 73 71 63 58 53 41 30 21 19 23 29 32 38 47 52 59 65 68 70 71 72 73 73 73 73 72 73 75 76 76 76 75 76 77 76 77 78 77
47 50 55 63 71 76 78 75 72 68 60 52 38 28 21 22 27 31 35 40 47 53 55 61 65 67 69 70 70 71 70 70 71 70 70 72 72 72 72 72 72 72 72 73
46 51 56 64 67 79 79 82 79 74 65 62 50 38 26 21 24 29 32 37 40 43 47 52 59 62 66 69 69 68 65 65 65 66 68 69 68 69 70 70 70 71 72 72
46 53 59 65 68 76 82 89 83 82 74 70 61 48 33 23 21 25 29 33 36 39 41 48 54 60 62 64 65 64 63 62 62 64 65 65 65 65 65 66 68 69 70 71
47 53 57 61 68 75 79 86 89 87 79 79 73 57 41 27 22 20 25 29 32 34 37 41 45 52 57 59 59 59 59 58 57 58 60 61 62 62 63 64 65 66 68 69
48 53 54 61 66 72 77 84 89 90 87 82 75 65 46 32 25 20 21 26 29 32 34 39 42 46 52 54 56 57 56 55 56 57 58 59 59 60 61 62 63 65 64 64
46 51 53 57 63 69 76 78 84 87 86 82 80 69 51 39 28 23 21 22 25 29 33 37 40 43 48 52 54 56 57 57 58 58 59 61 60 59 59 60 61 61 60 61

GFSCGP_250_spd_105.txt.gz
Wind_Speed
46 43 37 29 16 7 1 10 18 23 44 42 51 58 65 83 96 111 98 97 97 98 85 73 75 78 79 69 67 63 62 61 54 50 47 48 54 56 60 57 63 64 62 60
41 40 37 32 24 13 8 8 12 32 36 41 34 52 65 79 93 117 109 102 107 106 96 100 86 91 86 86 68 72 64 61 63 63 63 57 49 55 57 58 67 65 69 67
43 41 38 33 28 19 11 15 18 22 26 30 22 28 52 72 91 109 119 108 102 101 97 92 93 93 97 100 95 85 84 68 68 61 56 58 60 59 60 56 36 52 58 58
38 44 42 35 28 23 17 16 20 25 28 30 32 32 42 66 84 100 119 119 108 100 98 93 88 86 82 80 91 92 94 77 70 61 57 55 44 53 54 46 30 42 45 50
38 39 39 36 32 24 23 17 19 25 31 35 32 32 32 44 76 93 107 122 118 113 101 96 97 93 88 84 80 77 81 82 65 69 71 60 70 68 52 57 53 69 59 67
37 39 40 41 36 30 26 22 22 25 31 36 36 36 38 36 66 85 103 113 121 123 119 117 110 105 103 90 89 85 85 96 86 69 58 67 71 75 82 85 82 84 83 66
39 40 38 40 41 34 27 24 23 26 31 37 43 41 45 42 47 73 85 106 120 123 123 118 114 115 117 111 95 98 95 98 95 94 91 90 79 81 88 88 79 77 78 79
43 43 43 39 38 35 30 24 22 24 30 39 43 47 51 53 51 60 71 94 110 121 120 121 120 114 110 106 107 98 94 89 103 107 99 95 97 86 88 91 94 91 92 90
42 45 47 46 40 35 34 26 21 21 31 39 43 47 57 56 57 58 68 79 102 113 120 121 122 119 118 112 106 104 106 102 95 94 96 94 96 97 99 97 97 97 97 98
43 47 47 47 43 37 34 27 19 20 26 35 43 52 60 57 59 61 64 69 80 103 113 121 123 120 119 114 113 114 106 98 102 104 103 103 101 103 100 101 104 108 111 111
42 47 50 48 50 42 37 31 21 16 19 29 41 53 61 64 61 67 69 70 75 83 99 111 121 125 124 122 119 121 119 120 117 118 117 115 114 115 116 115 116 115 118 122
43 49 51 51 48 48 46 35 25 13 13 23 36 49 57 65 65 67 72 72 74 76 84 90 108 118 127 128 124 125 129 129 126 125 124 122 121 121 120 120 123 124 126 126
44 50 55 55 56 57 48 40 32 18 11 17 30 45 50 55 62 68 72 76 77 77 80 84 89 98 110 118 122 126 132 131 130 129 129 128 127 126 128 129 128 128 130 134
45 51 56 57 56 54 49 37 30 25 13 14 24 36 44 54 60 66 72 75 77 78 79 81 85 91 96 104 109 116 119 120 123 126 129 130 130 130 130 133 136 135 133 135
44 50 55 59 59 56 49 41 32 28 20 13 17 25 38 50 57 64 70 76 79 82 81 82 85 87 91 96 104 109 113 115 118 119 121 122 123 124 126 127 127 128 130 128
42 47 53 59 62 59 55 47 43 35 27 19 15 19 25 33 53 62 67 73 78 82 83 84 84 86 90 94 96 100 103 108 113 118 119 119 121 122 123 123 125 127 126 128
40 46 53 57 62 60 55 57 43 40 28 22 20 18 19 25 32 48 59 67 72 78 81 83 85 88 90 91 92 93 95 97 100 106 110 114 117 120 123 123 124 123 126 126
37 44 50 54 61 67 66 59 55 44 38 33 21 19 18 23 29 36 43 52 63 72 79 85 89 91 93 93 91 91 92 92 94 95 96 97 103 107 109 112 111 113 113 116
37 41 46 52 59 62 68 69 64 56 51 41 32 21 18 19 26 33 39 43 50 61 72 77 83 89 92 93 92 91 91 90 90 92 94 95 97 101 102 102 102 102 104 104
37 42 46 51 57 65 69 70 70 62 59 54 41 34 23 20 22 27 35 41 44 51 59 67 75 81 84 86 88 90 90 90 90 88 87 88 91 95 95 96 97 98 99 97
36 41 46 51 57 62 67 71 72 71 72 60 55 49 38 27 21 23 28 36 42 46 50 57 65 72 76 78 81 83 84 84 83 83 83 86 88 90 92 94 95 96 95 91
37 41 46 52 54 62 69 72 75 75 74 69 63 63 52 36 25 22 25 30 37 44 46 49 53 60 67 73 76 78 78 78 79 80 80 81 83 84 86 86 83 81 81 81
34 41 46 49 55 58 67 73 75 77 76 75 72 67 62 45 29 23 23 26 32 38 43 46 48 51 53 57 62 69 74 75 76 77 77 78 77 77 77 77 75 75 76 76
34 39 44 51 57 59 64 70 72 77 81 81 76 70 69 55 40 24 23 23 26 31 36 40 44 45 47 51 56 60 64 67 70 72 73 73 72 72 71 70 70 70 70 71
34 40 45 50 55 59 59 63 72 73 76 81 80 78 66 59 47 33 22 20 22 26 31 33 38 40 43 45 51 56 57 59 61 63 64 65 66 67 67 66 66 67 67 68
34 39 44 48 53 54 56 58 67 70 72 76 80 76 71 61 51 38 29 21 19 23 27 31 33 37 39 42 44 49 54 57 58 59 60 61 62 63 64 64 65 65 65 65

GFSCGP_250_spd_108.txt.gz
Wind_Speed
37 37 38 33 24 11 5 5 6 5 15 22 35 43 54 69 84 94 104 109 119 114 104 95 89 72 67 58 55 57 65 66 60 61 59 61 60 56 54 55 56 56 51 50
35 35 36 34 29 21 11 1 6 8 11 16 21 41 48 61 78 93 104 113 117 115 106 94 97 83 73 70 67 67 68 60 55 61 65 62 63 56 58 58 55 56 57 57
33 36 36 35 32 24 15 7 9 14 19 21 20 22 41 53 76 94 102 111 127 113 112 101 101 96 94 78 73 74 67 67 69 66 68 65 66 66 65 60 56 57 62 64
31 33 35 36 36 31 20 12 7 14 21 24 20 26 35 48 74 92 99 114 130 124 116 110 106 105 99 105 85 81 75 68 69 68 67 70 67 60 55 54 55 59 57 62
30 34 37 34 33 31 27 18 12 13 20 26 33 32 37 54 66 101 104 109 117 120 126 112 124 116 98 101 106 84 80 77 65 64 67 63 60 52 52 55 55 55 60 60
29 31 34 35 35 31 28 24 18 14 20 27 37 45 45 48 71 103 118 117 116 113 110 101 104 114 114 115 87 96 86 76 62 64 69 66 63 58 59 58 56 54 56 53
30 32 32 31 33 33 30 25 20 18 23 32 37 43 47 55 76 102 121 117 120 113 112 111 107 109 112 122 108 100 102 83 82 78 66 70 65 62 61 63 61 63 59 61
31 35 36 35 32 31 29 26 21 19 25 33 39 45 57 59 70 102 121 122 120 116 118 113 113 107 113 111 102 101 109 96 82 76 84 79 73 69 68 71 73 69 61 63
31 34 34 36 35 32 28 25 20 20 24 31 35 50 57 69 74 87 124 126 123 126 124 122 115 108 114 113 111 110 105 107 107 100 85 82 85 87 83 84 85 85 84 80
32 36 36 38 40 37 35 28 22 19 20 26 33 50 59 65 75 87 109 131 129 130 127 123 116 112 114 117 113 113 116 117 111 115 110 103 95 97 98 91 98 94 94 89
34 36 40 41 47 45 43 34 26 19 18 21 30 42 53 64 73 81 99 116 135 134 132 132 128 120 118 113 118 123 122 117 110 107 103 99 99 99 101 97 97 91 90 96
36 40 42 46 50 51 49 37 31 23 16 19 26 35 43 57 69 80 88 103 117 138 134 133 130 131 125 123 123 115 114 117 108 107 105 104 101 101 102 107 107 106 103 97
34 41 45 48 52 55 55 47 31 27 20 17 23 32 39 44 56 69 84 91 105 117 131 139 138 137 135 130 128 126 123 119 119 115 114 109 110 107 109 113 116 122 119 116
35 42 48 50 51 53 56 50 41 29 20 15 18 24 33 41 48 60 74 85 94 107 120 129 140 145 148 141 139 135 132 130 124 125 125 124 125 124 124 121 122 116 119 119
33 39 46 51 54 53 48 48 43 36 29 20 14 20 29 37 43 51 62 75 84 97 106 118 127 134 141 140 145 148 148 145 142 133 127 126 125 124 122 124 125 126 126 126
32 37 44 51 55 54 50 52 55 44 33 18 16 15 23 32 41 47 53 60 70 84 93 104 110 122 127 132 139 146 146 148 147 144 140 135 133 129 128 130 130 132 132 133
32 38 43 49 55 55 54 56 52 47 38 37 21 16 16 22 32 39 45 55 62 68 82 90 101 106 105 116 129 131 140 149 148 145 139 134 135 136 135 135 136 136 137 137
31 37 41 48 54 61 60 59 56 54 45 38 38 22 14 19 23 32 41 47 56 65 72 79 88 92 96 102 107 108 119 131 137 141 148 149 144 144 146 147 148 146 147 149
29 35 40 47 51 54 62 64 63 65 58 56 44 33 22 15 19 24 34 44 51 57 67 75 79 83 89 94 98 101 107 113 117 121 129 138 150 157 155 154 154 153 155 156
27 33 38 44 50 55 57 63 65 65 62 59 52 43 34 26 17 19 27 34 43 52 58 66 75 81 84 88 92 97 100 102 104 109 113 120 123 131 139 149 152 151 154 151
26 32 36 43 48 51 56 61 62 68 67 64 58 57 53 44 33 21 20 28 36 43 51 59 66 75 82 87 91 93 96 100 101 101 102 105 109 114 120 123 126 130 131 131
25 32 36 40 46 49 50 54 61 66 71 70 70 65 57 54 46 36 22 21 27 36 43 50 58 65 73 80 86 90 93 94 94 96 99 101 102 103 103 105 109 112 114 114
24 30 35 43 45 50 49 50 54 62 67 71 71 68 63 60 50 46 32 22 21 28 36 41 47 54 60 65 71 77 83 87 89 92 95 96 98 100 100 102 104 104 105 105
23 29 34 41 45 49 54 51 55 55 62 65 68 71 67 65 60 47 37 25 21 22 26 34 39 43 50 55 59 62 65 71 77 82 86 90 92 92 93 95 97 98 98 97
23 28 34 39 43 47 53 52 55 50 54 60 66 67 67 66 66 50 42 30 21 18 21 26 32 37 40 46 51 54 55 58 62 67 73 79 82 84 85 86 86 87 86 86
23 26 32 38 42 47 50 54 50 51 48 56 63 66 67 70 67 62 50 37 29 21 18 20 26 32 37 40 43 48 50 53 56 60 65 68 71 73 75 76 77 78 78 78

GFSCGP_250_spd_111.txt.gz
Wind_Speed
19 20 24 24 19 14 7 1 8 14 12 15 22 33 48 61 79 82 81 79 75 78 79 77 73 86 77 77 65 55 63 55 56 51 53 52 53 56 60 63 64 64 65 64
22 22 24 26 25 18 12 3 5 13 16 13 18 26 40 54 72 83 88 87 80 78 87 88 77 71 77 76 78 67 59 62 59 57 50 53 57 60 54 58 58 58 62 61
22 28 28 27 27 22 15 7 3 9 17 21 20 25 33 48 66 80 89 93 88 83 91 94 81 79 76 83 76 80 68 66 61 50 54 59 60 58 59 60 58 60 60 57
23 28 31 28 27 25 19 12 6 10 15 23 29 30 26 43 64 81 93 98 97 93 100 93 78 78 82 86 79 77 81 74 57 59 58 62 57 57 56 55 54 54 59 59
24 26 28 30 28 26 23 15 8 11 18 26 34 40 41 39 63 77 93 102 102 109 110 104 89 90 84 83 82 73 68 79 66 64 72 64 60 62 64 65 60 62 58 56
22 24 25 27 29 28 27 19 15 10 18 29 39 48 52 48 62 81 93 104 111 118 117 115 105 99 97 83 88 79 75 76 71 67 71 68 68 62 65 67 65 66 62 57
19 22 22 23 25 27 26 26 16 13 18 27 43 57 58 56 64 78 92 101 116 126 123 115 114 106 101 93 87 85 84 82 78 71 70 73 69 71 71 73 70 71 70 65
22 26 29 29 27 23 24 22 20 15 16 22 39 57 67 67 64 78 95 106 116 129 128 122 116 107 97 98 85 93 95 89 83 76 72 66 72 74 73 73 69 65 64 60
25 27 30 33 31 27 25 20 18 15 13 22 30 51 71 77 78 82 92 106 118 132 129 128 117 109 102 98 92 86 97 99 99 88 80 83 73 72 78 77 72 67 67 62
27 28 31 35 36 35 32 28 20 14 13 16 27 43 61 78 85 88 95 112 119 132 134 131 123 116 109 105 101 95 98 100 104 103 92 92 84 79 74 79 81 80 79 80
29 31 34 36 38 42 41 33 23 18 15 15 24 27 46 65 84 92 99 110 126 130 136 135 129 123 117 111 100 105 103 109 92 105 106 98 96 87 76 75 78 81 84 90
30 34 36 39 43 47 49 44 31 19 15 12 17 19 35 61 72 93 101 107 117 131 135 139 137 131 125 122 107 104 116 107 99 94 106 107 103 100 95 84 83 85 83 89
31 36 38 39 42 46 50 53 45 30 19 14 12 14 24 40 69 81 97 107 116 124 129 145 143 138 133 127 130 115 122 114 115 114 110 110 105 104 97 98 95 92 94 97
32 38 41 44 44 47 47 50 47 40 28 19 12 9 17 28 44 70 85 103 117 131 131 138 148 150 142 139 132 132 126 124 115 110 112 118 120 121 119 113 109 99 92 94
31 37 42 47 51 46 49 48 44 41 32 25 18 14 10 19 31 51 75 88 109 129 133 141 141 142 145 143 132 133 130 118 126 130 120 116 122 118 118 121 124 121 116 115
30 35 41 46 51 52 50 49 52 48 39 36 26 17 13 11 20 31 48 78 94 119 134 136 140 139 141 142 138 147 141 134 128 130 131 122 109 116 124 122 126 128 129 127
28 33 39 44 50 54 55 53 52 55 53 48 37 31 17 13 15 22 35 50 74 94 117 143 148 148 149 147 148 145 141 147 140 137 131 129 132 128 127 128 126 124 124 131
26 30 35 42 48 53 56 57 56 58 59 55 50 41 33 21 14 22 27 37 51 72 98 119 149 157 155 153 153 152 152 148 145 144 141 133 135 139 133 129 134 139 135 134
25 29 33 38 45 50 54 58 58 63 60 56 50 46 41 35 20 15 23 32 40 50 69 90 110 149 158 159 160 161 159 156 156 154 149 145 143 140 139 138 139 137 133 133
22 27 32 35 40 47 53 54 60 60 62 63 56 55 42 39 34 25 15 21 33 42 51 65 80 104 135 156 156 160 159 159 158 156 158 158 155 155 153 152 150 149 150 151
19 24 29 33 39 44 50 54 58 61 63 64 66 62 56 48 46 40 31 19 19 28 41 50 60 77 93 111 126 152 163 161 163 165 164 165 163 162 161 161 159 160 161 160
17 22 26 31 36 40 47 51 57 62 65 64 66 66 66 60 54 48 45 37 24 19 26 37 49 57 66 80 92 108 134 143 156 162 171 168 168 172 174 172 177 174 172 171
16 20 25 30 35 39 44 50 53 60 61 62 65 66 70 66 61 57 52 42 35 26 23 27 35 45 54 61 69 82 93 106 116 132 145 143 141 139 143 146 152 157 152 156
16 20 24 28 33 38 40 46 49 55 61 63 61 67 68 69 67 61 58 57 46 33 27 24 27 35 42 50 58 63 69 76 87 96 103 110 115 119 120 126 129 132 134 135
17 20 23 27 31 35 40 44 50 55 58 58 59 62 66 65 63 62 60 57 53 49 36 28 26 28 34 39 45 52 57 64 69 74 78 83 88 93 97 101 105 108 112 113
19 20 23 25 30 33 39 43 48 51 56 59 59 59 59 62 64 65 64 59 56 51 49 37 28 26 29 32 37 43 48 54 59 63 67 71 74 78 82 86 89 91 94 97

GFSCGP_250_spd_114.txt.gz
Wind_Speed
10 10 10 10 12 15 15 17 15 13 21 23 25 27 35 49 61 76 84 84 84 77 46 66 77 76 79 83 76 67 65 64 62 64 65 57 46 50 56 61 64 64 67 67
8 10 12 11 13 13 12 12 11 12 15 25 30 32 38 52 61 79 90 92 84 84 63 69 81 76 71 75 80 61 71 76 60 67 72 67 57 53 53 58 60 52 52 53
12 15 17 18 17 15 14 12 10 10 16 21 28 36 41 58 60 73 92 97 88 76 60 66 74 74 68 75 79 70 79 64 68 67 68 69 68 61 55 51 53 50 50 48
15 19 22 23 21 19 15 14 13 8 13 20 30 37 43 57 73 78 83 90 84 71 65 69 72 72 67 75 74 66 56 55 81 70 74 76 77 64 62 56 54 52 56 51
15 17 21 24 25 25 23 17 14 13 11 20 28 38 48 56 74 84 86 87 86 76 70 76 75 73 73 72 69 76 81 54 61 59 68 66 64 65 61 57 55 57 55 61
18 18 18 20 23 24 24 26 17 14 14 17 31 34 45 55 66 81 93 91 89 83 79 79 82 88 82 79 80 94 80 71 67 63 54 61 63 62 57 60 50 56 61 62
18 20 20 20 21 24 24 25 24 17 16 18 26 35 42 54 61 71 82 92 95 90 87 89 87 94 88 82 89 92 103 77 71 71 67 60 58 60 66 64 57 56 59 61
19 20 22 23 21 21 19 22 23 20 17 22 21 31 44 52 60 69 82 92 97 95 95 99 102 104 92 87 87 93 98 98 82 82 81 75 62 64 70 72 71 72 69 73
19 21 24 27 29 25 22 21 20 16 16 19 20 26 42 51 59 69 83 95 100 100 102 103 105 100 97 97 96 95 97 103 102 84 80 84 78 78 79 74 76 78 77 74
22 25 26 27 29 31 26 20 18 14 13 13 11 22 38 49 60 70 84 95 101 102 106 108 107 109 101 98 99 101 91 89 101 99 81 87 91 85 80 78 81 79 76 79
26 27 30 30 33 37 35 28 22 16 13 8 8 19 34 45 58 65 82 93 102 106 109 113 113 115 114 110 108 102 101 98 96 95 94 91 94 92 83 78 79 83 83 86
31 32 33 36 35 37 41 39 28 22 18 10 3 12 28 40 53 63 70 89 101 108 110 114 118 125 127 123 118 111 103 106 99 98 97 95 95 95 92 95 88 80 87 92
31 33 37 39 41 42 43 39 35 28 23 16 8 5 21 35 44 59 70 80 97 108 113 118 124 128 129 128 120 116 109 103 93 102 100 100 99 98 96 90 92 91 91 92
31 35 39 41 45 43 42 42 40 33 24 20 15 5 12 27 35 51 64 80 90 107 116 121 128 136 132 128 122 119 113 111 107 101 106 109 107 104 103 105 101 102 100 97
31 35 40 42 44 45 43 43 36 39 29 21 19 12 5 11 28 35 53 69 86 97 113 123 131 133 135 135 137 120 110 114 114 112 110 105 109 109 104 104 105 104 107 106
28 33 39 43 47 49 48 47 45 37 41 33 19 13 15 10 11 29 37 45 69 92 103 117 123 130 137 138 139 138 126 118 112 111 118 113 114 110 110 104 104 105 109 106
26 31 36 41 44 50 52 53 52 50 51 49 46 28 20 15 13 15 29 43 48 67 96 100 121 131 137 140 142 145 141 129 125 120 113 111 112 114 109 104 103 101 106 106
23 28 33 37 43 48 52 55 53 53 53 57 55 48 38 24 11 15 18 29 48 54 64 88 109 125 134 145 148 152 148 146 136 133 128 123 118 119 120 117 111 112 111 117
21 26 30 35 40 46 50 52 57 56 55 57 57 51 48 36 28 18 13 19 29 46 61 66 81 103 122 139 151 155 153 157 153 146 142 142 137 130 126 125 125 124 127 130
19 23 27 32 36 41 46 51 55 58 60 62 61 57 50 47 39 31 25 19 16 26 39 57 74 77 96 115 132 141 150 156 159 156 158 151 148 144 144 136 134 137 134 131
19 21 24 28 33 38 42 47 52 55 62 64 66 65 59 54 45 44 38 32 28 16 20 32 50 67 87 95 115 121 134 149 157 165 165 164 163 159 155 149 145 145 143 138
19 20 23 27 30 33 38 42 47 54 58 67 67 67 67 66 64 58 49 43 35 30 19 19 27 40 59 77 97 121 132 144 150 161 162 165 169 165 164 165 161 159 153 153
19 20 23 25 28 31 35 40 45 49 54 59 63 68 69 69 68 63 60 54 45 35 29 22 16 22 33 49 67 82 96 115 130 152 160 156 154 163 170 171 170 167 164 165
19 22 24 26 28 30 34 39 43 44 49 53 60 68 68 69 67 63 61 60 57 46 40 28 24 20 20 27 37 52 68 84 102 115 138 160 156 158 164 159 163 167 164 169
21 22 25 27 30 31 33 38 43 44 46 50 55 59 66 71 69 65 63 65 63 57 49 43 37 30 25 22 26 33 43 55 70 85 100 124 137 135 158 174 173 170 163 151
24 24 27 29 31 33 33 37 41 45 45 50 54 57 62 66 63 61 66 65 64 61 55 50 42 43 37 35 30 28 32 38 48 58 69 81 93 105 117 125 129 142 160 178

GFSCGP_250_spd_117.txt.gz
Wind_Speed
10 13 15 19 23 22 24 23 22 22 23 25 31 33 45 55 57 60 66 73 78 79 78 93 86 90 97 102 71 67 66 63 67 57 52 50 44 46 42 47 54 64 71 71
6 9 11 12 14 15 16 16 16 18 17 20 23 29 34 47 52 55 65 75 84 90 89 76 95 97 92 72 70 73 68 68 59 52 61 58 55 50 47 43 41 44 53 56
2 5 6 7 9 10 13 14 16 18 18 16 17 25 30 39 51 60 70 81 93 96 92 92 91 102 90 80 70 80 66 57 53 56 59 59 60 63 58 54 48 41 49 54
7 10 10 12 14 15 15 13 12 16 19 14 15 22 26 38 50 65 82 93 99 100 100 97 100 85 84 67 79 80 66 71 65 56 53 60 58 61 60 63 62 57 56 53
9 9 13 17 18 19 23 19 16 15 17 17 15 21 25 41 57 72 80 95 102 103 104 100 89 75 75 68 80 96 83 78 74 56 53 60 61 64 60 66 67 63 59 61
12 14 15 17 19 22 25 26 24 20 12 16 11 21 25 35 54 67 83 95 102 104 100 81 62 67 90 80 80 93 80 85 72 58 60 58 57 62 69 65 62 65 63 62
16 18 18 20 23 25 28 27 26 22 17 6 11 21 27 33 48 62 82 92 101 104 100 84 55 65 75 84 83 88 83 82 75 67 72 76 70 74 77 76 68 68 68 72
20 17 19 20 24 27 27 26 24 19 15 3 14 23 30 39 53 69 72 92 100 101 92 91 61 59 81 90 93 89 83 75 74 72 75 73 71 72 75 76 80 60 65 67
19 17 20 22 25 27 27 24 20 19 10 7 10 20 32 43 53 65 75 86 100 101 92 84 84 65 80 87 91 87 82 84 80 81 77 82 80 72 73 69 70 69 73 75
25 26 23 22 24 28 26 25 20 17 12 6 6 17 25 40 44 65 73 85 93 100 99 93 85 90 73 81 84 82 85 83 82 81 88 88 81 73 73 70 69 78 82 83
31 33 32 31 31 31 31 31 24 21 15 3 5 9 21 30 45 62 76 85 83 91 100 93 93 101 80 84 86 88 88 85 92 96 92 85 83 82 81 78 76 78 87 86
32 34 38 38 35 32 36 34 30 23 17 11 8 8 14 21 30 47 63 81 90 90 86 94 99 103 96 88 94 92 98 100 97 99 100 98 90 85 86 86 89 88 91 87
34 35 38 40 43 42 39 35 25 22 21 17 12 9 8 19 24 32 50 64 83 75 92 93 97 105 103 92 102 102 102 101 100 97 105 100 93 92 89 92 91 91 91 88
35 37 39 43 47 45 43 44 36 25 22 23 21 15 9 9 18 29 38 56 65 79 90 96 99 99 106 96 104 107 110 102 105 97 103 106 107 101 94 93 93 92 95 94
33 39 41 44 47 48 49 44 43 41 26 23 28 22 21 10 10 19 28 39 54 58 90 95 103 103 109 111 107 115 113 112 108 108 103 108 102 101 100 98 100 100 96 98
33 38 41 45 48 51 50 49 48 44 40 36 23 24 26 21 13 12 20 31 35 51 61 87 101 107 110 113 111 121 119 118 119 114 115 110 107 109 106 105 101 101 102 104
30 34 38 42 46 50 50 53 52 53 47 43 42 33 29 25 23 15 11 18 29 37 55 66 90 105 109 116 116 126 126 124 121 121 117 117 116 113 110 115 114 109 105 104
26 30 34 38 42 45 52 53 53 54 54 54 45 44 36 32 22 17 16 10 16 29 40 53 66 96 109 114 121 126 130 131 128 128 125 123 119 120 116 114 113 117 120 116
22 25 29 34 38 42 47 50 53 55 54 54 53 53 45 40 37 28 21 14 7 14 27 40 56 75 86 95 119 127 136 136 137 133 132 131 131 129 124 122 118 115 116 115
18 22 25 29 33 38 42 45 48 51 53 54 56 56 53 55 44 36 33 24 18 13 10 23 38 53 71 90 106 120 129 134 137 143 146 142 142 139 132 129 126 127 123 122
16 19 22 25 28 32 36 41 45 46 48 51 56 57 63 60 53 45 42 36 25 27 26 14 20 32 46 62 80 109 127 131 136 140 147 146 150 144 146 145 136 131 130 125
16 18 20 23 26 28 32 37 41 44 47 49 51 53 56 61 61 60 49 45 44 34 31 29 24 18 31 44 54 67 87 118 139 137 150 150 156 157 157 155 151 147 145 141
17 19 21 23 24 27 29 33 37 41 44 47 50 53 55 58 62 64 63 57 52 49 44 36 33 30 21 23 33 48 60 74 90 107 131 148 152 161 164 164 161 157 157 159
21 21 22 25 25 27 29 32 35 38 40 45 49 52 54 55 60 61 67 65 63 55 55 52 45 40 32 31 28 27 37 47 60 74 89 107 119 135 154 159 161 164 167 169
25 24 24 26 27 28 29 30 34 37 39 43 45 48 53 56 58 61 64 69 67 63 62 59 54 51 47 42 36 33 30 31 39 49 60 71 83 97 112 125 135 143 152 161
27 26 24 25 26 28 29 29 32 34 37 40 43 46 49 52 55 58 63 67 69 69 67 66 66 62 60 53 50 44 44 35 34 38 43 51 60 70 81 90 101 110 120 130